Wetterdaten: Dienstag, 19.04.2016
Datum Zeit Temp. A. Feuchte A. Luftdruck Regen Wind Richtung Richtung Sonnenschein ET UV Solar Taupunkt Windchill Windben Empfang
19.04.2016 00:00 8,6 C 95 % 1020,9 hPa 0,0 l/m 2,7 km/h (1 Bft) SO 125 0 min 0,000 mm 0,0 UV-I 0 W/m 7,8 C 8,6 C 4,8 km/h (1 Bft) 100,00 %
19.04.2016 00:02 8,5 C 95 % 1020,9 hPa 0,0 l/m 1,1 km/h (1 Bft) SO 125 0 min 0,000 mm 0,0 UV-I 0 W/m 7,7 C 8,5 C 3,2 km/h (1 Bft) 100,00 %
19.04.2016 00:03 8,5 C 95 % 1020,8 hPa 0,0 l/m 0,9 km/h (0 Bft) SO 125 0 min 0,000 mm 0,0 UV-I 0 W/m 7,7 C 8,5 C 1,6 km/h (1 Bft) 97,56 %
19.04.2016 00:04 8,5 C 95 % 1020,9 hPa 0,0 l/m 1,2 km/h (1 Bft) SO 125 0 min 0,000 mm 0,0 UV-I 0 W/m 7,7 C 8,5 C 3,2 km/h (1 Bft) 100,00 %
19.04.2016 00:05 8,5 C 95 % 1020,9 hPa 0,0 l/m 0,9 km/h (0 Bft) SO 125 0 min 0,000 mm 0,0 UV-I 0 W/m 7,7 C 8,5 C 1,6 km/h (1 Bft) 100,00 %
19.04.2016 00:06 8,4 C 95 % 1020,9 hPa 0,0 l/m 1,7 km/h (1 Bft) SO 125 0 min 0,000 mm 0,0 UV-I 0 W/m 7,6 C 8,4 C 3,2 km/h (1 Bft) 100,00 %
19.04.2016 00:07 8,5 C 95 % 1020,9 hPa 0,0 l/m 1,0 km/h (0 Bft) SO 125 0 min 0,000 mm 0,0 UV-I 0 W/m 7,7 C 8,5 C 1,6 km/h (1 Bft) 100,00 %
19.04.2016 00:08 8,4 C 95 % 1020,9 hPa 0,0 l/m 1,0 km/h (0 Bft) SO 125 0 min 0,000 mm 0,0 UV-I 0 W/m 7,6 C 8,4 C 1,6 km/h (1 Bft) 100,00 %
19.04.2016 00:09 8,5 C 95 % 1020,9 hPa 0,0 l/m 1,3 km/h (1 Bft) SO 125 0 min 0,000 mm 0,0 UV-I 0 W/m 7,7 C 8,5 C 1,6 km/h (1 Bft) 100,00 %
19.04.2016 00:10 8,5 C 95 % 1020,9 hPa 0,0 l/m 1,0 km/h (0 Bft) SO 125 0 min 0,000 mm 0,0 UV-I 0 W/m 7,7 C 8,5 C 1,6 km/h (1 Bft) 100,00 %
19.04.2016 00:11 8,5 C 95 % 1020,9 hPa 0,0 l/m 2,3 km/h (1 Bft) SO 125 0 min 0,000 mm 0,0 UV-I 0 W/m 7,7 C 8,5 C 3,2 km/h (1 Bft) 100,00 %
19.04.2016 00:12 8,5 C 95 % 1020,9 hPa 0,0 l/m 1,6 km/h (1 Bft) SO 125 0 min 0,000 mm 0,0 UV-I 0 W/m 7,7 C 8,5 C 3,2 km/h (1 Bft) 100,00 %
19.04.2016 00:13 8,5 C 95 % 1020,9 hPa 0,0 l/m 1,7 km/h (1 Bft) SO 125 0 min 0,000 mm 0,0 UV-I 0 W/m 7,7 C 8,5 C 3,2 km/h (1 Bft) 100,00 %
19.04.2016 00:14 8,4 C 95 % 1020,9 hPa 0,0 l/m 1,6 km/h (1 Bft) SO 125 0 min 0,000 mm 0,0 UV-I 0 W/m 7,6 C 8,4 C 3,2 km/h (1 Bft) 100,00 %
19.04.2016 00:15 8,4 C 95 % 1020,9 hPa 0,0 l/m 1,0 km/h (0 Bft) SO 125 0 min 0,000 mm 0,0 UV-I 0 W/m 7,6 C 8,4 C 1,6 km/h (1 Bft) 96,15 %
19.04.2016 00:16 8,4 C 95 % 1020,9 hPa 0,0 l/m 1,4 km/h (1 Bft) SO 125 0 min 0,000 mm 0,0 UV-I 0 W/m 7,6 C 8,4 C 3,2 km/h (1 Bft) 100,00 %
19.04.2016 00:17 8,4 C 95 % 1020,9 hPa 0,0 l/m 1,2 km/h (1 Bft) SO 125 0 min 0,000 mm 0,0 UV-I 0 W/m 7,6 C 8,4 C 3,2 km/h (1 Bft) 100,00 %
19.04.2016 00:18 8,4 C 95 % 1020,9 hPa 0,0 l/m 1,8 km/h (1 Bft) SO 125 0 min 0,000 mm 0,0 UV-I 0 W/m 7,6 C 8,4 C 3,2 km/h (1 Bft) 100,00 %
19.04.2016 00:19 8,4 C 95 % 1020,9 hPa 0,0 l/m 1,3 km/h (1 Bft) SO 125 0 min 0,000 mm 0,0 UV-I 0 W/m 7,6 C 8,4 C 1,6 km/h (1 Bft) 100,00 %
19.04.2016 00:20 8,4 C 95 % 1020,9 hPa 0,0 l/m 1,2 km/h (1 Bft) SO 125 0 min 0,000 mm 0,0 UV-I 0 W/m 7,6 C 8,4 C 3,2 km/h (1 Bft) 100,00 %
19.04.2016 00:21 8,4 C 95 % 1020,9 hPa 0,0 l/m 2,7 km/h (1 Bft) S 180 0 min 0,000 mm 0,0 UV-I 0 W/m 7,6 C 8,4 C 4,8 km/h (1 Bft) 100,00 %
19.04.2016 00:22 8,4 C 95 % 1020,9 hPa 0,0 l/m 1,2 km/h (1 Bft) S 180 0 min 0,000 mm 0,0 UV-I 0 W/m 7,6 C 8,4 C 3,2 km/h (1 Bft) 100,00 %
19.04.2016 00:23 8,4 C 95 % 1020,9 hPa 0,0 l/m 0,2 km/h (0 Bft) S 180 0 min 0,000 mm 0,0 UV-I 0 W/m 7,6 C 8,4 C 1,6 km/h (1 Bft) 100,00 %
19.04.2016 00:24 8,4 C 95 % 1020,9 hPa 0,0 l/m 1,1 km/h (1 Bft) S 180 0 min 0,000 mm 0,0 UV-I 0 W/m 7,6 C 8,4 C 3,2 km/h (1 Bft) 100,00 %
19.04.2016 00:25 8,4 C 95 % 1020,9 hPa 0,0 l/m 2,3 km/h (1 Bft) S 180 0 min 0,000 mm 0,0 UV-I 0 W/m 7,6 C 8,4 C 3,2 km/h (1 Bft) 100,00 %
19.04.2016 00:26 8,4 C 95 % 1020,9 hPa 0,0 l/m 2,5 km/h (1 Bft) S 186 0 min 0,000 mm 0,0 UV-I 0 W/m 7,6 C 8,4 C 3,2 km/h (1 Bft) 100,00 %
19.04.2016 00:27 8,4 C 95 % 1020,9 hPa 0,0 l/m 2,6 km/h (1 Bft) S 186 0 min 0,000 mm 0,0 UV-I 0 W/m 7,6 C 8,4 C 3,2 km/h (1 Bft) 96,30 %
19.04.2016 00:28 8,4 C 95 % 1020,9 hPa 0,0 l/m 2,6 km/h (1 Bft) S 189 0 min 0,000 mm 0,0 UV-I 0 W/m 7,6 C 8,4 C 3,2 km/h (1 Bft) 91,30 %
19.04.2016 00:29 8,4 C 95 % 1020,9 hPa 0,0 l/m 2,2 km/h (1 Bft) S 189 0 min 0,000 mm 0,0 UV-I 0 W/m 7,6 C 8,4 C 3,2 km/h (1 Bft) 95,83 %
19.04.2016 00:30 8,4 C 95 % 1020,9 hPa 0,0 l/m 2,4 km/h (1 Bft) S 189 0 min 0,000 mm 0,0 UV-I 0 W/m 7,6 C 8,4 C 3,2 km/h (1 Bft) 100,00 %
19.04.2016 00:31 8,4 C 95 % 1020,9 hPa 0,0 l/m 2,5 km/h (1 Bft) S 191 0 min 0,000 mm 0,0 UV-I 0 W/m 7,6 C 8,4 C 3,2 km/h (1 Bft) 100,00 %
19.04.2016 00:32 8,4 C 95 % 1020,9 hPa 0,0 l/m 2,5 km/h (1 Bft) S 191 0 min 0,000 mm 0,0 UV-I 0 W/m 7,6 C 8,4 C 3,2 km/h (1 Bft) 100,00 %
19.04.2016 00:33 8,4 C 96 % 1020,9 hPa 0,0 l/m 2,4 km/h (1 Bft) S 191 0 min 0,000 mm 0,0 UV-I 0 W/m 7,8 C 8,4 C 3,2 km/h (1 Bft) 100,00 %
19.04.2016 00:34 8,4 C 96 % 1020,9 hPa 0,0 l/m 3,1 km/h (1 Bft) S-SW 210 0 min 0,000 mm 0,0 UV-I 0 W/m 7,8 C 8,4 C 4,8 km/h (1 Bft) 96,55 %
19.04.2016 00:35 8,5 C 96 % 1020,9 hPa 0,0 l/m 3,1 km/h (1 Bft) S-SW 211 0 min 0,000 mm 0,0 UV-I 0 W/m 7,9 C 8,5 C 4,8 km/h (1 Bft) 100,00 %
19.04.2016 00:36 8,5 C 96 % 1020,9 hPa 0,0 l/m 3,0 km/h (1 Bft) S-SW 211 0 min 0,000 mm 0,0 UV-I 0 W/m 7,9 C 8,5 C 4,8 km/h (1 Bft) 100,00 %
19.04.2016 00:37 8,5 C 96 % 1021,0 hPa 0,0 l/m 2,2 km/h (1 Bft) S-SW 211 0 min 0,000 mm 0,0 UV-I 0 W/m 7,9 C 8,5 C 3,2 km/h (1 Bft) 100,00 %
19.04.2016 00:38 8,5 C 96 % 1021,0 hPa 0,0 l/m 2,1 km/h (1 Bft) S-SW 211 0 min 0,000 mm 0,0 UV-I 0 W/m 7,9 C 8,5 C 3,2 km/h (1 Bft) 95,65 %
19.04.2016 00:39 8,5 C 96 % 1021,0 hPa 0,2 l/m 2,2 km/h (1 Bft) S-SW 208 0 min 0,000 mm 0,0 UV-I 0 W/m 7,9 C 8,5 C 3,2 km/h (1 Bft) 100,00 %
19.04.2016 00:40 8,5 C 96 % 1021,0 hPa 0,0 l/m 3,8 km/h (1 Bft) SW 215 0 min 0,000 mm 0,0 UV-I 0 W/m 7,9 C 8,5 C 4,8 km/h (1 Bft) 100,00 %
19.04.2016 00:41 8,5 C 96 % 1021,0 hPa 0,0 l/m 3,2 km/h (1 Bft) SW 215 0 min 0,000 mm 0,0 UV-I 0 W/m 7,9 C 8,5 C 4,8 km/h (1 Bft) 100,00 %
19.04.2016 00:42 8,5 C 96 % 1021,0 hPa 0,0 l/m 3,0 km/h (1 Bft) SW 215 0 min 0,000 mm 0,0 UV-I 0 W/m 7,9 C 8,5 C 4,8 km/h (1 Bft) 100,00 %
19.04.2016 00:43 8,5 C 96 % 1021,0 hPa 0,0 l/m 3,1 km/h (1 Bft) SW 215 0 min 0,000 mm 0,0 UV-I 0 W/m 7,9 C 8,5 C 3,2 km/h (1 Bft) 100,00 %
19.04.2016 00:44 8,5 C 96 % 1021,0 hPa 0,0 l/m 1,8 km/h (1 Bft) SW 215 0 min 0,000 mm 0,0 UV-I 0 W/m 7,9 C 8,5 C 3,2 km/h (1 Bft) 85,19 %
19.04.2016 00:45 8,5 C 96 % 1021,1 hPa 0,0 l/m 2,4 km/h (1 Bft) SW 215 0 min 0,000 mm 0,0 UV-I 0 W/m 7,9 C 8,5 C 4,8 km/h (1 Bft) 100,00 %
19.04.2016 00:46 8,4 C 96 % 1021,0 hPa 0,0 l/m 2,2 km/h (1 Bft) SW 215 0 min 0,000 mm 0,0 UV-I 0 W/m 7,8 C 8,4 C 3,2 km/h (1 Bft) 95,83 %
19.04.2016 00:47 8,4 C 96 % 1021,1 hPa 0,0 l/m 2,7 km/h (1 Bft) SW 215 0 min 0,000 mm 0,0 UV-I 0 W/m 7,8 C 8,4 C 3,2 km/h (1 Bft) 100,00 %
19.04.2016 00:48 8,4 C 96 % 1021,1 hPa 0,0 l/m 2,3 km/h (1 Bft) SW 220 0 min 0,000 mm 0,0 UV-I 0 W/m 7,8 C 8,4 C 3,2 km/h (1 Bft) 91,67 %
19.04.2016 00:49 8,4 C 96 % 1021,1 hPa 0,0 l/m 2,4 km/h (1 Bft) SW 220 0 min 0,000 mm 0,0 UV-I 0 W/m 7,8 C 8,4 C 4,8 km/h (1 Bft) 96,15 %
19.04.2016 00:50 8,4 C 96 % 1021,1 hPa 0,0 l/m 1,8 km/h (1 Bft) SW 220 0 min 0,000 mm 0,0 UV-I 0 W/m 7,8 C 8,4 C 3,2 km/h (1 Bft) 100,00 %
19.04.2016 00:51 8,4 C 96 % 1021,1 hPa 0,0 l/m 1,5 km/h (1 Bft) SW 220 0 min 0,000 mm 0,0 UV-I 0 W/m 7,8 C 8,4 C 3,2 km/h (1 Bft) 95,65 %
19.04.2016 00:52 8,4 C 96 % 1021,1 hPa 0,0 l/m 1,5 km/h (1 Bft) SW 220 0 min 0,000 mm 0,0 UV-I 0 W/m 7,8 C 8,4 C 3,2 km/h (1 Bft) 100,00 %
19.04.2016 00:53 8,4 C 96 % 1021,1 hPa 0,0 l/m 0,7 km/h (0 Bft) SW 220 0 min 0,000 mm 0,0 UV-I 0 W/m 7,8 C 8,4 C 1,6 km/h (1 Bft) 95,65 %
19.04.2016 00:54 8,4 C 96 % 1021,1 hPa 0,0 l/m 0,9 km/h (0 Bft) SW 220 0 min 0,000 mm 0,0 UV-I 0 W/m 7,8 C 8,4 C 1,6 km/h (1 Bft) 95,83 %
19.04.2016 00:55 8,4 C 96 % 1021,1 hPa 0,0 l/m 0,5 km/h (0 Bft) SW 220 0 min 0,000 mm 0,0 UV-I 0 W/m 7,8 C 8,4 C 1,6 km/h (1 Bft) 91,30 %
19.04.2016 00:56 8,4 C 96 % 1021,1 hPa 0,0 l/m 2,4 km/h (1 Bft) SW 220 0 min 0,000 mm 0,0 UV-I 0 W/m 7,8 C 8,4 C 4,8 km/h (1 Bft) 100,00 %
19.04.2016 00:57 8,4 C 96 % 1021,1 hPa 0,0 l/m 2,2 km/h (1 Bft) SW 220 0 min 0,000 mm 0,0 UV-I 0 W/m 7,8 C 8,4 C 3,2 km/h (1 Bft) 95,65 %
19.04.2016 00:58 8,4 C 96 % 1021,2 hPa 0,0 l/m 2,5 km/h (1 Bft) SW 220 0 min 0,000 mm 0,0 UV-I 0 W/m 7,8 C 8,4 C 3,2 km/h (1 Bft) 96,30 %
19.04.2016 00:59 8,4 C 96 % 1021,2 hPa 0,0 l/m 2,9 km/h (1 Bft) SW 220 0 min 0,000 mm 0,0 UV-I 0 W/m 7,8 C 8,4 C 4,8 km/h (1 Bft) 100,00 %
19.04.2016 01:00 8,4 C 96 % 1021,2 hPa 0,0 l/m 2,8 km/h (1 Bft) SW 220 0 min 0,000 mm 0,0 UV-I 0 W/m 7,8 C 8,4 C 3,2 km/h (1 Bft) 96,30 %
19.04.2016 01:01 8,4 C 96 % 1021,2 hPa 0,0 l/m 1,9 km/h (1 Bft) SW 220 0 min 0,000 mm 0,0 UV-I 0 W/m 7,8 C 8,4 C 3,2 km/h (1 Bft) 100,00 %
19.04.2016 01:02 8,4 C 96 % 1021,2 hPa 0,0 l/m 1,8 km/h (1 Bft) SW 220 0 min 0,000 mm 0,0 UV-I 0 W/m 7,8 C 8,4 C 3,2 km/h (1 Bft) 96,55 %
19.04.2016 01:03 8,4 C 96 % 1021,2 hPa 0,0 l/m 1,9 km/h (1 Bft) SW 220 0 min 0,000 mm 0,0 UV-I 0 W/m 7,8 C 8,4 C 3,2 km/h (1 Bft) 100,00 %
19.04.2016 01:04 8,4 C 96 % 1021,2 hPa 0,0 l/m 2,2 km/h (1 Bft) SW 220 0 min 0,000 mm 0,0 UV-I 0 W/m 7,8 C 8,4 C 3,2 km/h (1 Bft) 95,65 %
19.04.2016 01:05 8,4 C 96 % 1021,2 hPa 0,0 l/m 2,5 km/h (1 Bft) SW 220 0 min 0,000 mm 0,0 UV-I 0 W/m 7,8 C 8,4 C 4,8 km/h (1 Bft) 91,67 %
19.04.2016 01:06 8,4 C 96 % 1021,1 hPa 0,0 l/m 0,6 km/h (0 Bft) SW 220 0 min 0,000 mm 0,0 UV-I 0 W/m 7,8 C 8,4 C 1,6 km/h (1 Bft) 100,00 %
19.04.2016 01:07 8,4 C 96 % 1021,2 hPa 0,0 l/m 1,3 km/h (1 Bft) SW 220 0 min 0,000 mm 0,0 UV-I 0 W/m 7,8 C 8,4 C 3,2 km/h (1 Bft) 95,83 %
19.04.2016 01:08 8,4 C 96 % 1021,1 hPa 0,0 l/m 1,5 km/h (1 Bft) SW 220 0 min 0,000 mm 0,0 UV-I 0 W/m 7,8 C 8,4 C 3,2 km/h (1 Bft) 100,00 %
19.04.2016 01:09 8,4 C 96 % 1021,1 hPa 0,0 l/m 2,2 km/h (1 Bft) SW 220 0 min 0,000 mm 0,0 UV-I 0 W/m 7,8 C 8,4 C 3,2 km/h (1 Bft) 95,83 %
19.04.2016 01:10 8,4 C 96 % 1021,1 hPa 0,0 l/m 2,5 km/h (1 Bft) SW 217 0 min 0,000 mm 0,0 UV-I 0 W/m 7,8 C 8,4 C 4,8 km/h (1 Bft) 92,86 %
19.04.2016 01:11 8,4 C 96 % 1021,1 hPa 0,0 l/m 2,7 km/h (1 Bft) SW 217 0 min 0,000 mm 0,0 UV-I 0 W/m 7,8 C 8,4 C 3,2 km/h (1 Bft) 96,67 %
19.04.2016 01:12 8,4 C 96 % 1021,2 hPa 0,0 l/m 2,3 km/h (1 Bft) SW 217 0 min 0,000 mm 0,0 UV-I 0 W/m 7,8 C 8,4 C 3,2 km/h (1 Bft) 100,00 %
19.04.2016 01:13 8,4 C 96 % 1021,1 hPa 0,0 l/m 2,0 km/h (1 Bft) SW 217 0 min 0,000 mm 0,0 UV-I 0 W/m 7,8 C 8,4 C 3,2 km/h (1 Bft) 91,67 %
19.04.2016 01:14 8,4 C 96 % 1021,1 hPa 0,0 l/m 2,2 km/h (1 Bft) SW 216 0 min 0,000 mm 0,0 UV-I 0 W/m 7,8 C 8,4 C 3,2 km/h (1 Bft) 96,55 %
19.04.2016 01:15 8,4 C 96 % 1021,1 hPa 0,0 l/m 1,6 km/h (1 Bft) SW 216 0 min 0,000 mm 0,0 UV-I 0 W/m 7,8 C 8,4 C 3,2 km/h (1 Bft) 96,00 %
19.04.2016 01:16 8,4 C 96 % 1021,0 hPa 0,0 l/m 1,5 km/h (1 Bft) SW 214 0 min 0,000 mm 0,0 UV-I 0 W/m 7,8 C 8,4 C 1,6 km/h (1 Bft) 95,65 %
19.04.2016 01:17 8,4 C 96 % 1021,0 hPa 0,0 l/m 1,4 km/h (1 Bft) SW 214 0 min 0,000 mm 0,0 UV-I 0 W/m 7,8 C 8,4 C 3,2 km/h (1 Bft) 96,30 %
19.04.2016 01:18 8,4 C 96 % 1021,0 hPa 0,0 l/m 0,9 km/h (0 Bft) S-SW 213 0 min 0,000 mm 0,0 UV-I 0 W/m 7,8 C 8,4 C 1,6 km/h (1 Bft) 100,00 %
19.04.2016 01:19 8,3 C 96 % 1021,0 hPa 0,0 l/m 1,4 km/h (1 Bft) S-SW 213 0 min 0,000 mm 0,0 UV-I 0 W/m 7,7 C 8,3 C 3,2 km/h (1 Bft) 100,00 %
19.04.2016 01:20 8,3 C 96 % 1021,0 hPa 0,0 l/m 1,7 km/h (1 Bft) S 186 0 min 0,000 mm 0,0 UV-I 0 W/m 7,7 C 8,3 C 3,2 km/h (1 Bft) 100,00 %
19.04.2016 01:21 8,3 C 96 % 1021,0 hPa 0,0 l/m 3,4 km/h (1 Bft) S 176 0 min 0,000 mm 0,0 UV-I 0 W/m 7,7 C 8,3 C 4,8 km/h (1 Bft) 100,00 %
19.04.2016 01:22 8,3 C 96 % 1021,1 hPa 0,0 l/m 3,2 km/h (1 Bft) S 172 0 min 0,000 mm 0,0 UV-I 0 W/m 7,7 C 8,3 C 4,8 km/h (1 Bft) 100,00 %
19.04.2016 01:23 8,3 C 96 % 1021,0 hPa 0,0 l/m 2,7 km/h (1 Bft) S 170 0 min 0,000 mm 0,0 UV-I 0 W/m 7,7 C 8,3 C 4,8 km/h (1 Bft) 95,65 %
19.04.2016 01:24 8,3 C 96 % 1021,0 hPa 0,0 l/m 3,0 km/h (1 Bft) S 170 0 min 0,000 mm 0,0 UV-I 0 W/m 7,7 C 8,3 C 6,4 km/h (2 Bft) 100,00 %
19.04.2016 01:25 8,3 C 96 % 1021,0 hPa 0,0 l/m 3,8 km/h (1 Bft) S 179 0 min 0,000 mm 0,0 UV-I 0 W/m 7,7 C 8,3 C 8,0 km/h (2 Bft) 95,65 %
19.04.2016 01:26 8,3 C 96 % 1021,0 hPa 0,0 l/m 4,4 km/h (1 Bft) S 175 0 min 0,000 mm 0,0 UV-I 0 W/m 7,7 C 8,3 C 6,4 km/h (2 Bft) 100,00 %
19.04.2016 01:27 8,3 C 96 % 1021,0 hPa 0,0 l/m 4,9 km/h (1 Bft) S-SW 196 0 min 0,000 mm 0,0 UV-I 0 W/m 7,7 C 8,3 C 6,4 km/h (2 Bft) 100,00 %
19.04.2016 01:28 8,3 C 96 % 1021,0 hPa 0,0 l/m 5,7 km/h (1 Bft) S 182 0 min 0,000 mm 0,0 UV-I 0 W/m 7,7 C 8,3 C 9,7 km/h (2 Bft) 93,33 %
19.04.2016 01:29 8,3 C 96 % 1021,0 hPa 0,0 l/m 6,8 km/h (2 Bft) S-SO 165 0 min 0,000 mm 0,0 UV-I 0 W/m 7,7 C 8,0 C 8,0 km/h (2 Bft) 100,00 %
19.04.2016 01:30 8,3 C 96 % 1021,0 hPa 0,0 l/m 5,6 km/h (1 Bft) S 177 0 min 0,000 mm 0,0 UV-I 0 W/m 7,7 C 8,3 C 8,0 km/h (2 Bft) 100,00 %
19.04.2016 01:31 8,3 C 96 % 1021,0 hPa 0,0 l/m 4,8 km/h (1 Bft) S 180 0 min 0,000 mm 0,0 UV-I 0 W/m 7,7 C 8,3 C 8,0 km/h (2 Bft) 100,00 %
19.04.2016 01:32 8,3 C 96 % 1021,0 hPa 0,0 l/m 5,6 km/h (1 Bft) S-SO 163 0 min 0,000 mm 0,0 UV-I 0 W/m 7,7 C 8,3 C 8,0 km/h (2 Bft) 100,00 %
19.04.2016 01:33 8,3 C 96 % 1021,0 hPa 0,0 l/m 4,8 km/h (1 Bft) S 184 0 min 0,000 mm 0,0 UV-I 0 W/m 7,7 C 8,3 C 6,4 km/h (2 Bft) 100,00 %
19.04.2016 01:34 8,4 C 96 % 1021,0 hPa 0,0 l/m 4,3 km/h (1 Bft) S 173 0 min 0,000 mm 0,0 UV-I 0 W/m 7,8 C 8,4 C 6,4 km/h (2 Bft) 100,00 %
19.04.2016 01:35 8,4 C 96 % 1021,0 hPa 0,0 l/m 5,5 km/h (1 Bft) S 175 0 min 0,000 mm 0,0 UV-I 0 W/m 7,8 C 8,4 C 8,0 km/h (2 Bft) 100,00 %
19.04.2016 01:36 8,4 C 96 % 1021,0 hPa 0,0 l/m 5,4 km/h (1 Bft) S 176 0 min 0,000 mm 0,0 UV-I 0 W/m 7,8 C 8,4 C 8,0 km/h (2 Bft) 91,67 %
19.04.2016 01:37 8,4 C 96 % 1021,0 hPa 0,0 l/m 4,6 km/h (1 Bft) S 180 0 min 0,000 mm 0,0 UV-I 0 W/m 7,8 C 8,4 C 8,0 km/h (2 Bft) 100,00 %
19.04.2016 01:38 8,4 C 96 % 1020,9 hPa 0,0 l/m 5,8 km/h (2 Bft) S 175 0 min 0,000 mm 0,0 UV-I 0 W/m 7,8 C 8,4 C 9,7 km/h (2 Bft) 100,00 %
19.04.2016 01:39 8,4 C 96 % 1020,9 hPa 0,0 l/m 3,8 km/h (1 Bft) S 172 0 min 0,000 mm 0,0 UV-I 0 W/m 7,8 C 8,4 C 8,0 km/h (2 Bft) 100,00 %
19.04.2016 01:40 8,4 C 96 % 1020,9 hPa 0,0 l/m 4,8 km/h (1 Bft) S 177 0 min 0,000 mm 0,0 UV-I 0 W/m 7,8 C 8,4 C 8,0 km/h (2 Bft) 100,00 %
19.04.2016 01:41 8,4 C 96 % 1021,0 hPa 0,0 l/m 5,6 km/h (1 Bft) S 190 0 min 0,000 mm 0,0 UV-I 0 W/m 7,8 C 8,4 C 9,7 km/h (2 Bft) 100,00 %
19.04.2016 01:42 8,4 C 96 % 1021,0 hPa 0,0 l/m 6,3 km/h (2 Bft) S 190 0 min 0,000 mm 0,0 UV-I 0 W/m 7,8 C 8,4 C 9,7 km/h (2 Bft) 100,00 %
19.04.2016 01:43 8,4 C 96 % 1021,0 hPa 0,0 l/m 5,5 km/h (1 Bft) S-SW 196 0 min 0,000 mm 0,0 UV-I 0 W/m 7,8 C 8,4 C 8,0 km/h (2 Bft) 100,00 %
19.04.2016 01:44 8,4 C 96 % 1021,0 hPa 0,0 l/m 5,1 km/h (1 Bft) S 185 0 min 0,000 mm 0,0 UV-I 0 W/m 7,8 C 8,4 C 8,0 km/h (2 Bft) 96,55 %
19.04.2016 01:45 8,4 C 96 % 1021,0 hPa 0,0 l/m 5,7 km/h (1 Bft) S 169 0 min 0,000 mm 0,0 UV-I 0 W/m 7,8 C 8,4 C 8,0 km/h (2 Bft) 100,00 %
19.04.2016 01:46 8,4 C 96 % 1021,0 hPa 0,0 l/m 5,2 km/h (1 Bft) S 188 0 min 0,000 mm 0,0 UV-I 0 W/m 7,8 C 8,4 C 8,0 km/h (2 Bft) 100,00 %
19.04.2016 01:47 8,4 C 96 % 1021,0 hPa 0,0 l/m 5,5 km/h (1 Bft) S 180 0 min 0,000 mm 0,0 UV-I 0 W/m 7,8 C 8,4 C 8,0 km/h (2 Bft) 96,30 %
19.04.2016 01:48 8,4 C 96 % 1021,0 hPa 0,0 l/m 3,8 km/h (1 Bft) S 180 0 min 0,000 mm 0,0 UV-I 0 W/m 7,8 C 8,4 C 4,8 km/h (1 Bft) 100,00 %
19.04.2016 01:49 8,4 C 96 % 1021,0 hPa 0,0 l/m 4,5 km/h (1 Bft) S 188 0 min 0,000 mm 0,0 UV-I 0 W/m 7,8 C 8,4 C 8,0 km/h (2 Bft) 100,00 %
19.04.2016 01:50 8,4 C 96 % 1021,1 hPa 0,0 l/m 3,4 km/h (1 Bft) S 186 0 min 0,000 mm 0,0 UV-I 0 W/m 7,8 C 8,4 C 6,4 km/h (2 Bft) 100,00 %
19.04.2016 01:51 8,4 C 96 % 1021,1 hPa 0,0 l/m 3,8 km/h (1 Bft) S 174 0 min 0,000 mm 0,0 UV-I 0 W/m 7,8 C 8,4 C 8,0 km/h (2 Bft) 100,00 %
19.04.2016 01:52 8,4 C 96 % 1021,2 hPa 0,0 l/m 3,2 km/h (1 Bft) S 174 0 min 0,000 mm 0,0 UV-I 0 W/m 7,8 C 8,4 C 4,8 km/h (1 Bft) 95,65 %
19.04.2016 01:53 8,4 C 96 % 1021,2 hPa 0,0 l/m 1,7 km/h (1 Bft) S 174 0 min 0,000 mm 0,0 UV-I 0 W/m 7,8 C 8,4 C 3,2 km/h (1 Bft) 100,00 %
19.04.2016 01:54 8,4 C 96 % 1021,2 hPa 0,0 l/m 3,8 km/h (1 Bft) S-SO 164 0 min 0,000 mm 0,0 UV-I 0 W/m 7,8 C 8,4 C 6,4 km/h (2 Bft) 95,65 %
19.04.2016 01:55 8,4 C 96 % 1021,2 hPa 0,0 l/m 3,2 km/h (1 Bft) S-SW 197 0 min 0,000 mm 0,0 UV-I 0 W/m 7,8 C 8,4 C 4,8 km/h (1 Bft) 91,67 %
19.04.2016 01:56 8,4 C 96 % 1021,2 hPa 0,0 l/m 6,4 km/h (2 Bft) S 187 0 min 0,000 mm 0,0 UV-I 0 W/m 7,8 C 8,4 C 8,0 km/h (2 Bft) 100,00 %
19.04.2016 01:57 8,4 C 96 % 1021,2 hPa 0,0 l/m 5,7 km/h (1 Bft) S-SW 200 0 min 0,000 mm 0,0 UV-I 0 W/m 7,8 C 8,4 C 8,0 km/h (2 Bft) 100,00 %
19.04.2016 01:58 8,4 C 96 % 1021,2 hPa 0,0 l/m 5,1 km/h (1 Bft) S-SW 198 0 min 0,000 mm 0,0 UV-I 0 W/m 7,8 C 8,4 C 8,0 km/h (2 Bft) 100,00 %
19.04.2016 01:59 8,4 C 96 % 1021,2 hPa 0,0 l/m 6,5 km/h (2 Bft) S-SW 194 0 min 0,000 mm 0,0 UV-I 0 W/m 7,8 C 8,3 C 8,0 km/h (2 Bft) 100,00 %
19.04.2016 02:00 8,4 C 96 % 1021,2 hPa 0,0 l/m 5,3 km/h (1 Bft) S 186 0 min 0,000 mm 0,0 UV-I 0 W/m 7,8 C 8,4 C 8,0 km/h (2 Bft) 100,00 %
19.04.2016 02:01 8,4 C 96 % 1021,2 hPa 0,0 l/m 5,0 km/h (1 Bft) S-SW 194 0 min 0,000 mm 0,0 UV-I 0 W/m 7,8 C 8,4 C 6,4 km/h (2 Bft) 100,00 %
19.04.2016 02:02 8,4 C 96 % 1021,2 hPa 0,0 l/m 5,4 km/h (1 Bft) S-SW 194 0 min 0,000 mm 0,0 UV-I 0 W/m 7,8 C 8,4 C 6,4 km/h (2 Bft) 100,00 %
19.04.2016 02:03 8,4 C 96 % 1021,2 hPa 0,0 l/m 4,5 km/h (1 Bft) S-SW 202 0 min 0,000 mm 0,0 UV-I 0 W/m 7,8 C 8,4 C 6,4 km/h (2 Bft) 100,00 %
19.04.2016 02:04 8,4 C 96 % 1021,3 hPa 0,0 l/m 5,1 km/h (1 Bft) S-SW 195 0 min 0,000 mm 0,0 UV-I 0 W/m 7,8 C 8,4 C 6,4 km/h (2 Bft) 96,30 %
19.04.2016 02:05 8,4 C 96 % 1021,2 hPa 0,0 l/m 4,6 km/h (1 Bft) S-SW 204 0 min 0,000 mm 0,0 UV-I 0 W/m 7,8 C 8,4 C 4,8 km/h (1 Bft) 100,00 %
19.04.2016 02:06 8,4 C 96 % 1021,3 hPa 0,0 l/m 4,7 km/h (1 Bft) S-SW 213 0 min 0,000 mm 0,0 UV-I 0 W/m 7,8 C 8,4 C 8,0 km/h (2 Bft) 100,00 %
19.04.2016 02:07 8,4 C 96 % 1021,2 hPa 0,0 l/m 5,1 km/h (1 Bft) S-SW 199 0 min 0,000 mm 0,0 UV-I 0 W/m 7,8 C 8,4 C 8,0 km/h (2 Bft) 100,00 %
19.04.2016 02:08 8,4 C 96 % 1021,2 hPa 0,0 l/m 3,8 km/h (1 Bft) S-SW 198 0 min 0,000 mm 0,0 UV-I 0 W/m 7,8 C 8,4 C 6,4 km/h (2 Bft) 100,00 %
19.04.2016 02:09 8,4 C 96 % 1021,3 hPa 0,0 l/m 5,6 km/h (1 Bft) S 182 0 min 0,000 mm 0,0 UV-I 0 W/m 7,8 C 8,4 C 8,0 km/h (2 Bft) 96,15 %
19.04.2016 02:10 8,4 C 96 % 1021,3 hPa 0,0 l/m 4,2 km/h (1 Bft) S 183 0 min 0,000 mm 0,0 UV-I 0 W/m 7,8 C 8,4 C 4,8 km/h (1 Bft) 100,00 %
19.04.2016 02:11 8,4 C 96 % 1021,3 hPa 0,0 l/m 3,3 km/h (1 Bft) S 183 0 min 0,000 mm 0,0 UV-I 0 W/m 7,8 C 8,4 C 4,8 km/h (1 Bft) 100,00 %
19.04.2016 02:12 8,4 C 96 % 1021,3 hPa 0,0 l/m 4,7 km/h (1 Bft) S-SW 199 0 min 0,000 mm 0,0 UV-I 0 W/m 7,8 C 8,4 C 6,4 km/h (2 Bft) 100,00 %
19.04.2016 02:13 8,4 C 96 % 1021,3 hPa 0,0 l/m 5,8 km/h (2 Bft) S 178 0 min 0,000 mm 0,0 UV-I 0 W/m 7,8 C 8,4 C 6,4 km/h (2 Bft) 100,00 %
19.04.2016 02:14 8,4 C 96 % 1021,3 hPa 0,0 l/m 3,8 km/h (1 Bft) S 176 0 min 0,000 mm 0,0 UV-I 0 W/m 7,8 C 8,4 C 4,8 km/h (1 Bft) 100,00 %
19.04.2016 02:15 8,4 C 96 % 1021,3 hPa 0,0 l/m 4,5 km/h (1 Bft) S 177 0 min 0,000 mm 0,0 UV-I 0 W/m 7,8 C 8,4 C 6,4 km/h (2 Bft) 100,00 %
19.04.2016 02:16 8,4 C 96 % 1021,3 hPa 0,0 l/m 3,8 km/h (1 Bft) S 181 0 min 0,000 mm 0,0 UV-I 0 W/m 7,8 C 8,4 C 4,8 km/h (1 Bft) 100,00 %
19.04.2016 02:17 8,4 C 96 % 1021,2 hPa 0,0 l/m 4,8 km/h (1 Bft) S 180 0 min 0,000 mm 0,0 UV-I 0 W/m 7,8 C 8,4 C 8,0 km/h (2 Bft) 100,00 %
19.04.2016 02:18 8,4 C 96 % 1021,2 hPa 0,0 l/m 4,8 km/h (1 Bft) SW 222 0 min 0,000 mm 0,0 UV-I 0 W/m 7,8 C 8,4 C 8,0 km/h (2 Bft) 100,00 %
19.04.2016 02:19 8,4 C 96 % 1021,2 hPa 0,0 l/m 4,1 km/h (1 Bft) S 190 0 min 0,000 mm 0,0 UV-I 0 W/m 7,8 C 8,4 C 4,8 km/h (1 Bft) 100,00 %
19.04.2016 02:20 8,4 C 96 % 1021,2 hPa 0,0 l/m 3,8 km/h (1 Bft) S 183 0 min 0,000 mm 0,0 UV-I 0 W/m 7,8 C 8,4 C 6,4 km/h (2 Bft) 100,00 %
19.04.2016 02:21 8,4 C 96 % 1021,2 hPa 0,0 l/m 3,8 km/h (1 Bft) S 183 0 min 0,000 mm 0,0 UV-I 0 W/m 7,8 C 8,4 C 4,8 km/h (1 Bft) 100,00 %
19.04.2016 02:22 8,3 C 96 % 1021,2 hPa 0,0 l/m 3,6 km/h (1 Bft) S-SW 193 0 min 0,000 mm 0,0 UV-I 0 W/m 7,7 C 8,3 C 6,4 km/h (2 Bft) 100,00 %
19.04.2016 02:23 8,3 C 96 % 1021,2 hPa 0,0 l/m 3,9 km/h (1 Bft) S-SW 192 0 min 0,000 mm 0,0 UV-I 0 W/m 7,7 C 8,3 C 6,4 km/h (2 Bft) 100,00 %
19.04.2016 02:24 8,3 C 96 % 1021,2 hPa 0,0 l/m 3,5 km/h (1 Bft) S-SW 194 0 min 0,000 mm 0,0 UV-I 0 W/m 7,7 C 8,3 C 4,8 km/h (1 Bft) 100,00 %
19.04.2016 02:25 8,3 C 96 % 1021,2 hPa 0,0 l/m 5,1 km/h (1 Bft) S-SO 165 0 min 0,000 mm 0,0 UV-I 0 W/m 7,7 C 8,3 C 8,0 km/h (2 Bft) 100,00 %
19.04.2016 02:26 8,3 C 96 % 1021,2 hPa 0,0 l/m 5,2 km/h (1 Bft) S 182 0 min 0,000 mm 0,0 UV-I 0 W/m 7,7 C 8,3 C 6,4 km/h (2 Bft) 100,00 %
19.04.2016 02:27 8,3 C 96 % 1021,2 hPa 0,0 l/m 4,4 km/h (1 Bft) S-SW 204 0 min 0,000 mm 0,0 UV-I 0 W/m 7,7 C 8,3 C 6,4 km/h (2 Bft) 100,00 %
19.04.2016 02:28 8,3 C 96 % 1021,2 hPa 0,0 l/m 3,2 km/h (1 Bft) S-SW 204 0 min 0,000 mm 0,0 UV-I 0 W/m 7,7 C 8,3 C 4,8 km/h (1 Bft) 100,00 %
19.04.2016 02:29 8,3 C 96 % 1021,2 hPa 0,0 l/m 2,0 km/h (1 Bft) S 189 0 min 0,000 mm 0,0 UV-I 0 W/m 7,7 C 8,3 C 3,2 km/h (1 Bft) 100,00 %
19.04.2016 02:30 8,3 C 96 % 1021,2 hPa 0,0 l/m 5,0 km/h (1 Bft) S 189 0 min 0,000 mm 0,0 UV-I 0 W/m 7,7 C 8,3 C 9,7 km/h (2 Bft) 100,00 %
19.04.2016 02:31 8,3 C 96 % 1021,2 hPa 0,0 l/m 5,8 km/h (2 Bft) S 182 0 min 0,000 mm 0,0 UV-I 0 W/m 7,7 C 8,3 C 8,0 km/h (2 Bft) 100,00 %
19.04.2016 02:32 8,3 C 96 % 1021,2 hPa 0,0 l/m 5,3 km/h (1 Bft) S-SW 192 0 min 0,000 mm 0,0 UV-I 0 W/m 7,7 C 8,3 C 6,4 km/h (2 Bft) 100,00 %
19.04.2016 02:33 8,3 C 96 % 1021,2 hPa 0,0 l/m 6,8 km/h (2 Bft) S-SW 201 0 min 0,000 mm 0,0 UV-I 0 W/m 7,7 C 8,0 C 8,0 km/h (2 Bft) 100,00 %
19.04.2016 02:34 8,3 C 96 % 1021,2 hPa 0,0 l/m 4,4 km/h (1 Bft) S-SO 164 0 min 0,000 mm 0,0 UV-I 0 W/m 7,7 C 8,3 C 8,0 km/h (2 Bft) 100,00 %
19.04.2016 02:35 8,3 C 96 % 1021,2 hPa 0,0 l/m 3,5 km/h (1 Bft) S-SW 203 0 min 0,000 mm 0,0 UV-I 0 W/m 7,7 C 8,3 C 8,0 km/h (2 Bft) 100,00 %
19.04.2016 02:36 8,2 C 96 % 1021,2 hPa 0,0 l/m 7,3 km/h (2 Bft) S 177 0 min 0,000 mm 0,0 UV-I 0 W/m 7,6 C 7,5 C 11,3 km/h (2 Bft) 100,00 %
19.04.2016 02:37 8,2 C 96 % 1021,2 hPa 0,0 l/m 4,0 km/h (1 Bft) S 184 0 min 0,000 mm 0,0 UV-I 0 W/m 7,6 C 8,2 C 6,4 km/h (2 Bft) 100,00 %
19.04.2016 02:38 8,2 C 96 % 1021,2 hPa 0,0 l/m 5,2 km/h (1 Bft) S-SW 193 0 min 0,000 mm 0,0 UV-I 0 W/m 7,6 C 8,2 C 8,0 km/h (2 Bft) 100,00 %
19.04.2016 02:39 8,2 C 96 % 1021,2 hPa 0,0 l/m 7,3 km/h (2 Bft) S 184 0 min 0,000 mm 0,0 UV-I 0 W/m 7,6 C 7,5 C 9,7 km/h (2 Bft) 100,00 %
19.04.2016 02:40 8,2 C 96 % 1021,2 hPa 0,0 l/m 4,2 km/h (1 Bft) S-SW 193 0 min 0,000 mm 0,0 UV-I 0 W/m 7,6 C 8,2 C 8,0 km/h (2 Bft) 100,00 %
19.04.2016 02:41 8,2 C 96 % 1021,2 hPa 0,0 l/m 6,2 km/h (2 Bft) S 190 0 min 0,000 mm 0,0 UV-I 0 W/m 7,6 C 8,2 C 11,3 km/h (2 Bft) 96,15 %
19.04.2016 02:42 8,2 C 96 % 1021,2 hPa 0,0 l/m 5,5 km/h (1 Bft) S 179 0 min 0,000 mm 0,0 UV-I 0 W/m 7,6 C 8,2 C 8,0 km/h (2 Bft) 100,00 %
19.04.2016 02:43 8,2 C 96 % 1021,2 hPa 0,0 l/m 6,6 km/h (2 Bft) S-SW 198 0 min 0,000 mm 0,0 UV-I 0 W/m 7,6 C 8,1 C 11,3 km/h (2 Bft) 100,00 %
19.04.2016 02:44 8,2 C 96 % 1021,1 hPa 0,0 l/m 5,2 km/h (1 Bft) S 186 0 min 0,000 mm 0,0 UV-I 0 W/m 7,6 C 8,2 C 6,4 km/h (2 Bft) 100,00 %
19.04.2016 02:45 8,2 C 96 % 1021,1 hPa 0,0 l/m 6,0 km/h (2 Bft) S 180 0 min 0,000 mm 0,0 UV-I 0 W/m 7,6 C 8,2 C 9,7 km/h (2 Bft) 100,00 %
19.04.2016 02:46 8,2 C 96 % 1021,1 hPa 0,0 l/m 5,7 km/h (1 Bft) S 173 0 min 0,000 mm 0,0 UV-I 0 W/m 7,6 C 8,2 C 8,0 km/h (2 Bft) 96,30 %
19.04.2016 02:47 8,2 C 96 % 1021,1 hPa 0,0 l/m 6,2 km/h (2 Bft) S 185 0 min 0,000 mm 0,0 UV-I 0 W/m 7,6 C 8,2 C 8,0 km/h (2 Bft) 96,15 %
19.04.2016 02:48 8,2 C 96 % 1021,1 hPa 0,0 l/m 4,5 km/h (1 Bft) S-SO 157 0 min 0,000 mm 0,0 UV-I 0 W/m 7,6 C 8,2 C 9,7 km/h (2 Bft) 100,00 %
19.04.2016 02:49 8,2 C 96 % 1021,1 hPa 0,0 l/m 4,9 km/h (1 Bft) S 184 0 min 0,000 mm 0,0 UV-I 0 W/m 7,6 C 8,2 C 8,0 km/h (2 Bft) 100,00 %
19.04.2016 02:50 8,2 C 96 % 1021,1 hPa 0,0 l/m 2,8 km/h (1 Bft) S 179 0 min 0,000 mm 0,0 UV-I 0 W/m 7,6 C 8,2 C 4,8 km/h (1 Bft) 95,83 %
19.04.2016 02:51 8,2 C 96 % 1021,1 hPa 0,0 l/m 3,7 km/h (1 Bft) S 173 0 min 0,000 mm 0,0 UV-I 0 W/m 7,6 C 8,2 C 6,4 km/h (2 Bft) 95,65 %
19.04.2016 02:52 8,2 C 96 % 1021,1 hPa 0,0 l/m 4,8 km/h (1 Bft) S 177 0 min 0,000 mm 0,0 UV-I 0 W/m 7,6 C 8,2 C 8,0 km/h (2 Bft) 100,00 %
19.04.2016 02:53 8,2 C 96 % 1021,1 hPa 0,0 l/m 5,6 km/h (1 Bft) S-SO 167 0 min 0,000 mm 0,0 UV-I 0 W/m 7,6 C 8,2 C 6,4 km/h (2 Bft) 91,30 %
19.04.2016 02:54 8,1 C 96 % 1021,1 hPa 0,0 l/m 4,9 km/h (1 Bft) S-SO 167 0 min 0,000 mm 0,0 UV-I 0 W/m 7,5 C 8,1 C 6,4 km/h (2 Bft) 100,00 %
19.04.2016 02:55 8,1 C 96 % 1021,1 hPa 0,0 l/m 3,2 km/h (1 Bft) S 174 0 min 0,000 mm 0,0 UV-I 0 W/m 7,5 C 8,1 C 4,8 km/h (1 Bft) 98,62 %
19.04.2016 02:56 8,1 C 96 % 1021,1 hPa 0,0 l/m 2,3 km/h (1 Bft) S 174 0 min 0,000 mm 0,0 UV-I 0 W/m 7,5 C 8,1 C 3,2 km/h (1 Bft) 97,73 %
19.04.2016 02:57 8,1 C 96 % 1021,1 hPa 0,0 l/m 3,1 km/h (1 Bft) S 175 0 min 0,000 mm 0,0 UV-I 0 W/m 7,5 C 8,1 C 4,8 km/h (1 Bft) 92,31 %
19.04.2016 02:58 8,1 C 96 % 1021,1 hPa 0,0 l/m 3,9 km/h (1 Bft) W-SW 246 0 min 0,000 mm 0,0 UV-I 0 W/m 7,5 C 8,1 C 6,4 km/h (2 Bft) 95,83 %
19.04.2016 02:59 8,1 C 96 % 1021,1 hPa 0,0 l/m 3,2 km/h (1 Bft) W-SW 246 0 min 0,000 mm 0,0 UV-I 0 W/m 7,5 C 8,1 C 4,8 km/h (1 Bft) 100,00 %
19.04.2016 03:00 8,1 C 96 % 1021,2 hPa 0,0 l/m 4,6 km/h (1 Bft) W-SW 240 0 min 0,000 mm 0,0 UV-I 0 W/m 7,5 C 8,1 C 6,4 km/h (2 Bft) 93,33 %
19.04.2016 03:02 8,1 C 96 % 1021,2 hPa 0,0 l/m 3,9 km/h (1 Bft) S-SW 194 0 min 0,000 mm 0,0 UV-I 0 W/m 7,5 C 8,1 C 6,4 km/h (2 Bft) 98,11 %
19.04.2016 03:03 8,1 C 96 % 1021,2 hPa 0,0 l/m 5,9 km/h (2 Bft) S-SW 192 0 min 0,000 mm 0,0 UV-I 0 W/m 7,5 C 8,1 C 6,4 km/h (2 Bft) 100,00 %
19.04.2016 03:04 8,1 C 96 % 1021,2 hPa 0,0 l/m 5,5 km/h (1 Bft) S 184 0 min 0,000 mm 0,0 UV-I 0 W/m 7,5 C 8,1 C 8,0 km/h (2 Bft) 96,15 %
19.04.2016 03:05 8,1 C 96 % 1021,2 hPa 0,0 l/m 4,4 km/h (1 Bft) S-SW 192 0 min 0,000 mm 0,0 UV-I 0 W/m 7,5 C 8,1 C 6,4 km/h (2 Bft) 95,65 %
19.04.2016 03:06 8,0 C 96 % 1021,2 hPa 0,0 l/m 6,2 km/h (2 Bft) S 175 0 min 0,000 mm 0,0 UV-I 0 W/m 7,4 C 8,0 C 8,0 km/h (2 Bft) 95,83 %
19.04.2016 03:07 8,0 C 96 % 1021,2 hPa 0,0 l/m 5,1 km/h (1 Bft) S 174 0 min 0,000 mm 0,0 UV-I 0 W/m 7,4 C 8,0 C 8,0 km/h (2 Bft) 100,00 %
19.04.2016 03:08 8,0 C 96 % 1021,2 hPa 0,0 l/m 4,8 km/h (1 Bft) S-SW 203 0 min 0,000 mm 0,0 UV-I 0 W/m 7,4 C 8,0 C 6,4 km/h (2 Bft) 96,55 %
19.04.2016 03:09 8,0 C 96 % 1021,2 hPa 0,0 l/m 5,2 km/h (1 Bft) S-SW 199 0 min 0,000 mm 0,0 UV-I 0 W/m 7,4 C 8,0 C 6,4 km/h (2 Bft) 91,67 %
19.04.2016 03:10 8,0 C 96 % 1021,2 hPa 0,0 l/m 4,5 km/h (1 Bft) S-SW 201 0 min 0,000 mm 0,0 UV-I 0 W/m 7,4 C 8,0 C 6,4 km/h (2 Bft) 100,00 %
19.04.2016 03:11 8,0 C 96 % 1021,2 hPa 0,0 l/m 4,4 km/h (1 Bft) S-SW 203 0 min 0,000 mm 0,0 UV-I 0 W/m 7,4 C 8,0 C 4,8 km/h (1 Bft) 96,30 %
19.04.2016 03:12 8,0 C 96 % 1021,2 hPa 0,0 l/m 6,4 km/h (2 Bft) SW 215 0 min 0,000 mm 0,0 UV-I 0 W/m 7,4 C 8,0 C 9,7 km/h (2 Bft) 100,00 %
19.04.2016 03:13 8,0 C 96 % 1021,2 hPa 0,0 l/m 5,0 km/h (1 Bft) S 190 0 min 0,000 mm 0,0 UV-I 0 W/m 7,4 C 8,0 C 8,0 km/h (2 Bft) 92,59 %
19.04.2016 03:14 7,9 C 96 % 1021,2 hPa 0,0 l/m 2,9 km/h (1 Bft) S 190 0 min 0,000 mm 0,0 UV-I 0 W/m 7,3 C 7,9 C 4,8 km/h (1 Bft) 98,43 %
19.04.2016 03:15 7,9 C 96 % 1021,2 hPa 0,0 l/m 5,2 km/h (1 Bft) S 173 0 min 0,000 mm 0,0 UV-I 0 W/m 7,3 C 7,9 C 9,7 km/h (2 Bft) 97,56 %
19.04.2016 03:16 7,9 C 96 % 1021,2 hPa 0,0 l/m 5,4 km/h (1 Bft) S-SW 193 0 min 0,000 mm 0,0 UV-I 0 W/m 7,3 C 7,9 C 8,0 km/h (2 Bft) 96,15 %
19.04.2016 03:17 7,9 C 96 % 1021,2 hPa 0,0 l/m 5,7 km/h (1 Bft) S 183 0 min 0,000 mm 0,0 UV-I 0 W/m 7,3 C 7,9 C 8,0 km/h (2 Bft) 100,00 %
19.04.2016 03:18 7,9 C 96 % 1021,2 hPa 0,0 l/m 4,1 km/h (1 Bft) S 186 0 min 0,000 mm 0,0 UV-I 0 W/m 7,3 C 7,9 C 9,7 km/h (2 Bft) 100,00 %
19.04.2016 03:19 7,9 C 96 % 1021,2 hPa 0,0 l/m 4,8 km/h (1 Bft) S 178 0 min 0,000 mm 0,0 UV-I 0 W/m 7,3 C 7,9 C 8,0 km/h (2 Bft) 100,00 %
19.04.2016 03:20 7,9 C 96 % 1021,2 hPa 0,0 l/m 5,1 km/h (1 Bft) S-SW 204 0 min 0,000 mm 0,0 UV-I 0 W/m 7,3 C 7,9 C 9,7 km/h (2 Bft) 95,65 %
19.04.2016 03:21 7,9 C 96 % 1021,2 hPa 0,0 l/m 5,0 km/h (1 Bft) S 186 0 min 0,000 mm 0,0 UV-I 0 W/m 7,3 C 7,9 C 8,0 km/h (2 Bft) 98,42 %
19.04.2016 03:22 7,9 C 96 % 1021,2 hPa 0,0 l/m 4,4 km/h (1 Bft) S-SW 198 0 min 0,000 mm 0,0 UV-I 0 W/m 7,3 C 7,9 C 6,4 km/h (2 Bft) 100,00 %
19.04.2016 03:23 7,9 C 96 % 1021,2 hPa 0,0 l/m 5,6 km/h (1 Bft) S-SW 213 0 min 0,000 mm 0,0 UV-I 0 W/m 7,3 C 7,9 C 8,0 km/h (2 Bft) 100,00 %
19.04.2016 03:24 7,9 C 96 % 1021,2 hPa 0,0 l/m 4,8 km/h (1 Bft) S-SW 207 0 min 0,000 mm 0,0 UV-I 0 W/m 7,3 C 7,9 C 6,4 km/h (2 Bft) 100,00 %
19.04.2016 03:25 7,9 C 96 % 1021,2 hPa 0,0 l/m 5,5 km/h (1 Bft) S-SW 205 0 min 0,000 mm 0,0 UV-I 0 W/m 7,3 C 7,9 C 6,4 km/h (2 Bft) 100,00 %
19.04.2016 03:26 7,9 C 96 % 1021,2 hPa 0,0 l/m 6,0 km/h (2 Bft) S-SW 194 0 min 0,000 mm 0,0 UV-I 0 W/m 7,3 C 7,9 C 8,0 km/h (2 Bft) 100,00 %
19.04.2016 03:27 7,9 C 96 % 1021,1 hPa 0,0 l/m 6,0 km/h (2 Bft) S-SW 195 0 min 0,000 mm 0,0 UV-I 0 W/m 7,3 C 7,9 C 8,0 km/h (2 Bft) 100,00 %
19.04.2016 03:28 7,9 C 96 % 1021,1 hPa 0,0 l/m 5,0 km/h (1 Bft) S-SW 199 0 min 0,000 mm 0,0 UV-I 0 W/m 7,3 C 7,9 C 6,4 km/h (2 Bft) 96,30 %
19.04.2016 03:29 7,9 C 96 % 1021,2 hPa 0,0 l/m 5,5 km/h (1 Bft) S-SW 194 0 min 0,000 mm 0,0 UV-I 0 W/m 7,3 C 7,9 C 8,0 km/h (2 Bft) 92,86 %
19.04.2016 03:30 7,9 C 96 % 1021,1 hPa 0,0 l/m 4,2 km/h (1 Bft) S-SW 192 0 min 0,000 mm 0,0 UV-I 0 W/m 7,3 C 7,9 C 4,8 km/h (1 Bft) 100,00 %
19.04.2016 03:31 7,9 C 96 % 1021,2 hPa 0,0 l/m 4,0 km/h (1 Bft) S 191 0 min 0,000 mm 0,0 UV-I 0 W/m 7,3 C 7,9 C 6,4 km/h (2 Bft) 96,15 %
19.04.2016 03:32 7,9 C 96 % 1021,1 hPa 0,0 l/m 6,4 km/h (2 Bft) S-SW 192 0 min 0,000 mm 0,0 UV-I 0 W/m 7,3 C 7,9 C 8,0 km/h (2 Bft) 100,00 %
19.04.2016 03:33 7,9 C 96 % 1021,2 hPa 0,0 l/m 6,2 km/h (2 Bft) S 184 0 min 0,000 mm 0,0 UV-I 0 W/m 7,3 C 7,9 C 8,0 km/h (2 Bft) 100,00 %
19.04.2016 03:34 7,9 C 96 % 1021,2 hPa 0,0 l/m 6,4 km/h (2 Bft) S 190 0 min 0,000 mm 0,0 UV-I 0 W/m 7,3 C 7,9 C 8,0 km/h (2 Bft) 95,83 %
19.04.2016 03:35 7,9 C 96 % 1021,2 hPa 0,0 l/m 6,8 km/h (2 Bft) S-SW 204 0 min 0,000 mm 0,0 UV-I 0 W/m 7,3 C 7,6 C 8,0 km/h (2 Bft) 100,00 %
19.04.2016 03:36 7,9 C 96 % 1021,1 hPa 0,0 l/m 6,2 km/h (2 Bft) S-SW 202 0 min 0,000 mm 0,0 UV-I 0 W/m 7,3 C 7,9 C 8,0 km/h (2 Bft) 100,00 %
19.04.2016 03:37 7,9 C 96 % 1021,1 hPa 0,0 l/m 3,7 km/h (1 Bft) S 191 0 min 0,000 mm 0,0 UV-I 0 W/m 7,3 C 7,9 C 6,4 km/h (2 Bft) 91,67 %
19.04.2016 03:38 7,9 C 96 % 1021,1 hPa 0,0 l/m 3,8 km/h (1 Bft) S-SW 194 0 min 0,000 mm 0,0 UV-I 0 W/m 7,3 C 7,9 C 6,4 km/h (2 Bft) 100,00 %
19.04.2016 03:39 7,9 C 96 % 1021,1 hPa 0,0 l/m 4,3 km/h (1 Bft) S 190 0 min 0,000 mm 0,0 UV-I 0 W/m 7,3 C 7,9 C 6,4 km/h (2 Bft) 100,00 %
19.04.2016 03:40 7,9 C 96 % 1021,2 hPa 0,0 l/m 6,3 km/h (2 Bft) S 177 0 min 0,000 mm 0,0 UV-I 0 W/m 7,3 C 7,9 C 8,0 km/h (2 Bft) 100,00 %
19.04.2016 03:41 7,9 C 96 % 1021,1 hPa 0,0 l/m 3,0 km/h (1 Bft) S 184 0 min 0,000 mm 0,0 UV-I 0 W/m 7,3 C 7,9 C 6,4 km/h (2 Bft) 100,00 %
19.04.2016 03:42 7,9 C 96 % 1021,2 hPa 0,0 l/m 3,5 km/h (1 Bft) S 178 0 min 0,000 mm 0,0 UV-I 0 W/m 7,3 C 7,9 C 4,8 km/h (1 Bft) 100,00 %
19.04.2016 03:43 7,9 C 96 % 1021,2 hPa 0,0 l/m 4,0 km/h (1 Bft) S 180 0 min 0,000 mm 0,0 UV-I 0 W/m 7,3 C 7,9 C 4,8 km/h (1 Bft) 100,00 %
19.04.2016 03:44 7,8 C 96 % 1021,2 hPa 0,0 l/m 5,6 km/h (1 Bft) S 188 0 min 0,000 mm 0,0 UV-I 0 W/m 7,2 C 7,8 C 8,0 km/h (2 Bft) 92,31 %
19.04.2016 03:45 7,9 C 96 % 1021,2 hPa 0,0 l/m 5,8 km/h (2 Bft) S 182 0 min 0,000 mm 0,0 UV-I 0 W/m 7,3 C 7,9 C 8,0 km/h (2 Bft) 95,83 %
19.04.2016 03:46 7,9 C 96 % 1021,2 hPa 0,0 l/m 5,0 km/h (1 Bft) S-SW 213 0 min 0,000 mm 0,0 UV-I 0 W/m 7,3 C 7,9 C 6,4 km/h (2 Bft) 100,00 %
19.04.2016 03:47 7,9 C 96 % 1021,2 hPa 0,0 l/m 4,2 km/h (1 Bft) S-SW 192 0 min 0,000 mm 0,0 UV-I 0 W/m 7,3 C 7,9 C 6,4 km/h (2 Bft) 100,00 %
19.04.2016 03:48 7,9 C 96 % 1021,2 hPa 0,0 l/m 6,0 km/h (2 Bft) S-SW 207 0 min 0,000 mm 0,0 UV-I 0 W/m 7,3 C 7,9 C 9,7 km/h (2 Bft) 100,00 %
19.04.2016 03:49 7,8 C 96 % 1021,3 hPa 0,0 l/m 4,4 km/h (1 Bft) S-SW 201 0 min 0,000 mm 0,0 UV-I 0 W/m 7,2 C 7,8 C 8,0 km/h (2 Bft) 100,00 %
19.04.2016 03:50 7,8 C 96 % 1021,2 hPa 0,0 l/m 6,4 km/h (2 Bft) S 191 0 min 0,000 mm 0,0 UV-I 0 W/m 7,2 C 7,8 C 8,0 km/h (2 Bft) 95,65 %
19.04.2016 03:51 7,8 C 95 % 1021,2 hPa 0,0 l/m 5,0 km/h (1 Bft) S-SO 167 0 min 0,000 mm 0,0 UV-I 0 W/m 7,0 C 7,8 C 8,0 km/h (2 Bft) 100,00 %
19.04.2016 03:52 7,9 C 95 % 1021,3 hPa 0,0 l/m 5,8 km/h (2 Bft) S-SW 192 0 min 0,000 mm 0,0 UV-I 0 W/m 7,1 C 7,9 C 9,7 km/h (2 Bft) 95,65 %
19.04.2016 03:53 7,8 C 95 % 1021,3 hPa 0,0 l/m 6,3 km/h (2 Bft) S-SW 200 0 min 0,000 mm 0,0 UV-I 0 W/m 7,0 C 7,8 C 9,7 km/h (2 Bft) 100,00 %
19.04.2016 03:54 7,8 C 95 % 1021,3 hPa 0,0 l/m 5,1 km/h (1 Bft) S 190 0 min 0,000 mm 0,0 UV-I 0 W/m 7,0 C 7,8 C 6,4 km/h (2 Bft) 100,00 %
19.04.2016 03:55 7,8 C 95 % 1021,3 hPa 0,0 l/m 3,6 km/h (1 Bft) S-SW 202 0 min 0,000 mm 0,0 UV-I 0 W/m 7,0 C 7,8 C 6,4 km/h (2 Bft) 100,00 %
19.04.2016 03:56 7,8 C 95 % 1021,3 hPa 0,0 l/m 5,1 km/h (1 Bft) S-SW 197 0 min 0,000 mm 0,0 UV-I 0 W/m 7,0 C 7,8 C 9,7 km/h (2 Bft) 100,00 %
19.04.2016 03:57 7,8 C 95 % 1021,2 hPa 0,0 l/m 6,4 km/h (2 Bft) S-SW 194 0 min 0,000 mm 0,0 UV-I 0 W/m 7,0 C 7,8 C 9,7 km/h (2 Bft) 100,00 %
19.04.2016 03:58 7,8 C 95 % 1021,3 hPa 0,0 l/m 8,7 km/h (2 Bft) S-SW 209 0 min 0,000 mm 0,0 UV-I 0 W/m 7,0 C 6,0 C 9,7 km/h (2 Bft) 100,00 %
19.04.2016 03:59 7,8 C 95 % 1021,2 hPa 0,0 l/m 7,1 km/h (2 Bft) S 181 0 min 0,000 mm 0,0 UV-I 0 W/m 7,0 C 7,2 C 9,7 km/h (2 Bft) 100,00 %
19.04.2016 04:00 7,8 C 95 % 1021,3 hPa 0,0 l/m 7,5 km/h (2 Bft) S-SW 194 0 min 0,000 mm 0,0 UV-I 0 W/m 7,0 C 6,9 C 9,7 km/h (2 Bft) 96,30 %
19.04.2016 04:01 7,8 C 95 % 1021,2 hPa 0,0 l/m 6,4 km/h (2 Bft) S-SW 205 0 min 0,000 mm 0,0 UV-I 0 W/m 7,0 C 7,8 C 6,4 km/h (2 Bft) 100,00 %
19.04.2016 04:02 7,8 C 95 % 1021,3 hPa 0,0 l/m 7,7 km/h (2 Bft) S 190 0 min 0,000 mm 0,0 UV-I 0 W/m 7,0 C 6,8 C 9,7 km/h (2 Bft) 100,00 %
19.04.2016 04:03 7,8 C 95 % 1021,3 hPa 0,0 l/m 7,0 km/h (2 Bft) S-SW 193 0 min 0,000 mm 0,0 UV-I 0 W/m 7,0 C 7,3 C 9,7 km/h (2 Bft) 100,00 %
19.04.2016 04:04 7,8 C 95 % 1021,2 hPa 0,0 l/m 7,5 km/h (2 Bft) S 190 0 min 0,000 mm 0,0 UV-I 0 W/m 7,0 C 6,9 C 11,3 km/h (2 Bft) 100,00 %
19.04.2016 04:05 7,8 C 95 % 1021,3 hPa 0,0 l/m 5,7 km/h (1 Bft) S 186 0 min 0,000 mm 0,0 UV-I 0 W/m 7,0 C 7,8 C 8,0 km/h (2 Bft) 100,00 %
19.04.2016 04:06 7,8 C 95 % 1021,3 hPa 0,0 l/m 5,9 km/h (2 Bft) S-SW 192 0 min 0,000 mm 0,0 UV-I 0 W/m 7,0 C 7,8 C 9,7 km/h (2 Bft) 100,00 %
19.04.2016 04:07 7,8 C 95 % 1021,3 hPa 0,0 l/m 6,6 km/h (2 Bft) S 187 0 min 0,000 mm 0,0 UV-I 0 W/m 7,0 C 7,7 C 8,0 km/h (2 Bft) 100,00 %
19.04.2016 04:08 7,8 C 95 % 1021,3 hPa 0,0 l/m 6,1 km/h (2 Bft) S-SW 195 0 min 0,000 mm 0,0 UV-I 0 W/m 7,0 C 7,8 C 8,0 km/h (2 Bft) 100,00 %
19.04.2016 04:09 7,8 C 95 % 1021,3 hPa 0,0 l/m 4,7 km/h (1 Bft) S-SW 195 0 min 0,000 mm 0,0 UV-I 0 W/m 7,0 C 7,8 C 6,4 km/h (2 Bft) 100,00 %
19.04.2016 04:10 7,8 C 95 % 1021,3 hPa 0,0 l/m 5,4 km/h (1 Bft) S-SW 199 0 min 0,000 mm 0,0 UV-I 0 W/m 7,0 C 7,8 C 8,0 km/h (2 Bft) 100,00 %
19.04.2016 04:11 7,8 C 95 % 1021,3 hPa 0,0 l/m 7,3 km/h (2 Bft) S-SW 195 0 min 0,000 mm 0,0 UV-I 0 W/m 7,0 C 7,1 C 9,7 km/h (2 Bft) 100,00 %
19.04.2016 04:12 7,8 C 95 % 1021,3 hPa 0,0 l/m 6,4 km/h (2 Bft) S 181 0 min 0,000 mm 0,0 UV-I 0 W/m 7,0 C 7,8 C 9,7 km/h (2 Bft) 100,00 %
19.04.2016 04:13 7,8 C 95 % 1021,3 hPa 0,0 l/m 7,4 km/h (2 Bft) S-SW 205 0 min 0,000 mm 0,0 UV-I 0 W/m 7,0 C 7,0 C 11,3 km/h (2 Bft) 96,15 %
19.04.2016 04:14 7,8 C 95 % 1021,3 hPa 0,0 l/m 6,4 km/h (2 Bft) S-SO 168 0 min 0,000 mm 0,0 UV-I 0 W/m 7,0 C 7,8 C 9,7 km/h (2 Bft) 100,00 %
19.04.2016 04:15 7,8 C 95 % 1021,3 hPa 0,0 l/m 4,9 km/h (1 Bft) S 184 0 min 0,000 mm 0,0 UV-I 0 W/m 7,0 C 7,8 C 6,4 km/h (2 Bft) 99,68 %
19.04.2016 04:16 7,8 C 95 % 1021,3 hPa 0,0 l/m 7,3 km/h (2 Bft) S-SW 212 0 min 0,000 mm 0,0 UV-I 0 W/m 7,0 C 7,1 C 9,7 km/h (2 Bft) 100,00 %
19.04.2016 04:17 7,8 C 95 % 1021,3 hPa 0,0 l/m 7,3 km/h (2 Bft) S 178 0 min 0,000 mm 0,0 UV-I 0 W/m 7,0 C 7,1 C 9,7 km/h (2 Bft) 100,00 %
19.04.2016 04:18 7,8 C 95 % 1021,3 hPa 0,0 l/m 3,8 km/h (1 Bft) S 173 0 min 0,000 mm 0,0 UV-I 0 W/m 7,0 C 7,8 C 6,4 km/h (2 Bft) 100,00 %
19.04.2016 04:19 7,8 C 95 % 1021,3 hPa 0,0 l/m 6,3 km/h (2 Bft) S 181 0 min 0,000 mm 0,0 UV-I 0 W/m 7,0 C 7,8 C 8,0 km/h (2 Bft) 100,00 %
19.04.2016 04:20 7,8 C 95 % 1021,4 hPa 0,0 l/m 5,8 km/h (2 Bft) S 190 0 min 0,000 mm 0,0 UV-I 0 W/m 7,0 C 7,8 C 8,0 km/h (2 Bft) 100,00 %
19.04.2016 04:21 7,8 C 94 % 1021,4 hPa 0,0 l/m 3,5 km/h (1 Bft) S-SW 207 0 min 0,000 mm 0,0 UV-I 0 W/m 6,9 C 7,8 C 4,8 km/h (1 Bft) 100,00 %
19.04.2016 04:22 7,8 C 94 % 1021,3 hPa 0,0 l/m 4,9 km/h (1 Bft) S-SW 197 0 min 0,000 mm 0,0 UV-I 0 W/m 6,9 C 7,8 C 6,4 km/h (2 Bft) 100,00 %
19.04.2016 04:23 7,8 C 94 % 1021,3 hPa 0,0 l/m 7,2 km/h (2 Bft) S 184 0 min 0,000 mm 0,0 UV-I 0 W/m 6,9 C 7,2 C 9,7 km/h (2 Bft) 100,00 %
19.04.2016 04:24 7,8 C 94 % 1021,3 hPa 0,0 l/m 5,4 km/h (1 Bft) S-SW 210 0 min 0,000 mm 0,0 UV-I 0 W/m 6,9 C 7,8 C 8,0 km/h (2 Bft) 100,00 %
19.04.2016 04:25 7,8 C 94 % 1021,4 hPa 0,0 l/m 5,3 km/h (1 Bft) S 177 0 min 0,000 mm 0,0 UV-I 0 W/m 6,9 C 7,8 C 8,0 km/h (2 Bft) 100,00 %
19.04.2016 04:26 7,8 C 94 % 1021,4 hPa 0,0 l/m 4,9 km/h (1 Bft) SW 223 0 min 0,000 mm 0,0 UV-I 0 W/m 6,9 C 7,8 C 8,0 km/h (2 Bft) 100,00 %
19.04.2016 04:27 7,8 C 94 % 1021,3 hPa 0,0 l/m 6,0 km/h (2 Bft) SW 217 0 min 0,000 mm 0,0 UV-I 0 W/m 6,9 C 7,8 C 9,7 km/h (2 Bft) 100,00 %
19.04.2016 04:28 7,8 C 94 % 1021,3 hPa 0,0 l/m 4,5 km/h (1 Bft) SW 221 0 min 0,000 mm 0,0 UV-I 0 W/m 6,9 C 7,8 C 4,8 km/h (1 Bft) 95,65 %
19.04.2016 04:29 7,8 C 94 % 1021,3 hPa 0,0 l/m 4,7 km/h (1 Bft) S-SW 212 0 min 0,000 mm 0,0 UV-I 0 W/m 6,9 C 7,8 C 8,0 km/h (2 Bft) 100,00 %
19.04.2016 04:30 7,8 C 94 % 1021,3 hPa 0,0 l/m 5,6 km/h (1 Bft) S-SW 209 0 min 0,000 mm 0,0 UV-I 0 W/m 6,9 C 7,8 C 6,4 km/h (2 Bft) 100,00 %
19.04.2016 04:31 7,8 C 94 % 1021,3 hPa 0,0 l/m 3,8 km/h (1 Bft) SW 224 0 min 0,000 mm 0,0 UV-I 0 W/m 6,9 C 7,8 C 4,8 km/h (1 Bft) 95,83 %
19.04.2016 04:32 7,7 C 94 % 1021,3 hPa 0,0 l/m 4,4 km/h (1 Bft) S-SW 192 0 min 0,000 mm 0,0 UV-I 0 W/m 6,8 C 7,7 C 4,8 km/h (1 Bft) 100,00 %
19.04.2016 04:33 7,7 C 94 % 1021,3 hPa 0,0 l/m 2,9 km/h (1 Bft) S 189 0 min 0,000 mm 0,0 UV-I 0 W/m 6,8 C 7,7 C 4,8 km/h (1 Bft) 100,00 %
19.04.2016 04:34 7,7 C 94 % 1021,3 hPa 0,0 l/m 2,7 km/h (1 Bft) S 189 0 min 0,000 mm 0,0 UV-I 0 W/m 6,8 C 7,7 C 3,2 km/h (1 Bft) 100,00 %
19.04.2016 04:35 7,7 C 94 % 1021,3 hPa 0,0 l/m 2,3 km/h (1 Bft) S 189 0 min 0,000 mm 0,0 UV-I 0 W/m 6,8 C 7,7 C 4,8 km/h (1 Bft) 100,00 %
19.04.2016 04:36 7,7 C 95 % 1021,3 hPa 0,0 l/m 3,1 km/h (1 Bft) S-SW 212 0 min 0,000 mm 0,0 UV-I 0 W/m 7,0 C 7,7 C 4,8 km/h (1 Bft) 100,00 %
19.04.2016 04:37 7,7 C 95 % 1021,3 hPa 0,0 l/m 3,4 km/h (1 Bft) SW 216 0 min 0,000 mm 0,0 UV-I 0 W/m 7,0 C 7,7 C 4,8 km/h (1 Bft) 100,00 %
19.04.2016 04:38 7,7 C 95 % 1021,3 hPa 0,0 l/m 3,3 km/h (1 Bft) SW 216 0 min 0,000 mm 0,0 UV-I 0 W/m 7,0 C 7,7 C 4,8 km/h (1 Bft) 100,00 %
19.04.2016 04:39 7,7 C 95 % 1021,3 hPa 0,0 l/m 3,9 km/h (1 Bft) SW 216 0 min 0,000 mm 0,0 UV-I 0 W/m 7,0 C 7,7 C 4,8 km/h (1 Bft) 100,00 %
19.04.2016 04:40 7,7 C 95 % 1021,3 hPa 0,0 l/m 5,2 km/h (1 Bft) S 187 0 min 0,000 mm 0,0 UV-I 0 W/m 7,0 C 7,7 C 8,0 km/h (2 Bft) 95,83 %
19.04.2016 04:41 7,7 C 95 % 1021,4 hPa 0,0 l/m 5,5 km/h (1 Bft) S-SW 200 0 min 0,000 mm 0,0 UV-I 0 W/m 7,0 C 7,7 C 8,0 km/h (2 Bft) 95,65 %
19.04.2016 04:42 7,6 C 95 % 1021,3 hPa 0,0 l/m 5,1 km/h (1 Bft) S-SW 204 0 min 0,000 mm 0,0 UV-I 0 W/m 6,9 C 7,6 C 6,4 km/h (2 Bft) 95,83 %
19.04.2016 04:43 7,6 C 95 % 1021,3 hPa 0,0 l/m 5,7 km/h (1 Bft) S-SW 198 0 min 0,000 mm 0,0 UV-I 0 W/m 6,9 C 7,6 C 6,4 km/h (2 Bft) 100,00 %
19.04.2016 04:44 7,6 C 95 % 1021,3 hPa 0,0 l/m 5,8 km/h (2 Bft) S-SW 198 0 min 0,000 mm 0,0 UV-I 0 W/m 6,9 C 7,6 C 6,4 km/h (2 Bft) 100,00 %
19.04.2016 04:45 7,6 C 95 % 1021,3 hPa 0,0 l/m 5,1 km/h (1 Bft) S-SW 199 0 min 0,000 mm 0,0 UV-I 0 W/m 6,9 C 7,6 C 6,4 km/h (2 Bft) 100,00 %
19.04.2016 04:46 7,6 C 95 % 1021,3 hPa 0,0 l/m 6,0 km/h (2 Bft) SW 218 0 min 0,000 mm 0,0 UV-I 0 W/m 6,9 C 7,6 C 8,0 km/h (2 Bft) 95,83 %
19.04.2016 04:47 7,6 C 95 % 1021,3 hPa 0,0 l/m 3,9 km/h (1 Bft) S-SW 207 0 min 0,000 mm 0,0 UV-I 0 W/m 6,9 C 7,6 C 6,4 km/h (2 Bft) 100,00 %
19.04.2016 04:48 7,6 C 95 % 1021,3 hPa 0,0 l/m 4,7 km/h (1 Bft) S-SW 196 0 min 0,000 mm 0,0 UV-I 0 W/m 6,9 C 7,6 C 6,4 km/h (2 Bft) 96,30 %
19.04.2016 04:49 7,6 C 95 % 1021,4 hPa 0,0 l/m 4,2 km/h (1 Bft) S-SW 213 0 min 0,000 mm 0,0 UV-I 0 W/m 6,9 C 7,6 C 6,4 km/h (2 Bft) 100,00 %
19.04.2016 04:50 7,6 C 95 % 1021,4 hPa 0,0 l/m 4,5 km/h (1 Bft) SW 217 0 min 0,000 mm 0,0 UV-I 0 W/m 6,9 C 7,6 C 6,4 km/h (2 Bft) 92,59 %
19.04.2016 04:51 7,6 C 95 % 1021,4 hPa 0,0 l/m 4,6 km/h (1 Bft) SW 221 0 min 0,000 mm 0,0 UV-I 0 W/m 6,9 C 7,6 C 6,4 km/h (2 Bft) 96,88 %
19.04.2016 04:52 7,6 C 95 % 1021,4 hPa 0,0 l/m 2,7 km/h (1 Bft) SW 221 0 min 0,000 mm 0,0 UV-I 0 W/m 6,9 C 7,6 C 3,2 km/h (1 Bft) 99,06 %
19.04.2016 04:53 7,6 C 95 % 1021,4 hPa 0,0 l/m 4,0 km/h (1 Bft) SW 225 0 min 0,000 mm 0,0 UV-I 0 W/m 6,9 C 7,6 C 4,8 km/h (1 Bft) 94,74 %
19.04.2016 04:54 7,6 C 95 % 1021,4 hPa 0,0 l/m 3,7 km/h (1 Bft) S-SW 198 0 min 0,000 mm 0,0 UV-I 0 W/m 6,9 C 7,6 C 6,4 km/h (2 Bft) 100,00 %
19.04.2016 04:55 7,6 C 95 % 1021,5 hPa 0,0 l/m 4,6 km/h (1 Bft) W-SW 240 0 min 0,000 mm 0,0 UV-I 0 W/m 6,9 C 7,6 C 6,4 km/h (2 Bft) 93,10 %
19.04.2016 04:56 7,6 C 95 % 1021,5 hPa 0,0 l/m 4,3 km/h (1 Bft) S-SW 211 0 min 0,000 mm 0,0 UV-I 0 W/m 6,9 C 7,6 C 6,4 km/h (2 Bft) 100,00 %
19.04.2016 04:57 7,6 C 95 % 1021,5 hPa 0,0 l/m 4,0 km/h (1 Bft) S-SW 192 0 min 0,000 mm 0,0 UV-I 0 W/m 6,9 C 7,6 C 6,4 km/h (2 Bft) 93,33 %
19.04.2016 04:58 7,6 C 95 % 1021,5 hPa 0,0 l/m 5,2 km/h (1 Bft) S-SW 207 0 min 0,000 mm 0,0 UV-I 0 W/m 6,9 C 7,6 C 8,0 km/h (2 Bft) 100,00 %
19.04.2016 04:59 7,6 C 95 % 1021,5 hPa 0,0 l/m 4,3 km/h (1 Bft) SW 216 0 min 0,000 mm 0,0 UV-I 0 W/m 6,9 C 7,6 C 6,4 km/h (2 Bft) 96,15 %
19.04.2016 05:00 7,6 C 95 % 1021,5 hPa 0,0 l/m 3,1 km/h (1 Bft) SW 227 0 min 0,000 mm 0,0 UV-I 0 W/m 6,9 C 7,6 C 4,8 km/h (1 Bft) 95,83 %
19.04.2016 05:02 7,6 C 95 % 1021,6 hPa 0,0 l/m 6,0 km/h (2 Bft) W-SW 240 0 min 0,000 mm 0,0 UV-I 0 W/m 6,9 C 7,6 C 8,0 km/h (2 Bft) 97,56 %
19.04.2016 05:03 7,6 C 95 % 1021,5 hPa 0,0 l/m 6,8 km/h (2 Bft) W-SW 240 0 min 0,000 mm 0,0 UV-I 0 W/m 6,9 C 7,3 C 8,0 km/h (2 Bft) 100,00 %
19.04.2016 05:04 7,6 C 95 % 1021,5 hPa 0,0 l/m 5,6 km/h (1 Bft) SW 234 0 min 0,000 mm 0,0 UV-I 0 W/m 6,9 C 7,6 C 8,0 km/h (2 Bft) 96,15 %
19.04.2016 05:05 7,6 C 95 % 1021,5 hPa 0,0 l/m 6,3 km/h (2 Bft) SW 222 0 min 0,000 mm 0,0 UV-I 0 W/m 6,9 C 7,6 C 8,0 km/h (2 Bft) 100,00 %
19.04.2016 05:06 7,6 C 95 % 1021,5 hPa 0,0 l/m 6,2 km/h (2 Bft) W-SW 237 0 min 0,000 mm 0,0 UV-I 0 W/m 6,9 C 7,6 C 8,0 km/h (2 Bft) 95,65 %
19.04.2016 05:07 7,6 C 95 % 1021,5 hPa 0,0 l/m 5,6 km/h (1 Bft) SW 217 0 min 0,000 mm 0,0 UV-I 0 W/m 6,9 C 7,6 C 8,0 km/h (2 Bft) 95,83 %
19.04.2016 05:08 7,6 C 95 % 1021,5 hPa 0,0 l/m 4,5 km/h (1 Bft) SW 217 0 min 0,000 mm 0,0 UV-I 0 W/m 6,9 C 7,6 C 6,4 km/h (2 Bft) 100,00 %
19.04.2016 05:09 7,6 C 95 % 1021,5 hPa 0,0 l/m 5,8 km/h (2 Bft) SW 234 0 min 0,000 mm 0,0 UV-I 0 W/m 6,9 C 7,6 C 8,0 km/h (2 Bft) 96,77 %
19.04.2016 05:10 7,6 C 95 % 1021,5 hPa 0,0 l/m 6,4 km/h (2 Bft) SW 220 0 min 0,000 mm 0,0 UV-I 0 W/m 6,9 C 7,6 C 9,7 km/h (2 Bft) 100,00 %
19.04.2016 05:11 7,6 C 95 % 1021,5 hPa 0,0 l/m 5,2 km/h (1 Bft) SW 225 0 min 0,000 mm 0,0 UV-I 0 W/m 6,9 C 7,6 C 9,7 km/h (2 Bft) 93,33 %
19.04.2016 05:12 7,6 C 95 % 1021,5 hPa 0,0 l/m 5,9 km/h (2 Bft) SW 223 0 min 0,000 mm 0,0 UV-I 0 W/m 6,9 C 7,6 C 9,7 km/h (2 Bft) 100,00 %
19.04.2016 05:13 7,6 C 95 % 1021,5 hPa 0,0 l/m 6,4 km/h (2 Bft) SW 235 0 min 0,000 mm 0,0 UV-I 0 W/m 6,9 C 7,6 C 9,7 km/h (2 Bft) 96,30 %
19.04.2016 05:14 7,6 C 95 % 1021,5 hPa 0,0 l/m 6,5 km/h (2 Bft) SW 221 0 min 0,000 mm 0,0 UV-I 0 W/m 6,9 C 7,5 C 8,0 km/h (2 Bft) 100,00 %
19.04.2016 05:15 7,6 C 95 % 1021,6 hPa 0,0 l/m 5,9 km/h (2 Bft) SW 217 0 min 0,000 mm 0,0 UV-I 0 W/m 6,9 C 7,6 C 8,0 km/h (2 Bft) 96,55 %
19.04.2016 05:16 7,6 C 95 % 1021,6 hPa 0,0 l/m 6,4 km/h (2 Bft) SW 224 0 min 0,000 mm 0,0 UV-I 0 W/m 6,9 C 7,6 C 9,7 km/h (2 Bft) 100,00 %
19.04.2016 05:17 7,6 C 95 % 1021,6 hPa 0,0 l/m 6,4 km/h (2 Bft) SW 219 0 min 0,000 mm 0,0 UV-I 0 W/m 6,9 C 7,6 C 8,0 km/h (2 Bft) 96,30 %
19.04.2016 05:18 7,6 C 95 % 1021,6 hPa 0,0 l/m 6,0 km/h (2 Bft) SW 229 0 min 0,000 mm 0,0 UV-I 0 W/m 6,9 C 7,6 C 9,7 km/h (2 Bft) 95,65 %
19.04.2016 05:19 7,6 C 95 % 1021,6 hPa 0,0 l/m 5,1 km/h (1 Bft) SW 234 0 min 0,000 mm 0,0 UV-I 0 W/m 6,9 C 7,6 C 8,0 km/h (2 Bft) 100,00 %
19.04.2016 05:20 7,6 C 95 % 1021,6 hPa 0,0 l/m 4,2 km/h (1 Bft) W-SW 238 0 min 0,000 mm 0,0 UV-I 0 W/m 6,9 C 7,6 C 6,4 km/h (2 Bft) 95,65 %
19.04.2016 05:21 7,6 C 95 % 1021,6 hPa 0,0 l/m 4,8 km/h (1 Bft) W-SW 248 0 min 0,000 mm 0,0 UV-I 0 W/m 6,9 C 7,6 C 6,4 km/h (2 Bft) 100,00 %
19.04.2016 05:22 7,6 C 95 % 1021,6 hPa 0,0 l/m 5,0 km/h (1 Bft) W-SW 248 0 min 0,000 mm 0,0 UV-I 0 W/m 6,9 C 7,6 C 6,4 km/h (2 Bft) 93,33 %
19.04.2016 05:23 7,6 C 95 % 1021,6 hPa 0,0 l/m 4,1 km/h (1 Bft) SW 230 0 min 0,000 mm 0,0 UV-I 0 W/m 6,9 C 7,6 C 6,4 km/h (2 Bft) 100,00 %
19.04.2016 05:24 7,6 C 95 % 1021,6 hPa 0,0 l/m 5,8 km/h (2 Bft) W 271 0 min 0,000 mm 0,0 UV-I 0 W/m 6,9 C 7,6 C 8,0 km/h (2 Bft) 100,00 %
19.04.2016 05:25 7,7 C 95 % 1021,6 hPa 0,0 l/m 5,1 km/h (1 Bft) W-SW 252 0 min 0,000 mm 0,0 UV-I 0 W/m 7,0 C 7,7 C 6,4 km/h (2 Bft) 100,00 %
19.04.2016 05:26 7,6 C 95 % 1021,6 hPa 0,0 l/m 4,4 km/h (1 Bft) W-SW 254 0 min 0,000 mm 0,0 UV-I 0 W/m 6,9 C 7,6 C 6,4 km/h (2 Bft) 95,83 %
19.04.2016 05:27 7,6 C 95 % 1021,6 hPa 0,0 l/m 6,1 km/h (2 Bft) SW 228 0 min 0,000 mm 0,0 UV-I 0 W/m 6,9 C 7,6 C 8,0 km/h (2 Bft) 96,55 %
19.04.2016 05:28 7,6 C 95 % 1021,6 hPa 0,0 l/m 5,4 km/h (1 Bft) W-SW 246 0 min 0,000 mm 0,0 UV-I 0 W/m 6,9 C 7,6 C 6,4 km/h (2 Bft) 96,30 %
19.04.2016 05:29 7,6 C 95 % 1021,6 hPa 0,0 l/m 4,7 km/h (1 Bft) W-SW 246 0 min 0,000 mm 0,0 UV-I 0 W/m 6,9 C 7,6 C 6,4 km/h (2 Bft) 100,00 %
19.04.2016 05:30 7,7 C 95 % 1021,7 hPa 0,0 l/m 6,6 km/h (2 Bft) W-SW 257 0 min 0,000 mm 0,0 UV-I 0 W/m 7,0 C 7,6 C 9,7 km/h (2 Bft) 100,00 %
19.04.2016 05:31 7,7 C 95 % 1021,6 hPa 0,0 l/m 4,4 km/h (1 Bft) SW 236 0 min 0,000 mm 0,0 UV-I 0 W/m 7,0 C 7,7 C 6,4 km/h (2 Bft) 100,00 %
19.04.2016 05:32 7,7 C 95 % 1021,6 hPa 0,0 l/m 5,2 km/h (1 Bft) W 263 0 min 0,000 mm 0,0 UV-I 0 W/m 7,0 C 7,7 C 8,0 km/h (2 Bft) 100,00 %
19.04.2016 05:33 7,6 C 94 % 1021,7 hPa 0,0 l/m 5,3 km/h (1 Bft) W 269 0 min 0,000 mm 0,0 UV-I 0 W/m 6,7 C 7,6 C 6,4 km/h (2 Bft) 100,00 %
19.04.2016 05:34 7,6 C 94 % 1021,7 hPa 0,0 l/m 5,4 km/h (1 Bft) W 259 0 min 0,000 mm 0,0 UV-I 0 W/m 6,7 C 7,6 C 8,0 km/h (2 Bft) 100,00 %
19.04.2016 05:35 7,7 C 94 % 1021,7 hPa 0,0 l/m 5,8 km/h (2 Bft) W-SW 246 0 min 0,000 mm 0,0 UV-I 0 W/m 6,8 C 7,7 C 9,7 km/h (2 Bft) 100,00 %
19.04.2016 05:36 7,6 C 94 % 1021,7 hPa 0,0 l/m 4,8 km/h (1 Bft) W-SW 238 0 min 0,000 mm 0,0 UV-I 0 W/m 6,7 C 7,6 C 6,4 km/h (2 Bft) 100,00 %
19.04.2016 05:37 7,7 C 94 % 1021,7 hPa 0,0 l/m 4,7 km/h (1 Bft) W-SW 258 0 min 0,000 mm 0,0 UV-I 0 W/m 6,8 C 7,7 C 6,4 km/h (2 Bft) 100,00 %
19.04.2016 05:38 7,7 C 94 % 1021,7 hPa 0,0 l/m 5,3 km/h (1 Bft) W-SW 254 0 min 0,000 mm 0,0 UV-I 0 W/m 6,8 C 7,7 C 6,4 km/h (2 Bft) 100,00 %
19.04.2016 05:39 7,6 C 94 % 1021,8 hPa 0,0 l/m 4,9 km/h (1 Bft) W-SW 250 0 min 0,000 mm 0,0 UV-I 0 W/m 6,7 C 7,6 C 6,4 km/h (2 Bft) 100,00 %
19.04.2016 05:40 7,6 C 94 % 1021,8 hPa 0,0 l/m 4,2 km/h (1 Bft) W-SW 250 0 min 0,000 mm 0,0 UV-I 0 W/m 6,7 C 7,6 C 4,8 km/h (1 Bft) 100,00 %
19.04.2016 05:41 7,6 C 94 % 1021,8 hPa 0,0 l/m 5,0 km/h (1 Bft) W-SW 246 0 min 0,000 mm 0,0 UV-I 0 W/m 6,7 C 7,6 C 8,0 km/h (2 Bft) 100,00 %
19.04.2016 05:42 7,6 C 94 % 1021,8 hPa 0,0 l/m 4,9 km/h (1 Bft) W-SW 240 0 min 0,000 mm 0,0 UV-I 0 W/m 6,7 C 7,6 C 8,0 km/h (2 Bft) 100,00 %
19.04.2016 05:43 7,6 C 94 % 1021,7 hPa 0,0 l/m 5,8 km/h (2 Bft) W-SW 256 0 min 0,000 mm 0,0 UV-I 0 W/m 6,7 C 7,6 C 8,0 km/h (2 Bft) 100,00 %
19.04.2016 05:44 7,6 C 94 % 1021,8 hPa 0,0 l/m 5,8 km/h (2 Bft) W-SW 257 0 min 0,000 mm 0,0 UV-I 0 W/m 6,7 C 7,6 C 8,0 km/h (2 Bft) 100,00 %
19.04.2016 05:45 7,6 C 94 % 1021,8 hPa 0,0 l/m 5,1 km/h (1 Bft) W 268 0 min 0,000 mm 0,0 UV-I 0 W/m 6,7 C 7,6 C 6,4 km/h (2 Bft) 100,00 %
19.04.2016 05:46 7,6 C 94 % 1021,8 hPa 0,0 l/m 3,7 km/h (1 Bft) W-SW 249 0 min 0,000 mm 0,0 UV-I 0 W/m 6,7 C 7,6 C 4,8 km/h (1 Bft) 100,00 %
19.04.2016 05:47 7,6 C 94 % 1021,8 hPa 0,0 l/m 3,8 km/h (1 Bft) W-SW 250 0 min 0,000 mm 0,0 UV-I 0 W/m 6,7 C 7,6 C 4,8 km/h (1 Bft) 100,00 %
19.04.2016 05:48 7,6 C 94 % 1021,8 hPa 0,0 l/m 5,1 km/h (1 Bft) SW 234 0 min 0,000 mm 0,0 UV-I 0 W/m 6,7 C 7,6 C 6,4 km/h (2 Bft) 100,00 %
19.04.2016 05:49 7,6 C 94 % 1021,8 hPa 0,0 l/m 4,1 km/h (1 Bft) W-SW 246 0 min 0,000 mm 0,0 UV-I 0 W/m 6,7 C 7,6 C 6,4 km/h (2 Bft) 100,00 %
19.04.2016 05:50 7,6 C 94 % 1021,8 hPa 0,0 l/m 4,7 km/h (1 Bft) W-SW 240 0 min 0,000 mm 0,0 UV-I 0 W/m 6,7 C 7,6 C 6,4 km/h (2 Bft) 100,00 %
19.04.2016 05:51 7,6 C 94 % 1021,8 hPa 0,0 l/m 4,1 km/h (1 Bft) W-SW 254 0 min 0,000 mm 0,0 UV-I 0 W/m 6,7 C 7,6 C 4,8 km/h (1 Bft) 100,00 %
19.04.2016 05:52 7,6 C 94 % 1021,9 hPa 0,0 l/m 3,8 km/h (1 Bft) W-SW 257 0 min 0,000 mm 0,0 UV-I 0 W/m 6,7 C 7,6 C 4,8 km/h (1 Bft) 100,00 %
19.04.2016 05:53 7,6 C 94 % 1021,9 hPa 0,0 l/m 3,8 km/h (1 Bft) W-SW 257 0 min 0,000 mm 0,0 UV-I 0 W/m 6,7 C 7,6 C 4,8 km/h (1 Bft) 100,00 %
19.04.2016 05:54 7,6 C 95 % 1021,9 hPa 0,0 l/m 3,0 km/h (1 Bft) W-SW 257 0 min 0,000 mm 0,0 UV-I 0 W/m 6,9 C 7,6 C 4,8 km/h (1 Bft) 95,65 %
19.04.2016 05:55 7,6 C 95 % 1021,9 hPa 0,0 l/m 3,5 km/h (1 Bft) W-SW 257 0 min 0,000 mm 0,0 UV-I 0 W/m 6,9 C 7,6 C 4,8 km/h (1 Bft) 100,00 %
19.04.2016 05:56 7,6 C 95 % 1021,8 hPa 0,0 l/m 3,2 km/h (1 Bft) W-SW 257 0 min 0,000 mm 0,0 UV-I 0 W/m 6,9 C 7,6 C 4,8 km/h (1 Bft) 100,00 %
19.04.2016 05:57 7,6 C 95 % 1021,8 hPa 0,0 l/m 3,6 km/h (1 Bft) W-SW 257 0 min 0,000 mm 0,0 UV-I 0 W/m 6,9 C 7,6 C 4,8 km/h (1 Bft) 100,00 %
19.04.2016 05:58 7,6 C 95 % 1021,9 hPa 0,0 l/m 5,1 km/h (1 Bft) W 263 0 min 0,000 mm 0,0 UV-I 0 W/m 6,9 C 7,6 C 6,4 km/h (2 Bft) 96,55 %
19.04.2016 05:59 7,6 C 95 % 1021,9 hPa 0,0 l/m 4,5 km/h (1 Bft) W-SW 256 0 min 0,000 mm 0,0 UV-I 0 W/m 6,9 C 7,6 C 6,4 km/h (2 Bft) 100,00 %
19.04.2016 06:00 7,6 C 95 % 1021,9 hPa 0,0 l/m 4,9 km/h (1 Bft) W 263 0 min 0,000 mm 0,0 UV-I 0 W/m 6,9 C 7,6 C 6,4 km/h (2 Bft) 100,00 %
19.04.2016 06:01 7,6 C 95 % 1021,9 hPa 0,0 l/m 5,0 km/h (1 Bft) W 263 0 min 0,000 mm 0,0 UV-I 0 W/m 6,9 C 7,6 C 6,4 km/h (2 Bft) 100,00 %
19.04.2016 06:02 7,6 C 95 % 1021,9 hPa 0,0 l/m 4,2 km/h (1 Bft) W 269 0 min 0,000 mm 0,0 UV-I 0 W/m 6,9 C 7,6 C 4,8 km/h (1 Bft) 100,00 %
19.04.2016 06:03 7,7 C 95 % 1021,9 hPa 0,0 l/m 3,0 km/h (1 Bft) W 265 0 min 0,000 mm 0,0 UV-I 0 W/m 7,0 C 7,7 C 4,8 km/h (1 Bft) 100,00 %
19.04.2016 06:04 7,7 C 94 % 1021,9 hPa 0,0 l/m 4,1 km/h (1 Bft) W 261 0 min 0,000 mm 0,0 UV-I 0 W/m 6,8 C 7,7 C 4,8 km/h (1 Bft) 96,30 %
19.04.2016 06:05 7,7 C 94 % 1021,9 hPa 0,0 l/m 3,6 km/h (1 Bft) W 263 0 min 0,000 mm 0,0 UV-I 0 W/m 6,8 C 7,7 C 4,8 km/h (1 Bft) 92,31 %
19.04.2016 06:06 7,7 C 94 % 1021,9 hPa 0,0 l/m 5,7 km/h (1 Bft) W-SW 247 0 min 0,000 mm 0,0 UV-I 0 W/m 6,8 C 7,7 C 6,4 km/h (2 Bft) 100,00 %
19.04.2016 06:07 7,7 C 94 % 1021,9 hPa 0,0 l/m 4,0 km/h (1 Bft) W-SW 246 0 min 0,000 mm 0,0 UV-I 0 W/m 6,8 C 7,7 C 6,4 km/h (2 Bft) 100,00 %
19.04.2016 06:08 7,7 C 95 % 1022,0 hPa 0,0 l/m 4,1 km/h (1 Bft) W 263 0 min 0,000 mm 0,0 UV-I 0 W/m 7,0 C 7,7 C 4,8 km/h (1 Bft) 100,00 %
19.04.2016 06:09 7,7 C 94 % 1021,9 hPa 0,0 l/m 4,1 km/h (1 Bft) W 266 0 min 0,000 mm 0,0 UV-I 0 W/m 6,8 C 7,7 C 4,8 km/h (1 Bft) 100,00 %
19.04.2016 06:10 7,7 C 94 % 1022,0 hPa 0,0 l/m 3,0 km/h (1 Bft) W 266 0 min 0,000 mm 0,0 UV-I 0 W/m 6,8 C 7,7 C 4,8 km/h (1 Bft) 100,00 %
19.04.2016 06:11 7,7 C 94 % 1021,9 hPa 0,0 l/m 3,1 km/h (1 Bft) W 261 0 min 0,000 mm 0,0 UV-I 0 W/m 6,8 C 7,7 C 4,8 km/h (1 Bft) 100,00 %
19.04.2016 06:12 7,7 C 94 % 1022,0 hPa 0,0 l/m 4,5 km/h (1 Bft) W 259 0 min 0,000 mm 0,0 UV-I 0 W/m 6,8 C 7,7 C 4,8 km/h (1 Bft) 96,97 %
19.04.2016 06:13 7,7 C 94 % 1022,0 hPa 0,0 l/m 5,2 km/h (1 Bft) W 262 0 min 0,000 mm 0,0 UV-I 0 W/m 6,8 C 7,7 C 6,4 km/h (2 Bft) 100,00 %
19.04.2016 06:14 7,7 C 94 % 1022,0 hPa 0,0 l/m 5,4 km/h (1 Bft) W 259 0 min 0,000 mm 0,0 UV-I 0 W/m 6,8 C 7,7 C 6,4 km/h (2 Bft) 100,00 %
19.04.2016 06:15 7,7 C 94 % 1022,0 hPa 0,0 l/m 5,2 km/h (1 Bft) W 260 0 min 0,000 mm 0,0 UV-I 0 W/m 6,8 C 7,7 C 6,4 km/h (2 Bft) 100,00 %
19.04.2016 06:16 7,7 C 94 % 1022,0 hPa 0,0 l/m 3,7 km/h (1 Bft) W 260 0 min 0,000 mm 0,0 UV-I 1 W/m 6,8 C 7,7 C 4,8 km/h (1 Bft) 97,37 %
19.04.2016 06:17 7,7 C 94 % 1022,0 hPa 0,0 l/m 3,7 km/h (1 Bft) W 259 0 min 0,000 mm 0,0 UV-I 5 W/m 6,8 C 7,7 C 4,8 km/h (1 Bft) 100,00 %
19.04.2016 06:18 7,7 C 94 % 1022,0 hPa 0,0 l/m 3,6 km/h (1 Bft) W-SW 254 0 min 0,000 mm 0,0 UV-I 5 W/m 6,8 C 7,7 C 4,8 km/h (1 Bft) 95,83 %
19.04.2016 06:19 7,7 C 94 % 1022,0 hPa 0,0 l/m 3,9 km/h (1 Bft) SW 225 0 min 0,000 mm 0,0 UV-I 5 W/m 6,8 C 7,7 C 4,8 km/h (1 Bft) 100,00 %
19.04.2016 06:20 7,7 C 94 % 1022,0 hPa 0,0 l/m 4,3 km/h (1 Bft) W-SW 249 0 min 0,000 mm 0,0 UV-I 7 W/m 6,8 C 7,7 C 6,4 km/h (2 Bft) 100,00 %
19.04.2016 06:21 7,7 C 94 % 1022,0 hPa 0,0 l/m 4,1 km/h (1 Bft) SW 231 0 min 0,000 mm 0,0 UV-I 7 W/m 6,8 C 7,7 C 4,8 km/h (1 Bft) 100,00 %
19.04.2016 06:22 7,6 C 94 % 1022,0 hPa 0,0 l/m 5,1 km/h (1 Bft) SW 230 0 min 0,000 mm 0,0 UV-I 8 W/m 6,7 C 7,6 C 6,4 km/h (2 Bft) 96,55 %
19.04.2016 06:23 7,7 C 94 % 1022,0 hPa 0,0 l/m 4,0 km/h (1 Bft) SW 236 0 min 0,000 mm 0,0 UV-I 9 W/m 6,8 C 7,7 C 4,8 km/h (1 Bft) 100,00 %
19.04.2016 06:24 7,6 C 94 % 1022,0 hPa 0,0 l/m 3,8 km/h (1 Bft) W-SW 238 0 min 0,000 mm 0,0 UV-I 9 W/m 6,7 C 7,6 C 6,4 km/h (2 Bft) 100,00 %
19.04.2016 06:25 7,6 C 95 % 1022,0 hPa 0,0 l/m 4,4 km/h (1 Bft) SW 232 0 min 0,000 mm 0,0 UV-I 9 W/m 6,9 C 7,6 C 4,8 km/h (1 Bft) 100,00 %
19.04.2016 06:26 7,6 C 95 % 1022,0 hPa 0,0 l/m 3,9 km/h (1 Bft) SW 232 0 min 0,000 mm 0,0 UV-I 11 W/m 6,9 C 7,6 C 4,8 km/h (1 Bft) 100,00 %
19.04.2016 06:27 7,6 C 95 % 1022,0 hPa 0,0 l/m 3,6 km/h (1 Bft) SW 232 0 min 0,000 mm 0,0 UV-I 11 W/m 6,9 C 7,6 C 4,8 km/h (1 Bft) 100,00 %
19.04.2016 06:28 7,6 C 95 % 1022,0 hPa 0,0 l/m 2,5 km/h (1 Bft) SW 232 0 min 0,000 mm 0,0 UV-I 11 W/m 6,9 C 7,6 C 4,8 km/h (1 Bft) 95,65 %
19.04.2016 06:29 7,6 C 95 % 1022,0 hPa 0,0 l/m 4,2 km/h (1 Bft) W-SW 242 0 min 0,000 mm 0,0 UV-I 12 W/m 6,9 C 7,6 C 4,8 km/h (1 Bft) 100,00 %
19.04.2016 06:30 7,6 C 95 % 1022,1 hPa 0,0 l/m 4,0 km/h (1 Bft) SW 235 0 min 0,000 mm 0,0 UV-I 12 W/m 6,9 C 7,6 C 4,8 km/h (1 Bft) 100,00 %
19.04.2016 06:31 7,6 C 95 % 1022,1 hPa 0,0 l/m 3,4 km/h (1 Bft) SW 235 0 min 0,000 mm 0,0 UV-I 14 W/m 6,9 C 7,6 C 4,8 km/h (1 Bft) 100,00 %
19.04.2016 06:32 7,6 C 95 % 1022,1 hPa 0,0 l/m 5,0 km/h (1 Bft) W-SW 246 0 min 0,000 mm 0,0 UV-I 14 W/m 6,9 C 7,6 C 6,4 km/h (2 Bft) 100,00 %
19.04.2016 06:33 7,6 C 95 % 1022,1 hPa 0,0 l/m 4,2 km/h (1 Bft) W-SW 243 0 min 0,000 mm 0,0 UV-I 14 W/m 6,9 C 7,6 C 4,8 km/h (1 Bft) 100,00 %
19.04.2016 06:34 7,6 C 95 % 1022,1 hPa 0,0 l/m 3,1 km/h (1 Bft) W-SW 243 0 min 0,000 mm 0,0 UV-I 17 W/m 6,9 C 7,6 C 4,8 km/h (1 Bft) 100,00 %
19.04.2016 06:35 7,6 C 95 % 1022,1 hPa 0,0 l/m 4,0 km/h (1 Bft) W-SW 246 0 min 0,000 mm 0,0 UV-I 18 W/m 6,9 C 7,6 C 4,8 km/h (1 Bft) 100,00 %
19.04.2016 06:36 7,6 C 95 % 1022,1 hPa 0,0 l/m 2,5 km/h (1 Bft) W-SW 246 0 min 0,000 mm 0,0 UV-I 19 W/m 6,9 C 7,6 C 4,8 km/h (1 Bft) 100,00 %
19.04.2016 06:37 7,6 C 95 % 1022,1 hPa 0,0 l/m 4,7 km/h (1 Bft) W-SW 246 0 min 0,000 mm 0,0 UV-I 19 W/m 6,9 C 7,6 C 6,4 km/h (2 Bft) 100,00 %
19.04.2016 06:38 7,6 C 95 % 1022,2 hPa 0,0 l/m 3,8 km/h (1 Bft) W-SW 246 0 min 0,000 mm 0,0 UV-I 21 W/m 6,9 C 7,6 C 4,8 km/h (1 Bft) 100,00 %
19.04.2016 06:39 7,6 C 95 % 1022,1 hPa 0,0 l/m 3,1 km/h (1 Bft) W-SW 243 0 min 0,000 mm 0,0 UV-I 22 W/m 6,9 C 7,6 C 4,8 km/h (1 Bft) 100,00 %
19.04.2016 06:40 7,6 C 95 % 1022,2 hPa 0,0 l/m 2,7 km/h (1 Bft) SW 234 0 min 0,000 mm 0,0 UV-I 23 W/m 6,9 C 7,6 C 4,8 km/h (1 Bft) 100,00 %
19.04.2016 06:41 7,6 C 95 % 1022,2 hPa 0,0 l/m 3,0 km/h (1 Bft) SW 234 0 min 0,000 mm 0,0 UV-I 24 W/m 6,9 C 7,6 C 4,8 km/h (1 Bft) 100,00 %
19.04.2016 06:42 7,6 C 95 % 1022,3 hPa 0,0 l/m 4,0 km/h (1 Bft) W 269 0 min 0,000 mm 0,0 UV-I 25 W/m 6,9 C 7,6 C 6,4 km/h (2 Bft) 100,00 %
19.04.2016 06:43 7,6 C 95 % 1022,3 hPa 0,0 l/m 5,7 km/h (1 Bft) W-SW 248 0 min 0,000 mm 0,0 UV-I 25 W/m 6,9 C 7,6 C 8,0 km/h (2 Bft) 100,00 %
19.04.2016 06:44 7,6 C 95 % 1022,3 hPa 0,0 l/m 4,6 km/h (1 Bft) W 263 0 min 0,000 mm 0,0 UV-I 26 W/m 6,9 C 7,6 C 6,4 km/h (2 Bft) 100,00 %
19.04.2016 06:45 7,6 C 95 % 1022,3 hPa 0,0 l/m 5,6 km/h (1 Bft) W-SW 253 0 min 0,000 mm 0,0 UV-I 26 W/m 6,9 C 7,6 C 8,0 km/h (2 Bft) 100,00 %
19.04.2016 06:46 7,6 C 95 % 1022,3 hPa 0,0 l/m 6,5 km/h (2 Bft) W-SW 254 0 min 0,000 mm 0,0 UV-I 28 W/m 6,9 C 7,5 C 11,3 km/h (2 Bft) 100,00 %
19.04.2016 06:47 7,6 C 95 % 1022,3 hPa 0,0 l/m 5,8 km/h (2 Bft) W-SW 257 0 min 0,000 mm 0,0 UV-I 28 W/m 6,9 C 7,6 C 9,7 km/h (2 Bft) 100,00 %
19.04.2016 06:48 7,6 C 95 % 1022,3 hPa 0,0 l/m 6,1 km/h (2 Bft) W-SW 244 0 min 0,000 mm 0,0 UV-I 28 W/m 6,9 C 7,6 C 8,0 km/h (2 Bft) 95,83 %
19.04.2016 06:49 7,6 C 95 % 1022,4 hPa 0,0 l/m 5,4 km/h (1 Bft) W 267 0 min 0,000 mm 0,0 UV-I 30 W/m 6,9 C 7,6 C 6,4 km/h (2 Bft) 95,65 %
19.04.2016 06:50 7,6 C 95 % 1022,4 hPa 0,0 l/m 4,8 km/h (1 Bft) W-SW 254 0 min 0,000 mm 0,0 UV-I 30 W/m 6,9 C 7,6 C 6,4 km/h (2 Bft) 95,83 %
19.04.2016 06:51 7,6 C 95 % 1022,4 hPa 0,0 l/m 5,8 km/h (2 Bft) SW 234 0 min 0,000 mm 0,0 UV-I 30 W/m 6,9 C 7,6 C 8,0 km/h (2 Bft) 100,00 %
19.04.2016 06:52 7,6 C 95 % 1022,4 hPa 0,0 l/m 4,4 km/h (1 Bft) W-SW 237 0 min 0,000 mm 0,0 UV-I 29 W/m 6,9 C 7,6 C 4,8 km/h (1 Bft) 97,37 %
19.04.2016 06:53 7,6 C 95 % 1022,4 hPa 0,0 l/m 6,0 km/h (2 Bft) W-SW 254 0 min 0,000 mm 0,0 UV-I 28 W/m 6,9 C 7,6 C 9,7 km/h (2 Bft) 96,15 %
19.04.2016 06:54 7,6 C 95 % 1022,4 hPa 0,0 l/m 6,4 km/h (2 Bft) W-SW 242 0 min 0,000 mm 0,0 UV-I 28 W/m 6,9 C 7,6 C 8,0 km/h (2 Bft) 100,00 %
19.04.2016 06:55 7,6 C 95 % 1022,4 hPa 0,0 l/m 6,2 km/h (2 Bft) W-SW 239 0 min 0,000 mm 0,0 UV-I 28 W/m 6,9 C 7,6 C 8,0 km/h (2 Bft) 94,12 %
19.04.2016 06:56 7,6 C 95 % 1022,4 hPa 0,0 l/m 7,8 km/h (2 Bft) W-SW 248 0 min 0,000 mm 0,0 UV-I 28 W/m 6,9 C 6,5 C 9,7 km/h (2 Bft) 100,00 %
19.04.2016 06:57 7,7 C 95 % 1022,4 hPa 0,0 l/m 6,7 km/h (2 Bft) W-SW 240 0 min 0,000 mm 0,0 UV-I 28 W/m 7,0 C 7,5 C 9,7 km/h (2 Bft) 91,67 %
19.04.2016 06:58 7,7 C 95 % 1022,4 hPa 0,0 l/m 5,2 km/h (1 Bft) W-SW 248 0 min 0,000 mm 0,0 UV-I 31 W/m 7,0 C 7,7 C 6,4 km/h (2 Bft) 100,00 %
19.04.2016 06:59 7,7 C 95 % 1022,4 hPa 0,0 l/m 7,0 km/h (2 Bft) W 263 0 min 0,000 mm 0,0 UV-I 32 W/m 7,0 C 7,2 C 9,7 km/h (2 Bft) 95,83 %
19.04.2016 07:00 7,7 C 95 % 1022,4 hPa 0,0 l/m 8,2 km/h (2 Bft) SW 235 0 min 0,000 mm 0,0 UV-I 33 W/m 7,0 C 6,3 C 12,9 km/h (3 Bft) 100,00 %
19.04.2016 07:01 7,7 C 95 % 1022,4 hPa 0,0 l/m 7,3 km/h (2 Bft) W-SW 258 0 min 0,000 mm 0,0 UV-I 33 W/m 7,0 C 7,0 C 11,3 km/h (2 Bft) 96,30 %
19.04.2016 07:02 7,7 C 95 % 1022,4 hPa 0,0 l/m 9,6 km/h (2 Bft) W-SW 251 0 min 0,000 mm 0,0 UV-I 32 W/m 7,0 C 5,3 C 12,9 km/h (3 Bft) 96,15 %
19.04.2016 07:03 7,7 C 95 % 1022,5 hPa 0,0 l/m 5,6 km/h (1 Bft) S-SW 209 0 min 0,000 mm 0,0 UV-I 32 W/m 7,0 C 7,7 C 8,0 km/h (2 Bft) 100,00 %
19.04.2016 07:04 7,7 C 95 % 1022,5 hPa 0,0 l/m 7,2 km/h (2 Bft) W-SW 241 0 min 0,000 mm 0,0 UV-I 33 W/m 7,0 C 7,1 C 12,9 km/h (3 Bft) 96,55 %
19.04.2016 07:05 7,7 C 95 % 1022,5 hPa 0,0 l/m 5,7 km/h (1 Bft) W-SW 243 0 min 0,000 mm 0,0 UV-I 33 W/m 7,0 C 7,7 C 8,0 km/h (2 Bft) 100,00 %
19.04.2016 07:06 7,7 C 95 % 1022,4 hPa 0,0 l/m 4,3 km/h (1 Bft) SW 227 0 min 0,000 mm 0,0 UV-I 33 W/m 7,0 C 7,7 C 6,4 km/h (2 Bft) 95,65 %
19.04.2016 07:07 7,7 C 95 % 1022,6 hPa 0,0 l/m 4,1 km/h (1 Bft) W-SW 240 0 min 0,000 mm 0,0 UV-I 33 W/m 7,0 C 7,7 C 8,0 km/h (2 Bft) 93,33 %
19.04.2016 07:08 7,7 C 95 % 1022,5 hPa 0,0 l/m 10,0 km/h (2 Bft) W-SW 248 0 min 0,000 mm 0,0 UV-I 33 W/m 7,0 C 5,1 C 14,5 km/h (3 Bft) 96,15 %
19.04.2016 07:09 7,7 C 95 % 1022,5 hPa 0,0 l/m 7,2 km/h (2 Bft) W-SW 248 0 min 0,000 mm 0,0 UV-I 33 W/m 7,0 C 7,1 C 11,3 km/h (2 Bft) 96,30 %
19.04.2016 07:10 7,7 C 95 % 1022,5 hPa 0,0 l/m 6,7 km/h (2 Bft) SW 234 0 min 0,000 mm 0,0 UV-I 33 W/m 7,0 C 7,5 C 9,7 km/h (2 Bft) 100,00 %
19.04.2016 07:11 7,7 C 95 % 1022,5 hPa 0,0 l/m 6,0 km/h (2 Bft) W-SW 240 0 min 0,000 mm 0,0 UV-I 33 W/m 7,0 C 7,7 C 8,0 km/h (2 Bft) 100,00 %
19.04.2016 07:12 7,7 C 95 % 1022,5 hPa 0,0 l/m 5,3 km/h (1 Bft) W-SW 243 0 min 0,000 mm 0,0 UV-I 35 W/m 7,0 C 7,7 C 6,4 km/h (2 Bft) 96,77 %
19.04.2016 07:13 7,8 C 95 % 1022,6 hPa 0,0 l/m 5,0 km/h (1 Bft) W-SW 254 0 min 0,000 mm 0,0 UV-I 35 W/m 7,0 C 7,8 C 6,4 km/h (2 Bft) 95,83 %
19.04.2016 07:14 7,8 C 95 % 1022,6 hPa 0,0 l/m 7,4 km/h (2 Bft) W-SW 248 0 min 0,000 mm 0,0 UV-I 35 W/m 7,0 C 7,0 C 9,7 km/h (2 Bft) 100,00 %
19.04.2016 07:15 7,8 C 95 % 1022,6 hPa 0,0 l/m 8,9 km/h (2 Bft) W 271 0 min 0,000 mm 0,0 UV-I 35 W/m 7,0 C 5,9 C 14,5 km/h (3 Bft) 96,15 %
19.04.2016 07:16 7,8 C 95 % 1022,6 hPa 0,0 l/m 8,9 km/h (2 Bft) W-SW 248 0 min 0,000 mm 0,0 UV-I 36 W/m 7,0 C 5,9 C 11,3 km/h (2 Bft) 100,00 %
19.04.2016 07:17 7,8 C 95 % 1022,6 hPa 0,0 l/m 6,4 km/h (2 Bft) W-SW 247 0 min 0,000 mm 0,0 UV-I 38 W/m 7,0 C 7,8 C 8,0 km/h (2 Bft) 95,65 %
19.04.2016 07:18 7,8 C 95 % 1022,6 hPa 0,0 l/m 6,2 km/h (2 Bft) W-SW 250 0 min 0,000 mm 0,0 UV-I 40 W/m 7,0 C 7,8 C 11,3 km/h (2 Bft) 100,00 %
19.04.2016 07:19 7,8 C 95 % 1022,6 hPa 0,0 l/m 7,4 km/h (2 Bft) W-SW 248 0 min 0,000 mm 0,0 UV-I 40 W/m 7,0 C 7,0 C 11,3 km/h (2 Bft) 95,65 %
19.04.2016 07:20 7,8 C 95 % 1022,7 hPa 0,0 l/m 5,5 km/h (1 Bft) W-SW 244 0 min 0,000 mm 0,0 UV-I 42 W/m 7,0 C 7,8 C 9,7 km/h (2 Bft) 100,00 %
19.04.2016 07:21 7,8 C 95 % 1022,7 hPa 0,0 l/m 7,2 km/h (2 Bft) W 259 0 min 0,000 mm 0,0 UV-I 45 W/m 7,0 C 7,2 C 9,7 km/h (2 Bft) 96,55 %
19.04.2016 07:22 7,8 C 95 % 1022,7 hPa 0,0 l/m 6,0 km/h (2 Bft) W-SW 248 0 min 0,000 mm 0,0 UV-I 47 W/m 7,0 C 7,8 C 11,3 km/h (2 Bft) 96,30 %
19.04.2016 07:23 7,8 C 95 % 1022,7 hPa 0,0 l/m 5,4 km/h (1 Bft) W-SW 246 0 min 0,000 mm 0,0 UV-I 48 W/m 7,0 C 7,8 C 6,4 km/h (2 Bft) 96,55 %
19.04.2016 07:24 7,8 C 95 % 1022,7 hPa 0,0 l/m 7,2 km/h (2 Bft) W-SW 239 0 min 0,000 mm 0,0 UV-I 49 W/m 7,0 C 7,2 C 11,3 km/h (2 Bft) 100,00 %
19.04.2016 07:25 7,8 C 95 % 1022,7 hPa 0,0 l/m 6,5 km/h (2 Bft) S-SW 194 0 min 0,000 mm 0,0 UV-I 47 W/m 7,0 C 7,7 C 8,0 km/h (2 Bft) 100,00 %
19.04.2016 07:26 7,8 C 95 % 1022,7 hPa 0,0 l/m 7,5 km/h (2 Bft) SW 214 0 min 0,000 mm 0,0 UV-I 47 W/m 7,0 C 6,9 C 11,3 km/h (2 Bft) 100,00 %
19.04.2016 07:27 7,8 C 95 % 1022,7 hPa 0,0 l/m 6,4 km/h (2 Bft) W-SW 238 0 min 0,000 mm 0,0 UV-I 46 W/m 7,0 C 7,8 C 8,0 km/h (2 Bft) 100,00 %
19.04.2016 07:28 7,9 C 95 % 1022,8 hPa 0,0 l/m 8,4 km/h (2 Bft) W-SW 252 0 min 0,000 mm 0,0 UV-I 47 W/m 7,1 C 6,4 C 11,3 km/h (2 Bft) 100,00 %
19.04.2016 07:29 7,9 C 95 % 1022,8 hPa 0,0 l/m 6,3 km/h (2 Bft) SW 235 0 min 0,000 mm 0,0 UV-I 47 W/m 7,1 C 7,9 C 9,7 km/h (2 Bft) 100,00 %
19.04.2016 07:30 7,9 C 95 % 1022,8 hPa 0,0 l/m 6,3 km/h (2 Bft) W-SW 250 0 min 0,000 mm 0,0 UV-I 47 W/m 7,1 C 7,9 C 8,0 km/h (2 Bft) 100,00 %
19.04.2016 07:31 7,9 C 95 % 1022,8 hPa 0,0 l/m 7,6 km/h (2 Bft) SW 216 0 min 0,000 mm 0,0 UV-I 49 W/m 7,1 C 7,0 C 11,3 km/h (2 Bft) 95,65 %
19.04.2016 07:32 7,9 C 95 % 1022,8 hPa 0,0 l/m 6,4 km/h (2 Bft) W-SW 255 0 min 0,000 mm 0,0 UV-I 52 W/m 7,1 C 7,9 C 8,0 km/h (2 Bft) 95,83 %
19.04.2016 07:33 7,9 C 95 % 1022,8 hPa 0,0 l/m 7,1 km/h (2 Bft) W 265 0 min 0,000 mm 0,0 UV-I 54 W/m 7,1 C 7,3 C 11,3 km/h (2 Bft) 100,00 %
19.04.2016 07:34 7,9 C 95 % 1022,8 hPa 0,0 l/m 6,0 km/h (2 Bft) W-SW 250 0 min 0,000 mm 0,0 UV-I 56 W/m 7,1 C 7,9 C 8,0 km/h (2 Bft) 100,00 %
19.04.2016 07:35 7,9 C 95 % 1022,8 hPa 0,0 l/m 7,6 km/h (2 Bft) W-SW 248 0 min 0,000 mm 0,0 UV-I 58 W/m 7,1 C 7,0 C 12,9 km/h (3 Bft) 100,00 %
19.04.2016 07:36 7,9 C 95 % 1022,8 hPa 0,0 l/m 10,3 km/h (2 Bft) W 265 0 min 0,000 mm 0,0 UV-I 61 W/m 7,1 C 5,1 C 14,5 km/h (3 Bft) 100,00 %
19.04.2016 07:37 7,9 C 95 % 1022,8 hPa 0,0 l/m 8,5 km/h (2 Bft) W-SW 251 0 min 0,000 mm 0,0 UV-I 63 W/m 7,1 C 6,3 C 12,9 km/h (3 Bft) 100,00 %
19.04.2016 07:38 7,9 C 95 % 1022,8 hPa 0,0 l/m 7,5 km/h (2 Bft) W 262 0 min 0,000 mm 0,0 UV-I 64 W/m 7,1 C 7,0 C 14,5 km/h (3 Bft) 96,15 %
19.04.2016 07:39 8,0 C 95 % 1022,9 hPa 0,0 l/m 10,2 km/h (2 Bft) W-SW 244 0 min 0,000 mm 0,0 UV-I 67 W/m 7,2 C 5,3 C 14,5 km/h (3 Bft) 96,15 %
19.04.2016 07:40 8,0 C 95 % 1022,9 hPa 0,0 l/m 15,4 km/h (3 Bft) SW 232 0 min 0,000 mm 0,0 UV-I 70 W/m 7,2 C 2,5 C 17,7 km/h (3 Bft) 93,33 %
19.04.2016 07:41 8,0 C 94 % 1022,8 hPa 0,0 l/m 10,5 km/h (2 Bft) W-SW 245 0 min 0,000 mm 0,0 UV-I 72 W/m 7,1 C 5,1 C 17,7 km/h (3 Bft) 100,00 %
19.04.2016 07:42 8,1 C 94 % 1022,9 hPa 0,0 l/m 10,0 km/h (2 Bft) W-SW 246 0 min 0,000 mm 0,0 UV-I 74 W/m 7,2 C 5,5 C 12,9 km/h (3 Bft) 100,00 %
19.04.2016 07:43 8,1 C 94 % 1022,9 hPa 0,0 l/m 7,7 km/h (2 Bft) W-SW 242 0 min 0,000 mm 0,0 UV-I 76 W/m 7,2 C 7,1 C 12,9 km/h (3 Bft) 100,00 %
19.04.2016 07:44 8,1 C 94 % 1022,9 hPa 0,0 l/m 7,9 km/h (2 Bft) W 263 0 min 0,000 mm 0,0 UV-I 77 W/m 7,2 C 6,9 C 11,3 km/h (2 Bft) 95,65 %
19.04.2016 07:45 8,1 C 94 % 1022,9 hPa 0,0 l/m 6,8 km/h (2 Bft) W 277 0 min 0,000 mm 0,0 UV-I 78 W/m 7,2 C 7,8 C 11,3 km/h (2 Bft) 100,00 %
19.04.2016 07:46 8,1 C 94 % 1022,9 hPa 0,0 l/m 6,4 km/h (2 Bft) W 261 0 min 0,000 mm 0,0 UV-I 80 W/m 7,2 C 8,1 C 9,7 km/h (2 Bft) 100,00 %
19.04.2016 07:47 8,1 C 94 % 1022,9 hPa 0,0 l/m 8,7 km/h (2 Bft) W-SW 252 0 min 0,000 mm 0,0 UV-I 83 W/m 7,2 C 6,4 C 12,9 km/h (3 Bft) 100,00 %
19.04.2016 07:48 8,2 C 94 % 1022,9 hPa 0,0 l/m 7,6 km/h (2 Bft) W 264 0 min 0,000 mm 0,0 UV-I 84 W/m 7,3 C 7,3 C 11,3 km/h (2 Bft) 100,00 %
19.04.2016 07:49 8,1 C 94 % 1023,0 hPa 0,0 l/m 9,3 km/h (2 Bft) W 261 0 min 0,000 mm 0,0 UV-I 84 W/m 7,2 C 5,9 C 12,9 km/h (3 Bft) 96,67 %
19.04.2016 07:50 8,1 C 94 % 1022,9 hPa 0,0 l/m 12,1 km/h (2 Bft) W 265 0 min 0,000 mm 0,0 UV-I 86 W/m 7,2 C 4,3 C 14,5 km/h (3 Bft) 100,00 %
19.04.2016 07:51 8,2 C 94 % 1023,0 hPa 0,0 l/m 14,2 km/h (3 Bft) W-SW 252 0 min 0,000 mm 0,0 UV-I 89 W/m 7,3 C 3,3 C 16,1 km/h (3 Bft) 100,00 %
19.04.2016 07:52 8,2 C 93 % 1023,0 hPa 0,0 l/m 11,9 km/h (2 Bft) W 273 0 min 0,000 mm 0,0 UV-I 91 W/m 7,1 C 4,5 C 14,5 km/h (3 Bft) 96,55 %
19.04.2016 07:53 8,2 C 93 % 1023,0 hPa 0,0 l/m 12,4 km/h (3 Bft) W 264 0 min 0,000 mm 0,0 UV-I 91 W/m 7,1 C 4,2 C 16,1 km/h (3 Bft) 100,00 %
19.04.2016 07:54 8,2 C 93 % 1023,0 hPa 0,0 l/m 10,3 km/h (2 Bft) SW 223 0 min 0,000 mm 0,0 UV-I 93 W/m 7,1 C 5,4 C 16,1 km/h (3 Bft) 100,00 %
19.04.2016 07:55 8,2 C 93 % 1023,0 hPa 0,0 l/m 10,1 km/h (2 Bft) W 266 0 min 0,000 mm 0,0 UV-I 93 W/m 7,1 C 5,5 C 12,9 km/h (3 Bft) 100,00 %
19.04.2016 07:56 8,2 C 93 % 1023,0 hPa 0,0 l/m 8,4 km/h (2 Bft) W-SW 244 0 min 0,000 mm 0,0 UV-I 93 W/m 7,1 C 6,7 C 11,3 km/h (2 Bft) 100,00 %
19.04.2016 07:57 8,2 C 93 % 1023,1 hPa 0,0 l/m 10,0 km/h (2 Bft) W-SW 257 0 min 0,000 mm 0,0 UV-I 93 W/m 7,1 C 5,6 C 14,5 km/h (3 Bft) 100,00 %
19.04.2016 07:58 8,2 C 93 % 1023,1 hPa 0,0 l/m 11,9 km/h (2 Bft) SW 236 0 min 0,000 mm 0,0 UV-I 93 W/m 7,1 C 4,5 C 16,1 km/h (3 Bft) 100,00 %
19.04.2016 07:59 8,2 C 93 % 1023,1 hPa 0,0 l/m 12,4 km/h (3 Bft) W 273 0 min 0,000 mm 0,0 UV-I 93 W/m 7,1 C 4,2 C 16,1 km/h (3 Bft) 100,00 %
19.04.2016 08:00 8,2 C 93 % 1023,1 hPa 0,0 l/m 11,0 km/h (2 Bft) SW 235 0 min 0,000 mm 0,0 UV-I 93 W/m 7,1 C 5,0 C 16,1 km/h (3 Bft) 100,00 %
19.04.2016 08:01 8,2 C 93 % 1023,1 hPa 0,0 l/m 9,0 km/h (2 Bft) S-SW 205 0 min 0,025 mm 0,0 UV-I 96 W/m 7,1 C 6,3 C 14,5 km/h (3 Bft) 100,00 %
19.04.2016 08:02 8,2 C 92 % 1023,1 hPa 0,0 l/m 10,7 km/h (2 Bft) W-SW 242 0 min 0,000 mm 0,0 UV-I 97 W/m 7,0 C 5,2 C 19,3 km/h (3 Bft) 100,00 %
19.04.2016 08:03 8,2 C 92 % 1023,1 hPa 0,0 l/m 11,6 km/h (2 Bft) W-SW 245 0 min 0,000 mm 0,0 UV-I 98 W/m 7,0 C 4,7 C 14,5 km/h (3 Bft) 100,00 %
19.04.2016 08:04 8,2 C 91 % 1023,1 hPa 0,0 l/m 14,0 km/h (3 Bft) W-SW 252 0 min 0,000 mm 0,0 UV-I 99 W/m 6,8 C 3,4 C 16,1 km/h (3 Bft) 100,00 %
19.04.2016 08:05 8,2 C 92 % 1023,1 hPa 0,0 l/m 11,4 km/h (2 Bft) W 261 0 min 0,000 mm 0,0 UV-I 102 W/m 7,0 C 4,8 C 16,1 km/h (3 Bft) 100,00 %
19.04.2016 08:06 8,2 C 91 % 1023,1 hPa 0,0 l/m 9,4 km/h (2 Bft) W 259 0 min 0,000 mm 0,0 UV-I 104 W/m 6,8 C 6,0 C 16,1 km/h (3 Bft) 100,00 %
19.04.2016 08:07 8,2 C 91 % 1023,2 hPa 0,0 l/m 8,3 km/h (2 Bft) SW 230 0 min 0,000 mm 0,0 UV-I 104 W/m 6,8 C 6,7 C 12,9 km/h (3 Bft) 100,00 %
19.04.2016 08:08 8,2 C 92 % 1023,2 hPa 0,0 l/m 7,3 km/h (2 Bft) W-SW 254 0 min 0,000 mm 0,0 UV-I 104 W/m 7,0 C 7,5 C 11,3 km/h (2 Bft) 100,00 %
19.04.2016 08:09 8,2 C 92 % 1023,2 hPa 0,0 l/m 8,0 km/h (2 Bft) W-SW 251 0 min 0,000 mm 0,0 UV-I 105 W/m 7,0 C 7,0 C 11,3 km/h (2 Bft) 100,00 %
19.04.2016 08:10 8,2 C 91 % 1023,2 hPa 0,0 l/m 11,1 km/h (2 Bft) W-SW 248 0 min 0,000 mm 0,0 UV-I 105 W/m 6,8 C 4,9 C 12,9 km/h (3 Bft) 100,00 %
19.04.2016 08:11 8,2 C 91 % 1023,2 hPa 0,0 l/m 9,4 km/h (2 Bft) W 259 0 min 0,000 mm 0,0 UV-I 107 W/m 6,8 C 6,0 C 14,5 km/h (3 Bft) 100,00 %
19.04.2016 08:12 8,3 C 91 % 1023,2 hPa 0,0 l/m 8,0 km/h (2 Bft) W 263 0 min 0,000 mm 0,0 UV-I 107 W/m 6,9 C 7,1 C 11,3 km/h (2 Bft) 100,00 %
19.04.2016 08:13 8,3 C 91 % 1023,2 hPa 0,0 l/m 9,2 km/h (2 Bft) W-SW 258 0 min 0,000 mm 0,0 UV-I 110 W/m 6,9 C 6,2 C 14,5 km/h (3 Bft) 100,00 %
19.04.2016 08:14 8,3 C 91 % 1023,3 hPa 0,0 l/m 12,5 km/h (3 Bft) W-SW 242 0 min 0,000 mm 0,0 UV-I 111 W/m 6,9 C 4,3 C 16,1 km/h (3 Bft) 100,00 %
19.04.2016 08:15 8,3 C 91 % 1023,3 hPa 0,0 l/m 13,3 km/h (3 Bft) W-SW 248 0 min 0,000 mm 0,0 UV-I 113 W/m 6,9 C 3,9 C 16,1 km/h (3 Bft) 95,83 %
19.04.2016 08:16 8,3 C 91 % 1023,3 hPa 0,0 l/m 9,6 km/h (2 Bft) W-SW 248 0 min 0,000 mm 0,0 UV-I 115 W/m 6,9 C 6,0 C 14,5 km/h (3 Bft) 96,15 %
19.04.2016 08:17 8,3 C 91 % 1023,3 hPa 0,0 l/m 9,3 km/h (2 Bft) W-SW 258 0 min 0,000 mm 0,0 UV-I 119 W/m 6,9 C 6,2 C 11,3 km/h (2 Bft) 92,59 %
19.04.2016 08:18 8,3 C 91 % 1023,3 hPa 0,0 l/m 8,9 km/h (2 Bft) W 272 0 min 0,000 mm 0,0 UV-I 122 W/m 6,9 C 6,4 C 12,9 km/h (3 Bft) 100,00 %
19.04.2016 08:19 8,3 C 91 % 1023,3 hPa 0,0 l/m 7,6 km/h (2 Bft) W 271 0 min 0,000 mm 0,0 UV-I 125 W/m 6,9 C 7,4 C 16,1 km/h (3 Bft) 100,00 %
19.04.2016 08:20 8,3 C 90 % 1023,3 hPa 0,0 l/m 10,4 km/h (2 Bft) W 273 0 min 0,000 mm 0,0 UV-I 126 W/m 6,8 C 5,5 C 12,9 km/h (3 Bft) 100,00 %
19.04.2016 08:21 8,3 C 90 % 1023,3 hPa 0,0 l/m 7,0 km/h (2 Bft) W 271 0 min 0,000 mm 0,0 UV-I 128 W/m 6,8 C 7,8 C 11,3 km/h (2 Bft) 100,00 %
19.04.2016 08:22 8,3 C 91 % 1023,4 hPa 0,0 l/m 11,7 km/h (2 Bft) W-SW 246 0 min 0,000 mm 0,0 UV-I 129 W/m 6,9 C 4,7 C 12,9 km/h (3 Bft) 100,00 %
19.04.2016 08:23 8,3 C 91 % 1023,3 hPa 0,0 l/m 10,4 km/h (2 Bft) W-SW 256 0 min 0,000 mm 0,0 UV-I 134 W/m 6,9 C 5,5 C 16,1 km/h (3 Bft) 100,00 %
19.04.2016 08:24 8,4 C 91 % 1023,3 hPa 0,0 l/m 10,1 km/h (2 Bft) W-SW 255 0 min 0,000 mm 0,0 UV-I 137 W/m 7,0 C 5,8 C 14,5 km/h (3 Bft) 100,00 %
19.04.2016 08:25 8,4 C 90 % 1023,3 hPa 0,0 l/m 10,0 km/h (2 Bft) W-SW 241 0 min 0,000 mm 0,0 UV-I 140 W/m 6,9 C 5,8 C 14,5 km/h (3 Bft) 97,78 %
19.04.2016 08:26 8,4 C 90 % 1023,4 hPa 0,0 l/m 11,9 km/h (2 Bft) W-SW 242 0 min 0,000 mm 0,0 UV-I 144 W/m 6,9 C 4,7 C 16,1 km/h (3 Bft) 100,00 %
19.04.2016 08:27 8,4 C 89 % 1023,4 hPa 0,0 l/m 12,1 km/h (2 Bft) SW 234 0 min 0,000 mm 0,0 UV-I 148 W/m 6,7 C 4,6 C 16,1 km/h (3 Bft) 100,00 %
19.04.2016 08:28 8,4 C 89 % 1023,5 hPa 0,0 l/m 7,6 km/h (2 Bft) SW 235 0 min 0,000 mm 0,0 UV-I 152 W/m 6,7 C 7,5 C 9,7 km/h (2 Bft) 96,15 %
19.04.2016 08:29 8,4 C 89 % 1023,5 hPa 0,0 l/m 11,4 km/h (2 Bft) W-SW 258 0 min 0,000 mm 0,0 UV-I 158 W/m 6,7 C 5,0 C 14,5 km/h (3 Bft) 100,00 %
19.04.2016 08:30 8,4 C 89 % 1023,5 hPa 0,0 l/m 10,4 km/h (2 Bft) W-SW 252 0 min 0,000 mm 0,5 UV-I 164 W/m 6,7 C 5,6 C 14,5 km/h (3 Bft) 95,65 %
19.04.2016 08:31 8,4 C 89 % 1023,5 hPa 0,0 l/m 8,8 km/h (2 Bft) W-SW 240 0 min 0,000 mm 0,5 UV-I 172 W/m 6,7 C 6,6 C 14,5 km/h (3 Bft) 98,71 %
19.04.2016 08:32 8,4 C 89 % 1023,5 hPa 0,0 l/m 8,9 km/h (2 Bft) W 264 0 min 0,000 mm 0,5 UV-I 178 W/m 6,7 C 6,5 C 14,5 km/h (3 Bft) 100,00 %
19.04.2016 08:33 8,4 C 89 % 1023,5 hPa 0,0 l/m 16,9 km/h (3 Bft) W-SW 254 0 min 0,000 mm 0,5 UV-I 180 W/m 6,7 C 2,4 C 25,7 km/h (4 Bft) 100,00 %
19.04.2016 08:34 8,4 C 88 % 1023,5 hPa 0,0 l/m 14,4 km/h (3 Bft) W-SW 256 0 min 0,000 mm 0,5 UV-I 187 W/m 6,5 C 3,5 C 17,7 km/h (3 Bft) 100,00 %
19.04.2016 08:35 8,4 C 88 % 1023,5 hPa 0,0 l/m 14,6 km/h (3 Bft) W 262 0 min 0,000 mm 0,5 UV-I 211 W/m 6,5 C 3,4 C 17,7 km/h (3 Bft) 100,00 %
19.04.2016 08:36 8,4 C 88 % 1023,5 hPa 0,0 l/m 13,7 km/h (3 Bft) W 265 0 min 0,000 mm 0,5 UV-I 192 W/m 6,5 C 3,8 C 17,7 km/h (3 Bft) 96,15 %
19.04.2016 08:37 8,4 C 88 % 1023,4 hPa 0,0 l/m 8,6 km/h (2 Bft) W-SW 254 0 min 0,000 mm 0,5 UV-I 193 W/m 6,5 C 6,7 C 12,9 km/h (3 Bft) 100,00 %
19.04.2016 08:38 8,5 C 88 % 1023,4 hPa 0,0 l/m 13,6 km/h (3 Bft) W 259 0 min 0,000 mm 0,5 UV-I 192 W/m 6,6 C 4,0 C 17,7 km/h (3 Bft) 100,00 %
19.04.2016 08:39 8,5 C 88 % 1023,4 hPa 0,0 l/m 7,8 km/h (2 Bft) W-SW 237 0 min 0,000 mm 0,6 UV-I 189 W/m 6,6 C 7,4 C 12,9 km/h (3 Bft) 100,00 %
19.04.2016 08:40 8,5 C 88 % 1023,4 hPa 0,0 l/m 16,3 km/h (3 Bft) W-SW 254 0 min 0,000 mm 0,6 UV-I 186 W/m 6,6 C 2,8 C 22,5 km/h (4 Bft) 100,00 %
19.04.2016 08:41 8,5 C 87 % 1023,4 hPa 0,0 l/m 11,6 km/h (2 Bft) W-SW 253 0 min 0,000 mm 0,6 UV-I 186 W/m 6,5 C 5,0 C 16,1 km/h (3 Bft) 100,00 %
19.04.2016 08:42 8,5 C 88 % 1023,4 hPa 0,0 l/m 9,8 km/h (2 Bft) W-SW 250 0 min 0,000 mm 0,6 UV-I 188 W/m 6,6 C 6,1 C 14,5 km/h (3 Bft) 95,83 %
19.04.2016 08:43 8,5 C 87 % 1023,5 hPa 0,0 l/m 10,3 km/h (2 Bft) W 259 0 min 0,000 mm 0,6 UV-I 185 W/m 6,5 C 5,8 C 16,1 km/h (3 Bft) 100,00 %
19.04.2016 08:44 8,6 C 87 % 1023,5 hPa 0,0 l/m 9,8 km/h (2 Bft) SW 232 0 min 0,000 mm 0,6 UV-I 182 W/m 6,6 C 6,2 C 14,5 km/h (3 Bft) 100,00 %
19.04.2016 08:45 8,6 C 87 % 1023,5 hPa 0,0 l/m 6,4 km/h (2 Bft) SW 221 0 min 0,000 mm 0,6 UV-I 180 W/m 6,6 C 8,6 C 11,3 km/h (2 Bft) 100,00 %
19.04.2016 08:46 8,6 C 88 % 1023,5 hPa 0,0 l/m 12,1 km/h (2 Bft) W 265 0 min 0,000 mm 0,6 UV-I 182 W/m 6,7 C 4,8 C 17,7 km/h (3 Bft) 100,00 %
19.04.2016 08:47 8,6 C 87 % 1023,6 hPa 0,0 l/m 12,6 km/h (3 Bft) W-SW 242 0 min 0,000 mm 0,6 UV-I 186 W/m 6,6 C 4,6 C 16,1 km/h (3 Bft) 100,00 %
19.04.2016 08:48 8,6 C 88 % 1023,6 hPa 0,0 l/m 12,2 km/h (2 Bft) W 263 0 min 0,000 mm 0,6 UV-I 194 W/m 6,7 C 4,8 C 16,1 km/h (3 Bft) 100,00 %
19.04.2016 08:49 8,7 C 87 % 1023,5 hPa 0,0 l/m 10,1 km/h (2 Bft) W 265 0 min 0,000 mm 0,6 UV-I 198 W/m 6,7 C 6,1 C 14,5 km/h (3 Bft) 100,00 %
19.04.2016 08:50 8,7 C 87 % 1023,6 hPa 0,0 l/m 12,1 km/h (2 Bft) W-SW 242 0 min 0,000 mm 0,6 UV-I 200 W/m 6,7 C 5,0 C 16,1 km/h (3 Bft) 92,59 %
19.04.2016 08:51 8,7 C 87 % 1023,6 hPa 0,0 l/m 8,3 km/h (2 Bft) W 278 0 min 0,000 mm 0,6 UV-I 203 W/m 6,7 C 7,3 C 11,3 km/h (2 Bft) 100,00 %
19.04.2016 08:52 8,7 C 87 % 1023,6 hPa 0,0 l/m 10,1 km/h (2 Bft) W-NW 294 0 min 0,000 mm 0,6 UV-I 206 W/m 6,7 C 6,1 C 19,3 km/h (3 Bft) 93,33 %
19.04.2016 08:53 8,7 C 86 % 1023,6 hPa 0,0 l/m 9,7 km/h (2 Bft) W-NW 296 0 min 0,000 mm 0,6 UV-I 206 W/m 6,5 C 6,3 C 11,3 km/h (2 Bft) 100,00 %
19.04.2016 08:54 8,7 C 87 % 1023,6 hPa 0,0 l/m 5,2 km/h (1 Bft) W-SW 257 0 min 0,000 mm 0,6 UV-I 206 W/m 6,7 C 8,7 C 8,0 km/h (2 Bft) 96,30 %
19.04.2016 08:55 8,8 C 86 % 1023,6 hPa 0,0 l/m 9,7 km/h (2 Bft) W 264 0 min 0,000 mm 0,6 UV-I 208 W/m 6,6 C 6,5 C 12,9 km/h (3 Bft) 91,30 %
19.04.2016 08:56 8,8 C 86 % 1023,6 hPa 0,0 l/m 9,3 km/h (2 Bft) W 280 0 min 0,000 mm 0,6 UV-I 211 W/m 6,6 C 6,7 C 14,5 km/h (3 Bft) 100,00 %
19.04.2016 08:57 8,8 C 86 % 1023,6 hPa 0,0 l/m 15,9 km/h (3 Bft) W-SW 253 0 min 0,000 mm 0,7 UV-I 213 W/m 6,6 C 3,3 C 20,9 km/h (4 Bft) 95,65 %
19.04.2016 08:58 8,8 C 86 % 1023,6 hPa 0,0 l/m 9,1 km/h (2 Bft) W-NW 293 0 min 0,000 mm 0,7 UV-I 210 W/m 6,6 C 6,8 C 14,5 km/h (3 Bft) 100,00 %
19.04.2016 08:59 8,8 C 86 % 1023,6 hPa 0,0 l/m 9,0 km/h (2 Bft) W-SW 248 0 min 0,000 mm 0,7 UV-I 207 W/m 6,6 C 6,9 C 14,5 km/h (3 Bft) 96,30 %
19.04.2016 09:00 8,8 C 86 % 1023,6 hPa 0,0 l/m 11,5 km/h (2 Bft) W 259 0 min 0,077 mm 0,7 UV-I 210 W/m 6,6 C 5,4 C 16,1 km/h (3 Bft) 95,65 %
19.04.2016 09:01 8,8 C 86 % 1023,6 hPa 0,0 l/m 10,9 km/h (2 Bft) W 264 0 min 0,000 mm 0,7 UV-I 217 W/m 6,6 C 5,7 C 16,1 km/h (3 Bft) 100,00 %
19.04.2016 09:02 8,8 C 86 % 1023,6 hPa 0,0 l/m 7,3 km/h (2 Bft) W 275 0 min 0,000 mm 0,7 UV-I 227 W/m 6,6 C 8,1 C 12,9 km/h (3 Bft) 95,65 %
19.04.2016 09:03 8,9 C 86 % 1023,6 hPa 0,0 l/m 9,7 km/h (2 Bft) S-SW 196 0 min 0,000 mm 0,8 UV-I 240 W/m 6,7 C 6,6 C 14,5 km/h (3 Bft) 95,83 %
19.04.2016 09:04 8,9 C 85 % 1023,6 hPa 0,0 l/m 11,4 km/h (2 Bft) W 276 0 min 0,000 mm 0,8 UV-I 250 W/m 6,5 C 5,6 C 14,5 km/h (3 Bft) 94,12 %
19.04.2016 09:05 8,9 C 85 % 1023,7 hPa 0,0 l/m 6,7 km/h (2 Bft) W-SW 243 1 min 0,000 mm 0,8 UV-I 265 W/m 6,5 C 8,7 C 11,3 km/h (2 Bft) 100,00 %
19.04.2016 09:06 8,9 C 84 % 1023,7 hPa 0,0 l/m 10,4 km/h (2 Bft) W-SW 246 1 min 0,000 mm 0,8 UV-I 280 W/m 6,3 C 6,1 C 16,1 km/h (3 Bft) 92,86 %
19.04.2016 09:07 8,9 C 83 % 1023,7 hPa 0,0 l/m 10,9 km/h (2 Bft) W 263 1 min 0,000 mm 0,8 UV-I 272 W/m 6,2 C 5,9 C 16,1 km/h (3 Bft) 100,00 %
19.04.2016 09:08 8,9 C 83 % 1023,7 hPa 0,0 l/m 11,7 km/h (2 Bft) W-SW 237 0 min 0,000 mm 0,8 UV-I 263 W/m 6,2 C 5,4 C 14,5 km/h (3 Bft) 96,15 %
19.04.2016 09:09 8,9 C 83 % 1023,7 hPa 0,0 l/m 13,1 km/h (3 Bft) W-SW 257 0 min 0,000 mm 0,8 UV-I 258 W/m 6,2 C 4,7 C 19,3 km/h (3 Bft) 95,83 %
19.04.2016 09:10 8,9 C 83 % 1023,7 hPa 0,0 l/m 15,7 km/h (3 Bft) W-NW 286 0 min 0,000 mm 0,8 UV-I 257 W/m 6,2 C 3,5 C 17,7 km/h (3 Bft) 96,15 %
19.04.2016 09:11 9,0 C 84 % 1023,7 hPa 0,0 l/m 12,3 km/h (3 Bft) W 270 0 min 0,000 mm 0,8 UV-I 258 W/m 6,4 C 5,2 C 14,5 km/h (3 Bft) 95,83 %
19.04.2016 09:12 9,0 C 84 % 1023,7 hPa 0,0 l/m 13,7 km/h (3 Bft) W-NW 282 0 min 0,000 mm 0,9 UV-I 265 W/m 6,4 C 4,5 C 19,3 km/h (3 Bft) 100,00 %
19.04.2016 09:13 9,1 C 83 % 1023,7 hPa 0,0 l/m 10,4 km/h (2 Bft) W 260 0 min 0,000 mm 0,9 UV-I 272 W/m 6,4 C 6,4 C 17,7 km/h (3 Bft) 96,15 %
19.04.2016 09:14 9,1 C 84 % 1023,7 hPa 0,0 l/m 11,9 km/h (2 Bft) W-NW 293 1 min 0,000 mm 0,9 UV-I 278 W/m 6,5 C 5,5 C 16,1 km/h (3 Bft) 100,00 %
19.04.2016 09:15 9,1 C 85 % 1023,7 hPa 0,0 l/m 9,6 km/h (2 Bft) W 261 1 min 0,000 mm 0,9 UV-I 282 W/m 6,7 C 6,8 C 16,1 km/h (3 Bft) 92,31 %
19.04.2016 09:16 9,2 C 84 % 1023,7 hPa 0,0 l/m 15,3 km/h (3 Bft) W-SW 257 1 min 0,000 mm 0,9 UV-I 292 W/m 6,6 C 4,0 C 17,7 km/h (3 Bft) 100,00 %
19.04.2016 09:17 9,2 C 84 % 1023,7 hPa 0,0 l/m 11,3 km/h (2 Bft) W-SW 241 1 min 0,000 mm 0,9 UV-I 285 W/m 6,6 C 6,0 C 14,5 km/h (3 Bft) 92,86 %
19.04.2016 09:18 9,2 C 83 % 1023,7 hPa 0,0 l/m 13,9 km/h (3 Bft) W-SW 256 1 min 0,000 mm 1,0 UV-I 300 W/m 6,5 C 4,7 C 17,7 km/h (3 Bft) 96,67 %
19.04.2016 09:19 9,2 C 84 % 1023,7 hPa 0,0 l/m 13,2 km/h (3 Bft) W-SW 249 1 min 0,000 mm 0,9 UV-I 299 W/m 6,6 C 5,0 C 16,1 km/h (3 Bft) 96,15 %
19.04.2016 09:20 9,2 C 83 % 1023,7 hPa 0,0 l/m 11,9 km/h (2 Bft) W-SW 254 1 min 0,000 mm 1,0 UV-I 295 W/m 6,5 C 5,6 C 16,1 km/h (3 Bft) 100,00 %
19.04.2016 09:21 9,2 C 82 % 1023,7 hPa 0,0 l/m 9,0 km/h (2 Bft) W 259 1 min 0,000 mm 1,0 UV-I 296 W/m 6,3 C 7,3 C 12,9 km/h (3 Bft) 92,31 %
19.04.2016 09:22 9,2 C 83 % 1023,7 hPa 0,0 l/m 7,2 km/h (2 Bft) W-SW 246 1 min 0,000 mm 1,0 UV-I 315 W/m 6,5 C 8,6 C 12,9 km/h (3 Bft) 96,30 %
19.04.2016 09:23 9,3 C 84 % 1023,7 hPa 0,0 l/m 10,4 km/h (2 Bft) W-SW 246 1 min 0,000 mm 1,0 UV-I 294 W/m 6,7 C 6,6 C 14,5 km/h (3 Bft) 100,00 %
19.04.2016 09:24 9,3 C 83 % 1023,7 hPa 0,0 l/m 11,3 km/h (2 Bft) S-SW 213 1 min 0,000 mm 1,0 UV-I 294 W/m 6,6 C 6,1 C 16,1 km/h (3 Bft) 100,00 %
19.04.2016 09:25 9,3 C 84 % 1023,7 hPa 0,0 l/m 8,5 km/h (2 Bft) W-SW 242 1 min 0,000 mm 1,2 UV-I 294 W/m 6,7 C 7,8 C 12,9 km/h (3 Bft) 100,00 %
19.04.2016 09:26 9,3 C 83 % 1023,7 hPa 0,0 l/m 10,4 km/h (2 Bft) W 279 1 min 0,000 mm 1,1 UV-I 296 W/m 6,6 C 6,6 C 16,1 km/h (3 Bft) 100,00 %
19.04.2016 09:27 9,3 C 82 % 1023,7 hPa 0,0 l/m 9,7 km/h (2 Bft) SW 217 1 min 0,000 mm 1,1 UV-I 340 W/m 6,4 C 7,0 C 16,1 km/h (3 Bft) 95,65 %
19.04.2016 09:28 9,4 C 83 % 1023,7 hPa 0,0 l/m 9,1 km/h (2 Bft) W 275 0 min 0,000 mm 1,1 UV-I 290 W/m 6,7 C 7,5 C 16,1 km/h (3 Bft) 95,83 %
19.04.2016 09:29 9,4 C 83 % 1023,7 hPa 0,0 l/m 7,2 km/h (2 Bft) W 269 0 min 0,000 mm 1,1 UV-I 292 W/m 6,7 C 8,8 C 11,3 km/h (2 Bft) 100,00 %
19.04.2016 09:30 9,4 C 84 % 1023,7 hPa 0,0 l/m 4,5 km/h (1 Bft) NW 304 1 min 0,000 mm 1,1 UV-I 307 W/m 6,8 C 9,4 C 6,4 km/h (2 Bft) 100,00 %
19.04.2016 09:31 9,5 C 83 % 1023,7 hPa 0,0 l/m 9,2 km/h (2 Bft) W-SW 248 1 min 0,000 mm 1,2 UV-I 340 W/m 6,8 C 7,5 C 16,1 km/h (3 Bft) 100,00 %
19.04.2016 09:32 9,6 C 82 % 1023,7 hPa 0,0 l/m 9,9 km/h (2 Bft) SW 231 1 min 0,000 mm 1,2 UV-I 373 W/m 6,7 C 7,2 C 12,9 km/h (3 Bft) 100,00 %
19.04.2016 09:33 9,6 C 82 % 1023,7 hPa 0,0 l/m 10,9 km/h (2 Bft) W 259 1 min 0,000 mm 1,2 UV-I 333 W/m 6,7 C 6,6 C 14,5 km/h (3 Bft) 96,15 %
19.04.2016 09:34 9,6 C 83 % 1023,7 hPa 0,0 l/m 11,5 km/h (2 Bft) W-SW 252 1 min 0,000 mm 1,2 UV-I 336 W/m 6,9 C 6,3 C 16,1 km/h (3 Bft) 100,00 %
19.04.2016 09:35 9,7 C 82 % 1023,7 hPa 0,0 l/m 5,6 km/h (1 Bft) W 268 1 min 0,000 mm 1,5 UV-I 355 W/m 6,8 C 9,7 C 8,0 km/h (2 Bft) 100,00 %
19.04.2016 09:36 9,7 C 82 % 1023,7 hPa 0,0 l/m 7,7 km/h (2 Bft) SW 229 1 min 0,000 mm 1,3 UV-I 370 W/m 6,8 C 8,7 C 11,3 km/h (2 Bft) 97,73 %
19.04.2016 09:37 9,8 C 83 % 1023,7 hPa 0,0 l/m 5,5 km/h (1 Bft) W-SW 254 1 min 0,000 mm 1,4 UV-I 346 W/m 7,1 C 9,8 C 8,0 km/h (2 Bft) 100,00 %
19.04.2016 09:38 9,8 C 84 % 1023,7 hPa 0,0 l/m 6,2 km/h (2 Bft) W-SW 244 1 min 0,000 mm 1,4 UV-I 346 W/m 7,2 C 9,8 C 9,7 km/h (2 Bft) 100,00 %
19.04.2016 09:39 9,9 C 82 % 1023,7 hPa 0,0 l/m 5,5 km/h (1 Bft) W 280 1 min 0,000 mm 1,6 UV-I 346 W/m 7,0 C 9,9 C 9,7 km/h (2 Bft) 100,00 %
19.04.2016 09:40 10,0 C 81 % 1023,7 hPa 0,0 l/m 6,2 km/h (2 Bft) W-SW 254 1 min 0,000 mm 1,4 UV-I 346 W/m 6,9 C 10,0 C 9,7 km/h (2 Bft) 100,00 %
19.04.2016 09:41 10,1 C 80 % 1023,7 hPa 0,0 l/m 5,5 km/h (1 Bft) W-NW 298 1 min 0,000 mm 1,6 UV-I 383 W/m 6,8 C 10,1 C 8,0 km/h (2 Bft) 100,00 %
19.04.2016 09:42 10,2 C 81 % 1023,7 hPa 0,0 l/m 5,3 km/h (1 Bft) W-SW 258 1 min 0,000 mm 1,4 UV-I 429 W/m 7,1 C 10,2 C 8,0 km/h (2 Bft) 100,00 %
19.04.2016 09:43 10,2 C 78 % 1023,7 hPa 0,0 l/m 7,0 km/h (2 Bft) W-SW 246 1 min 0,000 mm 1,6 UV-I 374 W/m 6,5 C 9,8 C 11,3 km/h (2 Bft) 95,83 %
19.04.2016 09:44 10,2 C 80 % 1023,6 hPa 0,0 l/m 10,3 km/h (2 Bft) W 274 1 min 0,000 mm 1,8 UV-I 607 W/m 6,9 C 7,6 C 17,7 km/h (3 Bft) 100,00 %
19.04.2016 09:45 10,3 C 78 % 1023,7 hPa 0,0 l/m 9,7 km/h (2 Bft) SW 231 1 min 0,000 mm 1,8 UV-I 719 W/m 6,6 C 8,1 C 12,9 km/h (3 Bft) 100,00 %
19.04.2016 09:46 10,4 C 80 % 1023,6 hPa 0,0 l/m 9,6 km/h (2 Bft) W 269 1 min 0,000 mm 1,7 UV-I 647 W/m 7,1 C 8,3 C 12,9 km/h (3 Bft) 100,00 %
19.04.2016 09:47 10,5 C 80 % 1023,7 hPa 0,0 l/m 6,9 km/h (2 Bft) W 275 1 min 0,000 mm 1,7 UV-I 637 W/m 7,2 C 10,2 C 11,3 km/h (2 Bft) 100,00 %
19.04.2016 09:48 10,6 C 78 % 1023,7 hPa 0,0 l/m 6,8 km/h (2 Bft) W-SW 252 1 min 0,000 mm 1,8 UV-I 681 W/m 6,9 C 10,3 C 9,7 km/h (2 Bft) 100,00 %
19.04.2016 09:49 10,6 C 76 % 1023,6 hPa 0,0 l/m 7,4 km/h (2 Bft) W-NW 289 1 min 0,000 mm 1,8 UV-I 670 W/m 6,5 C 9,9 C 11,3 km/h (2 Bft) 100,00 %
19.04.2016 09:50 10,6 C 75 % 1023,7 hPa 0,0 l/m 6,7 km/h (2 Bft) W 269 1 min 0,000 mm 1,8 UV-I 659 W/m 6,4 C 10,4 C 11,3 km/h (2 Bft) 100,00 %
19.04.2016 09:51 10,6 C 76 % 1023,6 hPa 0,0 l/m 8,8 km/h (2 Bft) NW 304 1 min 0,000 mm 1,9 UV-I 660 W/m 6,5 C 9,0 C 11,3 km/h (2 Bft) 100,00 %
19.04.2016 09:52 10,6 C 75 % 1023,6 hPa 0,0 l/m 5,6 km/h (1 Bft) W-SW 250 1 min 0,000 mm 1,9 UV-I 676 W/m 6,4 C 10,6 C 8,0 km/h (2 Bft) 100,00 %
19.04.2016 09:53 10,6 C 74 % 1023,6 hPa 0,0 l/m 8,6 km/h (2 Bft) W-SW 240 1 min 0,000 mm 1,9 UV-I 667 W/m 6,2 C 9,1 C 11,3 km/h (2 Bft) 100,00 %
19.04.2016 09:54 10,6 C 75 % 1023,6 hPa 0,0 l/m 10,9 km/h (2 Bft) W-NW 296 1 min 0,000 mm 1,9 UV-I 666 W/m 6,4 C 7,8 C 12,9 km/h (3 Bft) 100,00 %
19.04.2016 09:55 10,7 C 75 % 1023,6 hPa 0,0 l/m 6,6 km/h (2 Bft) W 279 1 min 0,000 mm 1,9 UV-I 666 W/m 6,5 C 10,6 C 11,3 km/h (2 Bft) 100,00 %
19.04.2016 09:56 10,7 C 77 % 1023,6 hPa 0,0 l/m 5,8 km/h (2 Bft) W-NW 284 1 min 0,000 mm 1,9 UV-I 648 W/m 6,8 C 10,7 C 12,9 km/h (3 Bft) 100,00 %
19.04.2016 09:57 10,8 C 74 % 1023,6 hPa 0,0 l/m 11,1 km/h (2 Bft) SW 224 1 min 0,000 mm 2,0 UV-I 648 W/m 6,4 C 7,9 C 16,1 km/h (3 Bft) 100,00 %
19.04.2016 09:58 10,7 C 72 % 1023,6 hPa 0,0 l/m 6,2 km/h (2 Bft) W-NW 301 1 min 0,000 mm 1,8 UV-I 649 W/m 5,9 C 10,7 C 11,3 km/h (2 Bft) 100,00 %
19.04.2016 09:59 10,7 C 74 % 1023,6 hPa 0,0 l/m 6,2 km/h (2 Bft) W 263 1 min 0,000 mm 1,6 UV-I 649 W/m 6,3 C 10,7 C 12,9 km/h (3 Bft) 100,00 %
19.04.2016 10:00 10,7 C 73 % 1023,6 hPa 0,0 l/m 2,5 km/h (1 Bft) W-SW 244 1 min 0,000 mm 2,0 UV-I 649 W/m 6,1 C 10,7 C 4,8 km/h (1 Bft) 100,00 %
19.04.2016 10:01 10,7 C 74 % 1023,6 hPa 0,0 l/m 5,6 km/h (1 Bft) W-SW 254 1 min 0,203 mm 2,0 UV-I 615 W/m 6,3 C 10,7 C 8,0 km/h (2 Bft) 100,00 %
19.04.2016 10:02 10,6 C 73 % 1023,6 hPa 0,0 l/m 14,6 km/h (3 Bft) W 267 1 min 0,000 mm 1,9 UV-I 592 W/m 6,0 C 6,0 C 17,7 km/h (3 Bft) 100,00 %
19.04.2016 10:03 10,6 C 72 % 1023,6 hPa 0,0 l/m 12,7 km/h (3 Bft) SW 220 1 min 0,000 mm 2,0 UV-I 611 W/m 5,8 C 6,9 C 16,1 km/h (3 Bft) 100,00 %
19.04.2016 10:04 10,6 C 72 % 1023,6 hPa 0,0 l/m 11,8 km/h (2 Bft) SW 230 1 min 0,000 mm 2,1 UV-I 605 W/m 5,8 C 7,3 C 16,1 km/h (3 Bft) 100,00 %
19.04.2016 10:05 10,6 C 74 % 1023,6 hPa 0,0 l/m 9,6 km/h (2 Bft) S-SW 209 1 min 0,000 mm 2,0 UV-I 593 W/m 6,2 C 8,5 C 11,3 km/h (2 Bft) 100,00 %
19.04.2016 10:06 10,6 C 73 % 1023,6 hPa 0,0 l/m 8,6 km/h (2 Bft) SW 224 1 min 0,000 mm 2,1 UV-I 599 W/m 6,0 C 9,1 C 9,7 km/h (2 Bft) 100,00 %
19.04.2016 10:07 10,6 C 74 % 1023,6 hPa 0,0 l/m 7,8 km/h (2 Bft) SW 234 1 min 0,000 mm 2,1 UV-I 600 W/m 6,2 C 9,6 C 11,3 km/h (2 Bft) 96,15 %
19.04.2016 10:08 10,7 C 75 % 1023,6 hPa 0,0 l/m 4,9 km/h (1 Bft) W 275 1 min 0,000 mm 2,2 UV-I 602 W/m 6,5 C 10,7 C 6,4 km/h (2 Bft) 100,00 %
19.04.2016 10:09 10,8 C 75 % 1023,6 hPa 0,0 l/m 4,9 km/h (1 Bft) SW 216 1 min 0,000 mm 2,2 UV-I 607 W/m 6,5 C 10,8 C 6,4 km/h (2 Bft) 100,00 %
19.04.2016 10:10 10,9 C 74 % 1023,6 hPa 0,0 l/m 9,6 km/h (2 Bft) W-SW 256 1 min 0,000 mm 2,2 UV-I 603 W/m 6,5 C 8,8 C 12,9 km/h (3 Bft) 100,00 %
19.04.2016 10:11 10,9 C 71 % 1023,6 hPa 0,0 l/m 5,5 km/h (1 Bft) W-NW 292 1 min 0,000 mm 2,2 UV-I 600 W/m 5,9 C 10,9 C 9,7 km/h (2 Bft) 100,00 %
19.04.2016 10:12 10,9 C 72 % 1023,6 hPa 0,0 l/m 4,8 km/h (1 Bft) W-NW 286 1 min 0,000 mm 2,2 UV-I 604 W/m 6,1 C 10,9 C 11,3 km/h (2 Bft) 95,83 %
19.04.2016 10:13 11,1 C 72 % 1023,6 hPa 0,0 l/m 7,7 km/h (2 Bft) W-NW 292 1 min 0,000 mm 2,3 UV-I 607 W/m 6,2 C 10,2 C 11,3 km/h (2 Bft) 100,00 %
19.04.2016 10:14 11,1 C 67 % 1023,6 hPa 0,0 l/m 4,0 km/h (1 Bft) W 261 1 min 0,000 mm 2,3 UV-I 611 W/m 5,2 C 11,1 C 8,0 km/h (2 Bft) 100,00 %
19.04.2016 10:15 11,2 C 70 % 1023,6 hPa 0,0 l/m 11,3 km/h (2 Bft) W 264 1 min 0,000 mm 2,3 UV-I 612 W/m 5,9 C 8,2 C 16,1 km/h (3 Bft) 100,00 %
19.04.2016 10:16 11,2 C 64 % 1023,6 hPa 0,0 l/m 7,0 km/h (2 Bft) N-NW 335 1 min 0,000 mm 2,3 UV-I 612 W/m 4,6 C 10,8 C 12,9 km/h (3 Bft) 100,00 %
19.04.2016 10:17 11,2 C 67 % 1023,6 hPa 0,0 l/m 5,6 km/h (1 Bft) SW 234 1 min 0,000 mm 2,3 UV-I 616 W/m 5,3 C 11,2 C 6,4 km/h (2 Bft) 100,00 %
19.04.2016 10:18 11,2 C 65 % 1023,6 hPa 0,0 l/m 8,4 km/h (2 Bft) W-NW 298 1 min 0,000 mm 2,3 UV-I 617 W/m 4,9 C 9,9 C 12,9 km/h (3 Bft) 100,00 %
19.04.2016 10:19 11,2 C 63 % 1023,6 hPa 0,0 l/m 3,5 km/h (1 Bft) W 260 1 min 0,000 mm 2,4 UV-I 623 W/m 4,4 C 11,2 C 9,7 km/h (2 Bft) 100,00 %
19.04.2016 10:20 11,2 C 63 % 1023,6 hPa 0,0 l/m 6,6 km/h (2 Bft) W 269 1 min 0,000 mm 2,4 UV-I 622 W/m 4,4 C 11,1 C 9,7 km/h (2 Bft) 100,00 %
19.04.2016 10:21 11,2 C 61 % 1023,6 hPa 0,0 l/m 6,2 km/h (2 Bft) W-SW 243 1 min 0,000 mm 2,4 UV-I 624 W/m 4,0 C 11,2 C 8,0 km/h (2 Bft) 100,00 %
19.04.2016 10:22 11,2 C 60 % 1023,5 hPa 0,0 l/m 4,8 km/h (1 Bft) W 281 1 min 0,000 mm 2,4 UV-I 622 W/m 3,7 C 11,2 C 6,4 km/h (2 Bft) 100,00 %
19.04.2016 10:23 11,2 C 63 % 1023,5 hPa 0,0 l/m 12,0 km/h (2 Bft) SW 226 1 min 0,000 mm 2,5 UV-I 622 W/m 4,4 C 7,9 C 17,7 km/h (3 Bft) 100,00 %
19.04.2016 10:24 11,2 C 64 % 1023,5 hPa 0,0 l/m 14,3 km/h (3 Bft) W-SW 253 1 min 0,000 mm 2,5 UV-I 630 W/m 4,6 C 6,9 C 20,9 km/h (4 Bft) 100,00 %
19.04.2016 10:25 11,2 C 62 % 1023,5 hPa 0,0 l/m 14,0 km/h (3 Bft) W 262 1 min 0,000 mm 2,5 UV-I 629 W/m 4,2 C 7,0 C 17,7 km/h (3 Bft) 100,00 %
19.04.2016 10:26 11,2 C 61 % 1023,6 hPa 0,0 l/m 10,3 km/h (2 Bft) W 269 1 min 0,000 mm 2,5 UV-I 628 W/m 4,0 C 8,8 C 19,3 km/h (3 Bft) 100,00 %
19.04.2016 10:27 11,2 C 60 % 1023,6 hPa 0,0 l/m 14,1 km/h (3 Bft) W-SW 254 1 min 0,000 mm 2,5 UV-I 630 W/m 3,7 C 7,0 C 22,5 km/h (4 Bft) 100,00 %
19.04.2016 10:28 11,2 C 62 % 1023,6 hPa 0,0 l/m 3,2 km/h (1 Bft) W-NW 286 1 min 0,000 mm 2,6 UV-I 639 W/m 4,2 C 11,2 C 6,4 km/h (2 Bft) 100,00 %
19.04.2016 10:29 11,2 C 64 % 1023,6 hPa 0,0 l/m 12,2 km/h (2 Bft) SW 225 1 min 0,000 mm 2,5 UV-I 637 W/m 4,6 C 7,8 C 19,3 km/h (3 Bft) 100,00 %
19.04.2016 10:30 11,2 C 63 % 1023,6 hPa 0,0 l/m 8,8 km/h (2 Bft) NW 322 1 min 0,000 mm 2,6 UV-I 633 W/m 4,4 C 9,6 C 14,5 km/h (3 Bft) 100,00 %
19.04.2016 10:31 11,2 C 62 % 1023,5 hPa 0,0 l/m 5,6 km/h (1 Bft) N-NW 347 1 min 0,000 mm 2,5 UV-I 637 W/m 4,2 C 11,2 C 12,9 km/h (3 Bft) 100,00 %
19.04.2016 10:32 11,3 C 62 % 1023,6 hPa 0,0 l/m 2,9 km/h (1 Bft) SW 225 1 min 0,000 mm 2,6 UV-I 643 W/m 4,3 C 11,3 C 6,4 km/h (2 Bft) 100,00 %
19.04.2016 10:33 11,3 C 64 % 1023,6 hPa 0,0 l/m 6,9 km/h (2 Bft) W 267 1 min 0,000 mm 2,6 UV-I 651 W/m 4,7 C 11,0 C 12,9 km/h (3 Bft) 100,00 %
19.04.2016 10:34 11,4 C 64 % 1023,6 hPa 0,0 l/m 9,8 km/h (2 Bft) W-SW 256 1 min 0,000 mm 2,7 UV-I 662 W/m 4,8 C 9,3 C 12,9 km/h (3 Bft) 100,00 %
19.04.2016 10:35 11,6 C 67 % 1023,6 hPa 0,0 l/m 7,5 km/h (2 Bft) SW 217 1 min 0,000 mm 2,7 UV-I 677 W/m 5,7 C 10,9 C 11,3 km/h (2 Bft) 100,00 %
19.04.2016 10:36 11,6 C 64 % 1023,6 hPa 0,0 l/m 7,2 km/h (2 Bft) N-NW 348 1 min 0,000 mm 2,7 UV-I 677 W/m 5,0 C 11,1 C 14,5 km/h (3 Bft) 100,00 %
19.04.2016 10:37 11,6 C 64 % 1023,6 hPa 0,0 l/m 7,5 km/h (2 Bft) NW 307 1 min 0,000 mm 2,6 UV-I 672 W/m 5,0 C 10,9 C 12,9 km/h (3 Bft) 100,00 %
19.04.2016 10:38 11,6 C 63 % 1023,6 hPa 0,0 l/m 6,0 km/h (2 Bft) NW 307 1 min 0,000 mm 2,7 UV-I 671 W/m 4,8 C 11,6 C 12,9 km/h (3 Bft) 96,30 %
19.04.2016 10:39 11,6 C 63 % 1023,6 hPa 0,0 l/m 6,0 km/h (2 Bft) W 263 1 min 0,000 mm 2,7 UV-I 672 W/m 4,8 C 11,6 C 17,7 km/h (3 Bft) 100,00 %
19.04.2016 10:40 11,7 C 64 % 1023,6 hPa 0,0 l/m 8,2 km/h (2 Bft) SW 232 1 min 0,000 mm 2,7 UV-I 682 W/m 5,1 C 10,5 C 16,1 km/h (3 Bft) 100,00 %
19.04.2016 10:41 11,7 C 61 % 1023,7 hPa 0,0 l/m 9,9 km/h (2 Bft) W 259 1 min 0,000 mm 2,8 UV-I 697 W/m 4,4 C 9,5 C 16,1 km/h (3 Bft) 95,65 %
19.04.2016 10:42 11,7 C 59 % 1023,6 hPa 0,0 l/m 6,2 km/h (2 Bft) W-NW 296 1 min 0,000 mm 2,9 UV-I 709 W/m 4,0 C 11,7 C 9,7 km/h (2 Bft) 100,00 %
19.04.2016 10:43 11,7 C 60 % 1023,7 hPa 0,0 l/m 8,8 km/h (2 Bft) N-NO 20 1 min 0,000 mm 2,8 UV-I 703 W/m 4,2 C 10,1 C 16,1 km/h (3 Bft) 100,00 %
19.04.2016 10:44 11,7 C 61 % 1023,6 hPa 0,0 l/m 3,7 km/h (1 Bft) NW 311 1 min 0,000 mm 2,7 UV-I 701 W/m 4,4 C 11,7 C 14,5 km/h (3 Bft) 100,00 %
19.04.2016 10:45 11,6 C 63 % 1023,7 hPa 0,0 l/m 12,9 km/h (3 Bft) W-SW 248 1 min 0,000 mm 2,1 UV-I 701 W/m 4,8 C 7,9 C 17,7 km/h (3 Bft) 100,00 %
19.04.2016 10:46 11,6 C 59 % 1023,7 hPa 0,0 l/m 8,5 km/h (2 Bft) W 261 1 min 0,000 mm 2,9 UV-I 698 W/m 3,9 C 10,2 C 11,3 km/h (2 Bft) 96,30 %
19.04.2016 10:47 11,6 C 61 % 1023,7 hPa 0,0 l/m 2,5 km/h (1 Bft) W 275 1 min 0,000 mm 2,9 UV-I 693 W/m 4,3 C 11,6 C 4,8 km/h (1 Bft) 100,00 %
19.04.2016 10:48 11,6 C 60 % 1023,7 hPa 0,0 l/m 7,1 km/h (2 Bft) NW 321 1 min 0,000 mm 2,9 UV-I 697 W/m 4,1 C 11,1 C 14,5 km/h (3 Bft) 93,33 %
19.04.2016 10:49 11,6 C 63 % 1023,7 hPa 0,0 l/m 8,4 km/h (2 Bft) N-NW 328 1 min 0,000 mm 3,0 UV-I 698 W/m 4,8 C 10,3 C 14,5 km/h (3 Bft) 100,00 %
19.04.2016 10:50 11,7 C 62 % 1023,7 hPa 0,0 l/m 6,4 km/h (2 Bft) W-NW 290 1 min 0,000 mm 3,0 UV-I 698 W/m 4,7 C 11,7 C 12,9 km/h (3 Bft) 96,30 %
19.04.2016 10:51 11,7 C 61 % 1023,7 hPa 0,0 l/m 9,6 km/h (2 Bft) W-NW 282 1 min 0,000 mm 3,0 UV-I 695 W/m 4,4 C 9,7 C 16,1 km/h (3 Bft) 100,00 %
19.04.2016 10:52 11,8 C 66 % 1023,7 hPa 0,0 l/m 9,8 km/h (2 Bft) W 264 1 min 0,000 mm 2,9 UV-I 678 W/m 5,7 C 9,7 C 16,1 km/h (3 Bft) 96,15 %
19.04.2016 10:53 11,8 C 66 % 1023,7 hPa 0,0 l/m 9,2 km/h (2 Bft) W-NW 284 1 min 0,000 mm 3,0 UV-I 683 W/m 5,7 C 10,0 C 12,9 km/h (3 Bft) 100,00 %
19.04.2016 10:54 11,8 C 58 % 1023,7 hPa 0,0 l/m 8,9 km/h (2 Bft) N-NW 335 1 min 0,000 mm 3,0 UV-I 698 W/m 3,8 C 10,2 C 16,1 km/h (3 Bft) 90,24 %
19.04.2016 10:55 11,8 C 60 % 1023,7 hPa 0,0 l/m 9,8 km/h (2 Bft) W 281 1 min 0,000 mm 3,1 UV-I 708 W/m 4,3 C 9,7 C 14,5 km/h (3 Bft) 95,65 %
19.04.2016 10:56 11,8 C 62 % 1023,7 hPa 0,0 l/m 5,4 km/h (1 Bft) SW 234 1 min 0,000 mm 3,0 UV-I 711 W/m 4,8 C 11,8 C 6,4 km/h (2 Bft) 100,00 %
19.04.2016 10:57 11,9 C 59 % 1023,7 hPa 0,0 l/m 13,1 km/h (3 Bft) W-NW 292 1 min 0,000 mm 3,1 UV-I 721 W/m 4,1 C 8,2 C 20,9 km/h (4 Bft) 96,30 %
19.04.2016 10:58 11,8 C 57 % 1023,7 hPa 0,0 l/m 10,3 km/h (2 Bft) W-SW 240 1 min 0,000 mm 3,1 UV-I 680 W/m 3,6 C 9,4 C 16,1 km/h (3 Bft) 100,00 %
19.04.2016 10:59 11,8 C 59 % 1023,7 hPa 0,0 l/m 9,9 km/h (2 Bft) NW 314 1 min 0,000 mm 3,1 UV-I 622 W/m 4,1 C 9,6 C 12,9 km/h (3 Bft) 100,00 %
19.04.2016 11:00 11,8 C 57 % 1023,7 hPa 0,0 l/m 8,8 km/h (2 Bft) W-NW 294 1 min 0,330 mm 3,2 UV-I 691 W/m 3,6 C 10,3 C 16,1 km/h (3 Bft) 97,73 %
19.04.2016 11:01 11,8 C 60 % 1023,6 hPa 0,0 l/m 8,6 km/h (2 Bft) W 266 1 min 0,000 mm 3,2 UV-I 713 W/m 4,3 C 10,4 C 22,5 km/h (4 Bft) 95,83 %
19.04.2016 11:02 11,8 C 58 % 1023,6 hPa 0,0 l/m 9,6 km/h (2 Bft) W 263 1 min 0,000 mm 3,2 UV-I 712 W/m 3,8 C 9,8 C 22,5 km/h (4 Bft) 98,68 %
19.04.2016 11:03 11,8 C 59 % 1023,6 hPa 0,0 l/m 4,7 km/h (1 Bft) W 271 1 min 0,000 mm 3,2 UV-I 714 W/m 4,1 C 11,8 C 6,4 km/h (2 Bft) 97,56 %
19.04.2016 11:04 11,8 C 60 % 1023,6 hPa 0,0 l/m 7,4 km/h (2 Bft) W-SW 258 1 min 0,000 mm 3,2 UV-I 721 W/m 4,3 C 11,1 C 12,9 km/h (3 Bft) 100,00 %
19.04.2016 11:05 11,9 C 60 % 1023,7 hPa 0,0 l/m 10,9 km/h (2 Bft) W-SW 257 1 min 0,000 mm 3,3 UV-I 725 W/m 4,4 C 9,2 C 16,1 km/h (3 Bft) 96,67 %
19.04.2016 11:06 11,9 C 59 % 1023,6 hPa 0,0 l/m 9,1 km/h (2 Bft) NW 324 1 min 0,000 mm 3,3 UV-I 739 W/m 4,1 C 10,2 C 12,9 km/h (3 Bft) 96,15 %
19.04.2016 11:07 11,9 C 60 % 1023,5 hPa 0,0 l/m 10,4 km/h (2 Bft) W-SW 256 1 min 0,000 mm 3,3 UV-I 766 W/m 4,4 C 9,5 C 20,9 km/h (4 Bft) 96,30 %
19.04.2016 11:08 11,8 C 57 % 1023,6 hPa 0,0 l/m 11,1 km/h (2 Bft) SW 234 1 min 0,000 mm 2,4 UV-I 672 W/m 3,6 C 9,0 C 17,7 km/h (3 Bft) 95,65 %
19.04.2016 11:09 11,8 C 58 % 1023,6 hPa 0,0 l/m 7,5 km/h (2 Bft) N-NW 340 0 min 0,000 mm 2,4 UV-I 185 W/m 3,8 C 11,1 C 11,3 km/h (2 Bft) 95,83 %
19.04.2016 11:10 11,8 C 60 % 1023,6 hPa 0,0 l/m 5,6 km/h (1 Bft) S-SW 205 0 min 0,000 mm 3,1 UV-I 185 W/m 4,3 C 11,8 C 11,3 km/h (2 Bft) 91,67 %
19.04.2016 11:11 11,8 C 60 % 1023,6 hPa 0,0 l/m 8,4 km/h (2 Bft) W 268 0 min 0,000 mm 3,0 UV-I 185 W/m 4,3 C 10,5 C 14,5 km/h (3 Bft) 100,00 %
19.04.2016 11:12 11,8 C 57 % 1023,6 hPa 0,0 l/m 13,1 km/h (3 Bft) W 279 1 min 0,000 mm 3,3 UV-I 616 W/m 3,6 C 8,1 C 20,9 km/h (4 Bft) 91,67 %
19.04.2016 11:13 11,8 C 59 % 1023,6 hPa 0,0 l/m 7,9 km/h (2 Bft) NW 320 1 min 0,000 mm 3,3 UV-I 737 W/m 4,1 C 10,8 C 12,9 km/h (3 Bft) 93,18 %
19.04.2016 11:14 11,9 C 64 % 1023,6 hPa 0,0 l/m 8,4 km/h (2 Bft) W-SW 248 1 min 0,000 mm 3,4 UV-I 744 W/m 5,3 C 10,6 C 14,5 km/h (3 Bft) 100,00 %
19.04.2016 11:15 12,0 C 62 % 1023,6 hPa 0,0 l/m 7,0 km/h (2 Bft) W-NW 288 1 min 0,000 mm 3,4 UV-I 745 W/m 4,9 C 11,6 C 12,9 km/h (3 Bft) 92,31 %
19.04.2016 11:16 12,1 C 63 % 1023,5 hPa 0,0 l/m 5,8 km/h (2 Bft) W 275 1 min 0,000 mm 3,4 UV-I 749 W/m 5,3 C 12,1 C 16,1 km/h (3 Bft) 100,00 %
19.04.2016 11:17 12,1 C 60 % 1023,6 hPa 0,0 l/m 6,6 km/h (2 Bft) SW 232 1 min 0,000 mm 3,5 UV-I 762 W/m 4,6 C 12,0 C 12,9 km/h (3 Bft) 91,30 %
19.04.2016 11:18 12,2 C 62 % 1023,6 hPa 0,0 l/m 8,2 km/h (2 Bft) W-SW 246 1 min 0,000 mm 3,5 UV-I 744 W/m 5,1 C 11,0 C 16,1 km/h (3 Bft) 100,00 %
19.04.2016 11:19 12,3 C 61 % 1023,6 hPa 0,0 l/m 11,9 km/h (2 Bft) W-SW 254 1 min 0,000 mm 3,6 UV-I 766 W/m 5,0 C 9,2 C 16,1 km/h (3 Bft) 100,00 %
19.04.2016 11:20 12,3 C 60 % 1023,5 hPa 0,0 l/m 9,8 km/h (2 Bft) W-NW 284 1 min 0,000 mm 3,6 UV-I 781 W/m 4,8 C 10,2 C 16,1 km/h (3 Bft) 100,00 %
19.04.2016 11:21 12,3 C 58 % 1023,5 hPa 0,0 l/m 11,7 km/h (2 Bft) N 355 1 min 0,000 mm 3,7 UV-I 811 W/m 4,3 C 9,3 C 19,3 km/h (3 Bft) 100,00 %
19.04.2016 11:22 12,3 C 57 % 1023,6 hPa 0,0 l/m 8,0 km/h (2 Bft) NW 304 1 min 0,000 mm 3,6 UV-I 826 W/m 4,0 C 11,3 C 14,5 km/h (3 Bft) 100,00 %
19.04.2016 11:23 12,2 C 57 % 1023,5 hPa 0,0 l/m 8,6 km/h (2 Bft) W-NW 292 1 min 0,000 mm 3,5 UV-I 826 W/m 3,9 C 10,8 C 12,9 km/h (3 Bft) 100,00 %
19.04.2016 11:24 12,2 C 59 % 1023,5 hPa 0,0 l/m 6,6 km/h (2 Bft) W 259 1 min 0,000 mm 3,5 UV-I 826 W/m 4,4 C 12,1 C 11,3 km/h (2 Bft) 95,83 %
19.04.2016 11:25 12,2 C 60 % 1023,5 hPa 0,0 l/m 4,4 km/h (1 Bft) W-NW 290 1 min 0,000 mm 3,6 UV-I 826 W/m 4,7 C 12,2 C 11,3 km/h (2 Bft) 100,00 %
19.04.2016 11:26 12,2 C 62 % 1023,5 hPa 0,0 l/m 5,3 km/h (1 Bft) SW 236 1 min 0,000 mm 3,5 UV-I 826 W/m 5,1 C 12,2 C 9,7 km/h (2 Bft) 100,00 %
19.04.2016 11:27 12,3 C 63 % 1023,5 hPa 0,0 l/m 9,5 km/h (2 Bft) W-SW 240 1 min 0,000 mm 3,7 UV-I 830 W/m 5,5 C 10,4 C 16,1 km/h (3 Bft) 100,00 %
19.04.2016 11:28 12,4 C 62 % 1023,6 hPa 0,0 l/m 14,1 km/h (3 Bft) W-SW 240 1 min 0,000 mm 3,7 UV-I 841 W/m 5,3 C 8,4 C 16,1 km/h (3 Bft) 100,00 %
19.04.2016 11:29 12,4 C 61 % 1023,5 hPa 0,0 l/m 14,2 km/h (3 Bft) W-NW 284 1 min 0,000 mm 3,7 UV-I 840 W/m 5,1 C 8,4 C 24,1 km/h (4 Bft) 100,00 %
19.04.2016 11:30 12,4 C 58 % 1023,5 hPa 0,0 l/m 13,2 km/h (3 Bft) W-SW 254 1 min 0,000 mm 3,6 UV-I 822 W/m 4,4 C 8,8 C 22,5 km/h (4 Bft) 100,00 %
19.04.2016 11:31 12,4 C 58 % 1023,5 hPa 0,0 l/m 15,4 km/h (3 Bft) W 276 1 min 0,000 mm 3,7 UV-I 842 W/m 4,4 C 7,9 C 19,3 km/h (3 Bft) 95,45 %
19.04.2016 11:32 12,4 C 56 % 1023,5 hPa 0,0 l/m 15,7 km/h (3 Bft) W-SW 253 1 min 0,000 mm 3,8 UV-I 840 W/m 3,9 C 7,8 C 25,7 km/h (4 Bft) 96,30 %
19.04.2016 11:33 12,4 C 57 % 1023,5 hPa 0,0 l/m 11,9 km/h (2 Bft) W-NW 284 1 min 0,000 mm 3,8 UV-I 835 W/m 4,1 C 9,3 C 17,7 km/h (3 Bft) 100,00 %
19.04.2016 11:34 12,4 C 57 % 1023,6 hPa 0,0 l/m 18,2 km/h (3 Bft) W-SW 255 1 min 0,000 mm 3,8 UV-I 844 W/m 4,1 C 6,9 C 25,7 km/h (4 Bft) 100,00 %
19.04.2016 11:35 12,4 C 55 % 1023,5 hPa 0,0 l/m 18,2 km/h (3 Bft) SW 236 1 min 0,000 mm 3,8 UV-I 834 W/m 3,6 C 6,9 C 27,4 km/h (4 Bft) 100,00 %
19.04.2016 11:36 12,3 C 56 % 1023,6 hPa 0,0 l/m 14,5 km/h (3 Bft) W 274 1 min 0,000 mm 3,8 UV-I 862 W/m 3,8 C 8,1 C 19,3 km/h (3 Bft) 100,00 %
19.04.2016 11:37 12,3 C 58 % 1023,5 hPa 0,0 l/m 10,9 km/h (2 Bft) W 260 1 min 0,000 mm 3,7 UV-I 895 W/m 4,3 C 9,7 C 14,5 km/h (3 Bft) 100,00 %
19.04.2016 11:38 12,3 C 56 % 1023,6 hPa 0,0 l/m 8,2 km/h (2 Bft) W-SW 254 1 min 0,000 mm 2,7 UV-I 895 W/m 3,8 C 11,1 C 14,5 km/h (3 Bft) 98,61 %
19.04.2016 11:39 12,3 C 56 % 1023,5 hPa 0,0 l/m 13,8 km/h (3 Bft) W 259 1 min 0,000 mm 3,4 UV-I 895 W/m 3,8 C 8,4 C 25,7 km/h (4 Bft) 100,00 %
19.04.2016 11:40 12,2 C 59 % 1023,5 hPa 0,0 l/m 19,1 km/h (3 Bft) W 262 1 min 0,000 mm 2,9 UV-I 895 W/m 4,4 C 6,4 C 25,7 km/h (4 Bft) 100,00 %
19.04.2016 11:41 12,2 C 59 % 1023,4 hPa 0,0 l/m 19,4 km/h (3 Bft) W 273 1 min 0,000 mm 3,5 UV-I 895 W/m 4,4 C 6,3 C 27,4 km/h (4 Bft) 100,00 %
19.04.2016 11:42 12,2 C 58 % 1023,5 hPa 0,0 l/m 16,8 km/h (3 Bft) W 281 1 min 0,000 mm 3,8 UV-I 960 W/m 4,2 C 7,1 C 27,4 km/h (4 Bft) 100,00 %
19.04.2016 11:43 12,2 C 58 % 1023,4 hPa 0,0 l/m 19,9 km/h (4 Bft) SW 235 1 min 0,000 mm 2,8 UV-I 854 W/m 4,2 C 6,2 C 29,0 km/h (5 Bft) 100,00 %
19.04.2016 11:44 12,2 C 58 % 1023,5 hPa 0,0 l/m 18,4 km/h (3 Bft) W-SW 250 0 min 0,000 mm 2,3 UV-I 276 W/m 4,2 C 6,6 C 22,5 km/h (4 Bft) 100,00 %
19.04.2016 11:45 12,2 C 57 % 1023,5 hPa 0,0 l/m 16,0 km/h (3 Bft) W 277 0 min 0,000 mm 2,5 UV-I 281 W/m 3,9 C 7,4 C 20,9 km/h (4 Bft) 100,00 %
19.04.2016 11:46 12,1 C 57 % 1023,5 hPa 0,0 l/m 11,9 km/h (2 Bft) W-SW 244 0 min 0,000 mm 2,6 UV-I 357 W/m 3,8 C 9,0 C 16,1 km/h (3 Bft) 100,00 %
19.04.2016 11:47 12,1 C 60 % 1023,5 hPa 0,0 l/m 13,6 km/h (3 Bft) W 268 0 min 0,000 mm 3,4 UV-I 380 W/m 4,6 C 8,2 C 19,3 km/h (3 Bft) 100,00 %
19.04.2016 11:48 12,1 C 58 % 1023,4 hPa 0,0 l/m 9,7 km/h (2 Bft) W 273 0 min 0,000 mm 2,5 UV-I 380 W/m 4,1 C 10,1 C 17,7 km/h (3 Bft) 100,00 %
19.04.2016 11:49 12,0 C 55 % 1023,5 hPa 0,0 l/m 6,8 km/h (2 Bft) W 260 0 min 0,000 mm 2,4 UV-I 304 W/m 3,2 C 11,7 C 11,3 km/h (2 Bft) 100,00 %
19.04.2016 11:50 12,0 C 58 % 1023,4 hPa 0,0 l/m 5,7 km/h (1 Bft) SW 232 0 min 0,000 mm 2,6 UV-I 360 W/m 4,0 C 12,0 C 8,0 km/h (2 Bft) 96,15 %
19.04.2016 11:51 12,0 C 58 % 1023,5 hPa 0,0 l/m 9,4 km/h (2 Bft) W-NW 298 0 min 0,000 mm 2,6 UV-I 360 W/m 4,0 C 10,1 C 16,1 km/h (3 Bft) 100,00 %
19.04.2016 11:52 12,1 C 56 % 1023,5 hPa 0,0 l/m 9,0 km/h (2 Bft) W-NW 297 0 min 0,000 mm 2,4 UV-I 360 W/m 3,6 C 10,5 C 16,1 km/h (3 Bft) 100,00 %
19.04.2016 11:53 12,1 C 58 % 1023,5 hPa 0,0 l/m 4,0 km/h (1 Bft) SW 235 0 min 0,000 mm 3,2 UV-I 360 W/m 4,1 C 12,1 C 8,0 km/h (2 Bft) 95,65 %
19.04.2016 11:54 12,1 C 60 % 1023,5 hPa 0,0 l/m 4,9 km/h (1 Bft) SW 229 1 min 0,000 mm 3,9 UV-I 891 W/m 4,6 C 12,1 C 8,0 km/h (2 Bft) 100,00 %
19.04.2016 11:55 12,2 C 59 % 1023,4 hPa 0,0 l/m 6,3 km/h (2 Bft) W-SW 252 1 min 0,000 mm 3,7 UV-I 937 W/m 4,4 C 12,2 C 12,9 km/h (3 Bft) 100,00 %
19.04.2016 11:56 12,3 C 60 % 1023,5 hPa 0,0 l/m 14,1 km/h (3 Bft) W 269 1 min 0,000 mm 4,0 UV-I 954 W/m 4,8 C 8,3 C 17,7 km/h (3 Bft) 95,83 %
19.04.2016 11:57 12,4 C 57 % 1023,4 hPa 0,0 l/m 12,4 km/h (3 Bft) W 279 1 min 0,000 mm 4,0 UV-I 954 W/m 4,1 C 9,1 C 25,7 km/h (4 Bft) 100,00 %
19.04.2016 11:58 12,5 C 57 % 1023,4 hPa 0,0 l/m 8,2 km/h (2 Bft) NW 321 1 min 0,000 mm 3,4 UV-I 951 W/m 4,2 C 11,4 C 19,3 km/h (3 Bft) 100,00 %
19.04.2016 11:59 12,6 C 56 % 1023,4 hPa 0,0 l/m 13,4 km/h (3 Bft) W-NW 288 1 min 0,000 mm 2,6 UV-I 951 W/m 4,1 C 8,9 C 22,5 km/h (4 Bft) 100,00 %
19.04.2016 12:00 12,5 C 57 % 1023,4 hPa 0,0 l/m 9,9 km/h (2 Bft) W-NW 286 1 min 0,000 mm 2,4 UV-I 880 W/m 4,2 C 10,4 C 16,1 km/h (3 Bft) 100,00 %
19.04.2016 12:02 12,3 C 56 % 1023,4 hPa 0,0 l/m 8,7 km/h (2 Bft) O-SO 123 0 min 0,381 mm 2,5 UV-I 245 W/m 3,8 C 10,8 C 25,7 km/h (4 Bft) 100,00 %
19.04.2016 12:03 12,2 C 54 % 1023,4 hPa 0,0 l/m 11,4 km/h (2 Bft) N-NW 329 0 min 0,000 mm 3,2 UV-I 246 W/m 3,2 C 9,3 C 20,9 km/h (4 Bft) 100,00 %
19.04.2016 12:04 12,1 C 55 % 1023,4 hPa 0,0 l/m 7,9 km/h (2 Bft) W-SW 256 0 min 0,000 mm 2,4 UV-I 246 W/m 3,3 C 11,1 C 14,5 km/h (3 Bft) 98,66 %
19.04.2016 12:05 12,0 C 55 % 1023,4 hPa 0,0 l/m 10,9 km/h (2 Bft) W 259 0 min 0,000 mm 2,4 UV-I 246 W/m 3,2 C 9,3 C 16,1 km/h (3 Bft) 94,74 %
19.04.2016 12:06 11,9 C 55 % 1023,4 hPa 0,0 l/m 13,0 km/h (3 Bft) W 281 1 min 0,000 mm 3,6 UV-I 811 W/m 3,2 C 8,3 C 24,1 km/h (4 Bft) 100,00 %
19.04.2016 12:07 11,9 C 56 % 1023,4 hPa 0,0 l/m 10,9 km/h (2 Bft) W 263 1 min 0,000 mm 3,9 UV-I 807 W/m 3,4 C 9,2 C 16,1 km/h (3 Bft) 100,00 %
19.04.2016 12:08 11,9 C 56 % 1023,4 hPa 0,0 l/m 12,4 km/h (3 Bft) W 268 1 min 0,000 mm 2,9 UV-I 807 W/m 3,4 C 8,5 C 19,3 km/h (3 Bft) 100,00 %
19.04.2016 12:09 11,9 C 57 % 1023,4 hPa 0,0 l/m 15,4 km/h (3 Bft) W-NW 296 1 min 0,000 mm 3,7 UV-I 807 W/m 3,7 C 7,3 C 22,5 km/h (4 Bft) 100,00 %
19.04.2016 12:10 11,9 C 59 % 1023,4 hPa 0,0 l/m 6,7 km/h (2 Bft) SW 225 1 min 0,000 mm 3,0 UV-I 807 W/m 4,1 C 11,7 C 17,7 km/h (3 Bft) 100,00 %
19.04.2016 12:11 12,1 C 60 % 1023,4 hPa 0,0 l/m 9,1 km/h (2 Bft) SW 225 1 min 0,000 mm 3,7 UV-I 807 W/m 4,6 C 10,4 C 17,7 km/h (3 Bft) 95,65 %
19.04.2016 12:12 12,2 C 59 % 1023,4 hPa 0,0 l/m 15,6 km/h (3 Bft) W 260 1 min 0,000 mm 4,0 UV-I 807 W/m 4,4 C 7,6 C 22,5 km/h (4 Bft) 98,66 %
19.04.2016 12:13 12,2 C 57 % 1023,4 hPa 0,0 l/m 14,6 km/h (3 Bft) W 261 1 min 0,000 mm 2,9 UV-I 807 W/m 3,9 C 8,0 C 19,3 km/h (3 Bft) 100,00 %
19.04.2016 12:14 12,2 C 57 % 1023,4 hPa 0,0 l/m 20,3 km/h (4 Bft) W-SW 251 1 min 0,000 mm 3,3 UV-I 807 W/m 3,9 C 6,0 C 24,1 km/h (4 Bft) 100,00 %
19.04.2016 12:15 12,2 C 56 % 1023,3 hPa 0,0 l/m 10,6 km/h (2 Bft) W-SW 248 1 min 0,000 mm 3,3 UV-I 807 W/m 3,7 C 9,7 C 17,7 km/h (3 Bft) 100,00 %
19.04.2016 12:16 12,2 C 55 % 1023,4 hPa 0,0 l/m 10,5 km/h (2 Bft) W 266 1 min 0,000 mm 4,0 UV-I 896 W/m 3,4 C 9,8 C 16,1 km/h (3 Bft) 100,00 %
19.04.2016 12:17 12,2 C 56 % 1023,3 hPa 0,0 l/m 18,5 km/h (3 Bft) W 281 1 min 0,000 mm 4,0 UV-I 894 W/m 3,7 C 6,6 C 24,1 km/h (4 Bft) 96,30 %
19.04.2016 12:18 12,2 C 55 % 1023,3 hPa 0,0 l/m 8,4 km/h (2 Bft) W 281 1 min 0,000 mm 3,3 UV-I 897 W/m 3,4 C 10,9 C 12,9 km/h (3 Bft) 91,30 %
19.04.2016 12:19 12,2 C 57 % 1023,3 hPa 0,0 l/m 15,0 km/h (3 Bft) W 275 1 min 0,000 mm 4,1 UV-I 935 W/m 3,9 C 7,8 C 22,5 km/h (4 Bft) 100,00 %
19.04.2016 12:20 12,2 C 56 % 1023,4 hPa 0,0 l/m 17,1 km/h (3 Bft) W-SW 246 1 min 0,000 mm 3,8 UV-I 908 W/m 3,7 C 7,0 C 25,7 km/h (4 Bft) 100,00 %
19.04.2016 12:21 12,2 C 56 % 1023,3 hPa 0,0 l/m 13,3 km/h (3 Bft) W-SW 248 1 min 0,000 mm 3,2 UV-I 870 W/m 3,7 C 8,5 C 17,7 km/h (3 Bft) 100,00 %
19.04.2016 12:22 12,2 C 58 % 1023,4 hPa 0,0 l/m 8,4 km/h (2 Bft) W-SW 242 0 min 0,000 mm 2,4 UV-I 388 W/m 4,2 C 10,9 C 12,9 km/h (3 Bft) 100,00 %
19.04.2016 12:23 12,2 C 58 % 1023,4 hPa 0,0 l/m 18,0 km/h (3 Bft) W 277 0 min 0,000 mm 2,5 UV-I 264 W/m 4,2 C 6,7 C 27,4 km/h (4 Bft) 95,83 %
19.04.2016 12:24 12,2 C 58 % 1023,4 hPa 0,0 l/m 11,9 km/h (2 Bft) W 260 0 min 0,000 mm 3,6 UV-I 323 W/m 4,2 C 9,1 C 16,1 km/h (3 Bft) 96,15 %
19.04.2016 12:25 12,2 C 57 % 1023,4 hPa 0,0 l/m 12,3 km/h (3 Bft) W 264 1 min 0,000 mm 4,3 UV-I 447 W/m 3,9 C 8,9 C 17,7 km/h (3 Bft) 100,00 %
19.04.2016 12:26 12,3 C 56 % 1023,4 hPa 0,0 l/m 16,0 km/h (3 Bft) W 271 1 min 0,000 mm 4,1 UV-I 966 W/m 3,8 C 7,6 C 20,9 km/h (4 Bft) 100,00 %
19.04.2016 12:27 12,3 C 57 % 1023,3 hPa 0,0 l/m 10,9 km/h (2 Bft) W-SW 246 1 min 0,000 mm 4,4 UV-I 968 W/m 4,0 C 9,7 C 16,1 km/h (3 Bft) 96,30 %
19.04.2016 12:28 12,4 C 58 % 1023,3 hPa 0,0 l/m 6,9 km/h (2 Bft) W 273 1 min 0,000 mm 4,4 UV-I 1009 W/m 4,4 C 12,1 C 12,9 km/h (3 Bft) 96,55 %
19.04.2016 12:29 12,6 C 58 % 1023,3 hPa 0,0 l/m 12,2 km/h (2 Bft) W 264 1 min 0,000 mm 3,6 UV-I 986 W/m 4,6 C 9,4 C 17,7 km/h (3 Bft) 100,00 %
19.04.2016 12:30 12,6 C 56 % 1023,3 hPa 0,0 l/m 11,3 km/h (2 Bft) W-NW 290 0 min 0,000 mm 2,8 UV-I 321 W/m 4,1 C 9,8 C 16,1 km/h (3 Bft) 100,00 %
19.04.2016 12:31 12,6 C 55 % 1023,3 hPa 0,0 l/m 11,6 km/h (2 Bft) W-SW 257 0 min 0,000 mm 2,5 UV-I 277 W/m 3,8 C 9,7 C 19,3 km/h (3 Bft) 96,15 %
19.04.2016 12:32 12,4 C 54 % 1023,2 hPa 0,0 l/m 9,1 km/h (2 Bft) W-SW 243 0 min 0,000 mm 2,6 UV-I 284 W/m 3,4 C 10,7 C 12,9 km/h (3 Bft) 100,00 %
19.04.2016 12:33 12,4 C 58 % 1023,2 hPa 0,0 l/m 7,7 km/h (2 Bft) SW 232 0 min 0,000 mm 2,9 UV-I 297 W/m 4,4 C 11,6 C 12,9 km/h (3 Bft) 100,00 %
19.04.2016 12:34 12,3 C 57 % 1023,2 hPa 0,0 l/m 9,4 km/h (2 Bft) W 269 0 min 0,000 mm 3,0 UV-I 297 W/m 4,0 C 10,5 C 12,9 km/h (3 Bft) 100,00 %
19.04.2016 12:35 12,3 C 57 % 1023,2 hPa 0,0 l/m 7,7 km/h (2 Bft) W-NW 294 0 min 0,000 mm 3,8 UV-I 297 W/m 4,0 C 11,5 C 12,9 km/h (3 Bft) 100,00 %
19.04.2016 12:36 12,3 C 59 % 1023,2 hPa 0,0 l/m 5,3 km/h (1 Bft) S 182 0 min 0,000 mm 3,1 UV-I 297 W/m 4,5 C 12,3 C 8,0 km/h (2 Bft) 96,30 %
19.04.2016 12:37 12,4 C 61 % 1023,2 hPa 0,0 l/m 14,6 km/h (3 Bft) SW 220 1 min 0,000 mm 4,4 UV-I 531 W/m 5,1 C 8,2 C 27,4 km/h (4 Bft) 96,15 %
19.04.2016 12:38 12,6 C 61 % 1023,3 hPa 0,0 l/m 14,9 km/h (3 Bft) W 265 1 min 0,000 mm 4,4 UV-I 924 W/m 5,3 C 8,3 C 20,9 km/h (4 Bft) 95,83 %
19.04.2016 12:39 12,8 C 60 % 1023,3 hPa 0,0 l/m 15,7 km/h (3 Bft) SW 225 1 min 0,000 mm 4,5 UV-I 964 W/m 5,2 C 8,3 C 22,5 km/h (4 Bft) 96,55 %
19.04.2016 12:40 12,8 C 56 % 1023,2 hPa 0,0 l/m 17,6 km/h (3 Bft) SW 217 1 min 0,000 mm 4,5 UV-I 923 W/m 4,2 C 7,6 C 25,7 km/h (4 Bft) 100,00 %
19.04.2016 12:41 12,9 C 56 % 1023,1 hPa 0,0 l/m 13,3 km/h (3 Bft) W-SW 254 1 min 0,000 mm 3,5 UV-I 916 W/m 4,3 C 9,3 C 19,3 km/h (3 Bft) 95,65 %
19.04.2016 12:42 12,9 C 55 % 1023,1 hPa 0,0 l/m 15,7 km/h (3 Bft) W 274 1 min 0,000 mm 3,2 UV-I 798 W/m 4,1 C 8,4 C 25,7 km/h (4 Bft) 100,00 %
19.04.2016 12:43 12,9 C 55 % 1023,1 hPa 0,0 l/m 11,9 km/h (2 Bft) W 272 1 min 0,000 mm 2,9 UV-I 466 W/m 4,1 C 9,9 C 20,9 km/h (4 Bft) 95,65 %
19.04.2016 12:44 12,9 C 56 % 1023,2 hPa 0,0 l/m 14,2 km/h (3 Bft) W-NW 286 0 min 0,000 mm 2,5 UV-I 421 W/m 4,3 C 8,9 C 20,9 km/h (4 Bft) 100,00 %
19.04.2016 12:45 12,8 C 55 % 1023,2 hPa 0,0 l/m 6,2 km/h (2 Bft) W 260 0 min 0,000 mm 2,1 UV-I 349 W/m 4,0 C 12,8 C 12,9 km/h (3 Bft) 94,12 %
19.04.2016 12:46 12,8 C 57 % 1023,2 hPa 0,0 l/m 10,8 km/h (2 Bft) W-NW 290 0 min 0,000 mm 1,9 UV-I 320 W/m 4,5 C 10,3 C 17,7 km/h (3 Bft) 91,67 %
19.04.2016 12:47 12,7 C 55 % 1023,3 hPa 0,0 l/m 11,9 km/h (2 Bft) W-SW 242 0 min 0,000 mm 1,9 UV-I 311 W/m 3,9 C 9,7 C 19,3 km/h (3 Bft) 91,30 %
19.04.2016 12:48 12,6 C 54 % 1023,2 hPa 0,0 l/m 12,1 km/h (2 Bft) W 261 0 min 0,000 mm 1,5 UV-I 265 W/m 3,5 C 9,5 C 17,7 km/h (3 Bft) 100,00 %
19.04.2016 12:49 12,4 C 55 % 1023,3 hPa 0,0 l/m 6,7 km/h (2 Bft) W-NW 285 0 min 0,000 mm 1,4 UV-I 231 W/m 3,6 C 12,2 C 16,1 km/h (3 Bft) 96,67 %
19.04.2016 12:50 12,3 C 57 % 1023,3 hPa 0,0 l/m 11,9 km/h (2 Bft) W 267 0 min 0,000 mm 1,3 UV-I 209 W/m 4,0 C 9,2 C 17,7 km/h (3 Bft) 96,15 %
19.04.2016 12:51 12,2 C 57 % 1023,2 hPa 0,0 l/m 9,3 km/h (2 Bft) W 260 0 min 0,000 mm 1,1 UV-I 186 W/m 3,9 C 10,4 C 12,9 km/h (3 Bft) 96,15 %
19.04.2016 12:52 12,1 C 58 % 1023,2 hPa 0,0 l/m 6,0 km/h (2 Bft) W-NW 296 0 min 0,000 mm 1,0 UV-I 173 W/m 4,1 C 12,1 C 12,9 km/h (3 Bft) 91,67 %
19.04.2016 12:53 12,0 C 60 % 1023,2 hPa 0,0 l/m 8,0 km/h (2 Bft) W 277 0 min 0,000 mm 1,0 UV-I 162 W/m 4,5 C 11,0 C 14,5 km/h (3 Bft) 92,31 %
19.04.2016 12:54 11,9 C 59 % 1023,3 hPa 0,0 l/m 8,4 km/h (2 Bft) NW 307 0 min 0,000 mm 0,9 UV-I 158 W/m 4,1 C 10,6 C 14,5 km/h (3 Bft) 91,67 %
19.04.2016 12:55 11,8 C 57 % 1023,3 hPa 0,0 l/m 3,7 km/h (1 Bft) W-SW 257 0 min 0,000 mm 0,9 UV-I 162 W/m 3,6 C 11,8 C 8,0 km/h (2 Bft) 100,00 %
19.04.2016 12:56 11,7 C 60 % 1023,3 hPa 0,0 l/m 2,9 km/h (1 Bft) W-NW 293 0 min 0,000 mm 1,0 UV-I 169 W/m 4,2 C 11,7 C 6,4 km/h (2 Bft) 95,65 %
19.04.2016 12:57 11,6 C 61 % 1023,3 hPa 0,0 l/m 2,6 km/h (1 Bft) NW 319 0 min 0,000 mm 1,1 UV-I 177 W/m 4,3 C 11,6 C 4,8 km/h (1 Bft) 95,83 %
19.04.2016 12:58 11,6 C 61 % 1023,3 hPa 0,0 l/m 5,9 km/h (2 Bft) NW 322 0 min 0,000 mm 1,1 UV-I 187 W/m 4,3 C 11,6 C 12,9 km/h (3 Bft) 100,00 %
19.04.2016 12:59 11,5 C 59 % 1023,2 hPa 0,0 l/m 9,3 km/h (2 Bft) W 268 0 min 0,000 mm 1,2 UV-I 203 W/m 3,8 C 9,6 C 14,5 km/h (3 Bft) 96,30 %
19.04.2016 13:00 11,5 C 58 % 1023,3 hPa 0,0 l/m 12,3 km/h (3 Bft) NW 323 0 min 0,305 mm 1,3 UV-I 217 W/m 3,5 C 8,1 C 19,3 km/h (3 Bft) 100,00 %
19.04.2016 13:02 11,4 C 60 % 1023,2 hPa 0,0 l/m 10,7 km/h (2 Bft) W 276 0 min 0,000 mm 1,5 UV-I 244 W/m 3,9 C 8,8 C 20,9 km/h (4 Bft) 96,30 %
19.04.2016 13:03 11,4 C 59 % 1023,3 hPa 0,0 l/m 10,7 km/h (2 Bft) NW 306 0 min 0,000 mm 1,6 UV-I 278 W/m 3,7 C 8,8 C 14,5 km/h (3 Bft) 92,68 %
19.04.2016 13:04 11,4 C 58 % 1023,3 hPa 0,0 l/m 9,5 km/h (2 Bft) SW 229 0 min 0,000 mm 1,8 UV-I 300 W/m 3,4 C 9,4 C 16,1 km/h (3 Bft) 100,00 %
19.04.2016 13:05 11,4 C 59 % 1023,3 hPa 0,0 l/m 15,1 km/h (3 Bft) NW 305 0 min 0,000 mm 2,0 UV-I 320 W/m 3,7 C 6,8 C 19,3 km/h (3 Bft) 100,00 %
19.04.2016 13:06 11,4 C 59 % 1023,2 hPa 0,0 l/m 14,5 km/h (3 Bft) NW 312 0 min 0,000 mm 2,0 UV-I 328 W/m 3,7 C 7,0 C 19,3 km/h (3 Bft) 100,00 %
19.04.2016 13:07 11,4 C 60 % 1023,3 hPa 0,0 l/m 12,3 km/h (3 Bft) W-SW 253 0 min 0,000 mm 2,0 UV-I 341 W/m 3,9 C 8,0 C 16,1 km/h (3 Bft) 100,00 %
19.04.2016 13:08 11,4 C 59 % 1023,4 hPa 0,0 l/m 12,7 km/h (3 Bft) W-SW 245 0 min 0,000 mm 2,0 UV-I 325 W/m 3,7 C 7,8 C 19,3 km/h (3 Bft) 100,00 %
19.04.2016 13:09 11,4 C 59 % 1023,3 hPa 0,0 l/m 11,7 km/h (2 Bft) W 278 0 min 0,000 mm 1,7 UV-I 319 W/m 3,7 C 8,3 C 20,9 km/h (4 Bft) 100,00 %
19.04.2016 13:10 11,4 C 59 % 1023,2 hPa 0,0 l/m 12,2 km/h (2 Bft) W-SW 248 0 min 0,000 mm 1,7 UV-I 280 W/m 3,7 C 8,0 C 17,7 km/h (3 Bft) 100,00 %
19.04.2016 13:11 11,4 C 58 % 1023,3 hPa 0,0 l/m 7,5 km/h (2 Bft) W-NW 300 0 min 0,000 mm 1,8 UV-I 282 W/m 3,4 C 10,7 C 14,5 km/h (3 Bft) 100,00 %
19.04.2016 13:12 11,5 C 60 % 1023,2 hPa 0,0 l/m 10,6 km/h (2 Bft) W 263 0 min 0,000 mm 1,9 UV-I 294 W/m 4,0 C 8,9 C 16,1 km/h (3 Bft) 85,19 %
19.04.2016 13:13 11,4 C 59 % 1023,2 hPa 0,0 l/m 11,6 km/h (2 Bft) W 261 0 min 0,000 mm 2,1 UV-I 315 W/m 3,7 C 8,3 C 20,9 km/h (4 Bft) 100,00 %
19.04.2016 13:14 11,4 C 59 % 1023,2 hPa 0,0 l/m 12,4 km/h (3 Bft) W-SW 247 0 min 0,000 mm 2,3 UV-I 350 W/m 3,7 C 7,9 C 16,1 km/h (3 Bft) 100,00 %
19.04.2016 13:15 11,5 C 59 % 1023,3 hPa 0,0 l/m 6,4 km/h (2 Bft) SW 218 0 min 0,000 mm 2,5 UV-I 379 W/m 3,8 C 11,5 C 9,7 km/h (2 Bft) 100,00 %
19.04.2016 13:16 11,5 C 58 % 1023,3 hPa 0,0 l/m 15,2 km/h (3 Bft) W 260 0 min 0,000 mm 3,0 UV-I 385 W/m 3,5 C 6,9 C 22,5 km/h (4 Bft) 100,00 %
19.04.2016 13:17 11,6 C 60 % 1023,3 hPa 0,0 l/m 19,1 km/h (3 Bft) W-SW 257 1 min 0,000 mm 2,9 UV-I 446 W/m 4,1 C 5,6 C 27,4 km/h (4 Bft) 100,00 %
19.04.2016 13:18 11,6 C 59 % 1023,3 hPa 0,0 l/m 13,8 km/h (3 Bft) W-NW 285 1 min 0,000 mm 4,0 UV-I 463 W/m 3,9 C 7,6 C 20,9 km/h (4 Bft) 100,00 %
19.04.2016 13:19 11,7 C 59 % 1023,2 hPa 0,0 l/m 9,3 km/h (2 Bft) W 279 0 min 0,000 mm 3,7 UV-I 422 W/m 4,0 C 9,9 C 16,1 km/h (3 Bft) 100,00 %
19.04.2016 13:20 11,7 C 58 % 1023,3 hPa 0,0 l/m 10,8 km/h (2 Bft) W 273 0 min 0,000 mm 3,4 UV-I 415 W/m 3,7 C 9,1 C 17,7 km/h (3 Bft) 100,00 %
19.04.2016 13:21 11,7 C 58 % 1023,3 hPa 0,0 l/m 11,7 km/h (2 Bft) SW 234 0 min 0,000 mm 3,2 UV-I 415 W/m 3,7 C 8,6 C 19,3 km/h (3 Bft) 100,00 %
19.04.2016 13:22 11,8 C 58 % 1023,2 hPa 0,0 l/m 15,6 km/h (3 Bft) W 278 0 min 0,000 mm 3,8 UV-I 415 W/m 3,8 C 7,1 C 20,9 km/h (4 Bft) 100,00 %
19.04.2016 13:23 11,8 C 57 % 1023,2 hPa 0,0 l/m 7,2 km/h (2 Bft) SW 221 1 min 0,000 mm 4,4 UV-I 508 W/m 3,6 C 11,3 C 12,9 km/h (3 Bft) 100,00 %
19.04.2016 13:24 11,9 C 58 % 1023,2 hPa 0,0 l/m 13,8 km/h (3 Bft) W-NW 282 1 min 0,000 mm 4,4 UV-I 860 W/m 3,9 C 7,9 C 24,1 km/h (4 Bft) 100,00 %
19.04.2016 13:25 12,1 C 59 % 1023,2 hPa 0,0 l/m 12,6 km/h (3 Bft) W-SW 258 1 min 0,000 mm 4,4 UV-I 861 W/m 4,3 C 8,7 C 24,1 km/h (4 Bft) 100,00 %
19.04.2016 13:26 12,2 C 58 % 1023,2 hPa 0,0 l/m 16,5 km/h (3 Bft) SW 225 1 min 0,000 mm 4,4 UV-I 872 W/m 4,2 C 7,3 C 20,9 km/h (4 Bft) 100,00 %
19.04.2016 13:27 12,4 C 59 % 1023,1 hPa 0,0 l/m 10,0 km/h (2 Bft) W-SW 246 1 min 0,000 mm 4,3 UV-I 899 W/m 4,6 C 10,2 C 17,7 km/h (3 Bft) 100,00 %
19.04.2016 13:28 12,6 C 58 % 1023,1 hPa 0,0 l/m 10,2 km/h (2 Bft) W 279 1 min 0,000 mm 3,4 UV-I 904 W/m 4,6 C 10,4 C 17,7 km/h (3 Bft) 100,00 %
19.04.2016 13:29 12,6 C 54 % 1023,1 hPa 0,0 l/m 12,6 km/h (3 Bft) W-SW 249 1 min 0,000 mm 3,7 UV-I 904 W/m 3,5 C 9,2 C 20,9 km/h (4 Bft) 100,00 %
19.04.2016 13:30 12,6 C 53 % 1023,1 hPa 0,0 l/m 10,7 km/h (2 Bft) NW 311 1 min 0,000 mm 3,0 UV-I 772 W/m 3,3 C 10,1 C 14,5 km/h (3 Bft) 100,00 %
19.04.2016 13:31 12,6 C 54 % 1023,1 hPa 0,0 l/m 11,7 km/h (2 Bft) W 268 0 min 0,000 mm 3,0 UV-I 392 W/m 3,5 C 9,6 C 19,3 km/h (3 Bft) 100,00 %
19.04.2016 13:32 12,6 C 55 % 1023,1 hPa 0,0 l/m 15,8 km/h (3 Bft) W-SW 240 0 min 0,000 mm 3,2 UV-I 388 W/m 3,8 C 8,0 C 22,5 km/h (4 Bft) 100,00 %
19.04.2016 13:33 12,6 C 55 % 1023,0 hPa 0,0 l/m 16,4 km/h (3 Bft) W 270 0 min 0,000 mm 3,4 UV-I 394 W/m 3,8 C 7,8 C 22,5 km/h (4 Bft) 100,00 %
19.04.2016 13:34 12,6 C 54 % 1023,1 hPa 0,0 l/m 14,7 km/h (3 Bft) W-SW 246 1 min 0,000 mm 3,0 UV-I 686 W/m 3,5 C 8,4 C 22,5 km/h (4 Bft) 100,00 %
19.04.2016 13:35 12,6 C 56 % 1023,1 hPa 0,0 l/m 11,6 km/h (2 Bft) W 281 1 min 0,000 mm 2,6 UV-I 610 W/m 4,1 C 9,7 C 25,7 km/h (4 Bft) 100,00 %
19.04.2016 13:36 12,6 C 56 % 1023,1 hPa 0,0 l/m 20,9 km/h (4 Bft) W 271 0 min 0,000 mm 2,5 UV-I 341 W/m 4,1 C 6,4 C 25,7 km/h (4 Bft) 100,00 %
19.04.2016 13:37 12,5 C 54 % 1023,1 hPa 0,0 l/m 22,9 km/h (4 Bft) W 278 0 min 0,000 mm 2,5 UV-I 319 W/m 3,5 C 5,7 C 33,8 km/h (5 Bft) 95,83 %
19.04.2016 13:38 12,4 C 54 % 1023,1 hPa 0,0 l/m 22,4 km/h (4 Bft) W 276 0 min 0,000 mm 2,6 UV-I 299 W/m 3,4 C 5,7 C 29,0 km/h (5 Bft) 100,00 %
19.04.2016 13:39 12,3 C 57 % 1023,1 hPa 0,0 l/m 19,8 km/h (3 Bft) W-SW 255 0 min 0,000 mm 2,7 UV-I 289 W/m 4,0 C 6,3 C 25,7 km/h (4 Bft) 98,57 %
19.04.2016 13:40 12,3 C 56 % 1023,1 hPa 0,0 l/m 21,3 km/h (4 Bft) W-NW 287 0 min 0,000 mm 3,3 UV-I 288 W/m 3,8 C 5,9 C 27,4 km/h (4 Bft) 97,56 %
19.04.2016 13:41 12,3 C 55 % 1023,1 hPa 0,0 l/m 17,9 km/h (3 Bft) W 265 0 min 0,000 mm 4,2 UV-I 288 W/m 3,5 C 6,9 C 24,1 km/h (4 Bft) 100,00 %
19.04.2016 13:42 12,3 C 55 % 1023,1 hPa 0,0 l/m 13,0 km/h (3 Bft) W 281 1 min 0,000 mm 4,2 UV-I 575 W/m 3,5 C 8,7 C 17,7 km/h (3 Bft) 100,00 %
19.04.2016 13:43 12,4 C 59 % 1023,0 hPa 0,0 l/m 14,1 km/h (3 Bft) W-SW 251 1 min 0,000 mm 4,3 UV-I 875 W/m 4,6 C 8,4 C 19,3 km/h (3 Bft) 100,00 %
19.04.2016 13:44 12,6 C 57 % 1023,1 hPa 0,0 l/m 7,5 km/h (2 Bft) W 263 1 min 0,000 mm 4,4 UV-I 878 W/m 4,3 C 11,9 C 12,9 km/h (3 Bft) 96,15 %
19.04.2016 13:45 12,7 C 55 % 1023,1 hPa 0,0 l/m 12,1 km/h (2 Bft) SW 227 1 min 0,000 mm 4,4 UV-I 894 W/m 3,9 C 9,6 C 19,3 km/h (3 Bft) 100,00 %
19.04.2016 13:46 12,8 C 59 % 1023,1 hPa 0,0 l/m 11,8 km/h (2 Bft) W-SW 242 1 min 0,000 mm 4,4 UV-I 880 W/m 5,0 C 9,8 C 17,7 km/h (3 Bft) 100,00 %
19.04.2016 13:47 12,9 C 55 % 1023,0 hPa 0,0 l/m 10,2 km/h (2 Bft) W-SW 255 1 min 0,000 mm 4,3 UV-I 892 W/m 4,1 C 10,7 C 14,5 km/h (3 Bft) 100,00 %
19.04.2016 13:48 13,0 C 56 % 1023,0 hPa 0,0 l/m 11,4 km/h (2 Bft) W 262 1 min 0,000 mm 3,8 UV-I 900 W/m 4,4 C 10,2 C 19,3 km/h (3 Bft) 100,00 %
19.04.2016 13:49 13,0 C 56 % 1023,0 hPa 0,0 l/m 10,4 km/h (2 Bft) W-SW 253 1 min 0,000 mm 3,6 UV-I 900 W/m 4,4 C 10,7 C 16,1 km/h (3 Bft) 96,15 %
19.04.2016 13:50 13,0 C 53 % 1023,0 hPa 0,0 l/m 11,4 km/h (2 Bft) W 264 1 min 0,000 mm 4,3 UV-I 981 W/m 3,6 C 10,2 C 14,5 km/h (3 Bft) 100,00 %
19.04.2016 13:51 13,0 C 56 % 1023,0 hPa 0,0 l/m 9,4 km/h (2 Bft) W 266 1 min 0,000 mm 4,3 UV-I 1024 W/m 4,4 C 11,2 C 14,5 km/h (3 Bft) 100,00 %
19.04.2016 13:52 13,1 C 58 % 1023,0 hPa 0,0 l/m 8,2 km/h (2 Bft) W-SW 253 1 min 0,000 mm 3,4 UV-I 1025 W/m 5,0 C 12,0 C 20,9 km/h (4 Bft) 100,00 %
19.04.2016 13:53 13,2 C 58 % 1023,0 hPa 0,0 l/m 12,5 km/h (3 Bft) W-SW 241 1 min 0,000 mm 3,0 UV-I 1025 W/m 5,1 C 10,0 C 19,3 km/h (3 Bft) 93,33 %
19.04.2016 13:54 13,2 C 56 % 1023,0 hPa 0,0 l/m 12,0 km/h (2 Bft) W 281 1 min 0,000 mm 2,5 UV-I 699 W/m 4,6 C 10,2 C 20,9 km/h (4 Bft) 100,00 %
19.04.2016 13:55 13,2 C 57 % 1023,0 hPa 0,0 l/m 12,6 km/h (3 Bft) W-SW 250 0 min 0,000 mm 2,4 UV-I 348 W/m 4,9 C 9,9 C 17,7 km/h (3 Bft) 100,00 %
19.04.2016 13:56 13,1 C 54 % 1022,9 hPa 0,0 l/m 10,0 km/h (2 Bft) W-SW 246 0 min 0,000 mm 2,3 UV-I 339 W/m 4,0 C 11,0 C 17,7 km/h (3 Bft) 100,00 %
19.04.2016 13:57 12,9 C 55 % 1023,0 hPa 0,0 l/m 16,2 km/h (3 Bft) W 281 0 min 0,000 mm 3,3 UV-I 352 W/m 4,1 C 8,2 C 24,1 km/h (4 Bft) 100,00 %
19.04.2016 13:58 12,9 C 54 % 1023,0 hPa 0,0 l/m 8,0 km/h (2 Bft) W 281 0 min 0,000 mm 2,4 UV-I 335 W/m 3,8 C 11,9 C 14,5 km/h (3 Bft) 100,00 %
19.04.2016 13:59 12,8 C 56 % 1023,0 hPa 0,0 l/m 3,9 km/h (1 Bft) SW 224 0 min 0,000 mm 2,0 UV-I 312 W/m 4,2 C 12,8 C 6,4 km/h (2 Bft) 100,00 %
19.04.2016 14:00 12,8 C 54 % 1023,0 hPa 0,0 l/m 10,8 km/h (2 Bft) SW 221 0 min 0,000 mm 1,8 UV-I 269 W/m 3,7 C 10,3 C 16,1 km/h (3 Bft) 100,00 %
19.04.2016 14:02 12,7 C 56 % 1023,0 hPa 0,0 l/m 17,0 km/h (3 Bft) W-NW 285 0 min 0,305 mm 1,7 UV-I 277 W/m 4,2 C 7,7 C 27,4 km/h (4 Bft) 100,00 %
19.04.2016 14:03 12,7 C 56 % 1023,0 hPa 0,0 l/m 13,6 km/h (3 Bft) W 267 0 min 0,000 mm 1,6 UV-I 263 W/m 4,2 C 8,9 C 19,3 km/h (3 Bft) 100,00 %
19.04.2016 14:04 12,7 C 57 % 1023,0 hPa 0,0 l/m 11,9 km/h (2 Bft) W 272 0 min 0,000 mm 1,6 UV-I 255 W/m 4,4 C 9,7 C 16,1 km/h (3 Bft) 92,59 %
19.04.2016 14:05 12,6 C 56 % 1023,0 hPa 0,0 l/m 13,8 km/h (3 Bft) W-SW 242 0 min 0,000 mm 1,5 UV-I 243 W/m 4,1 C 8,7 C 19,3 km/h (3 Bft) 96,15 %
19.04.2016 14:06 12,6 C 55 % 1023,0 hPa 0,0 l/m 9,7 km/h (2 Bft) W-SW 244 0 min 0,000 mm 1,4 UV-I 235 W/m 3,8 C 10,6 C 16,1 km/h (3 Bft) 100,00 %
19.04.2016 14:07 12,6 C 56 % 1023,0 hPa 0,0 l/m 8,0 km/h (2 Bft) W 267 0 min 0,000 mm 1,4 UV-I 229 W/m 4,1 C 11,6 C 12,9 km/h (3 Bft) 100,00 %
19.04.2016 14:08 12,5 C 57 % 1022,9 hPa 0,0 l/m 5,6 km/h (1 Bft) S-SW 211 0 min 0,000 mm 1,4 UV-I 231 W/m 4,2 C 12,5 C 12,9 km/h (3 Bft) 96,55 %
19.04.2016 14:09 12,5 C 55 % 1022,9 hPa 0,0 l/m 14,3 km/h (3 Bft) S 178 0 min 0,000 mm 1,4 UV-I 246 W/m 3,7 C 8,4 C 22,5 km/h (4 Bft) 96,15 %
19.04.2016 14:10 12,4 C 55 % 1023,0 hPa 0,0 l/m 10,1 km/h (2 Bft) W-SW 245 0 min 0,000 mm 1,6 UV-I 270 W/m 3,6 C 10,2 C 14,5 km/h (3 Bft) 100,00 %
19.04.2016 14:11 12,4 C 55 % 1023,0 hPa 0,0 l/m 10,2 km/h (2 Bft) SW 232 0 min 0,000 mm 1,7 UV-I 292 W/m 3,6 C 10,1 C 12,9 km/h (3 Bft) 100,00 %
19.04.2016 14:12 12,3 C 56 % 1023,0 hPa 0,0 l/m 7,5 km/h (2 Bft) SW 234 0 min 0,000 mm 1,8 UV-I 304 W/m 3,8 C 11,6 C 14,5 km/h (3 Bft) 100,00 %
19.04.2016 14:13 12,3 C 56 % 1023,0 hPa 0,0 l/m 12,2 km/h (2 Bft) W-SW 253 0 min 0,000 mm 1,6 UV-I 287 W/m 3,8 C 9,1 C 22,5 km/h (4 Bft) 96,30 %
19.04.2016 14:14 12,3 C 54 % 1023,0 hPa 0,0 l/m 16,3 km/h (3 Bft) W-NW 288 0 min 0,000 mm 1,5 UV-I 264 W/m 3,3 C 7,4 C 30,6 km/h (5 Bft) 100,00 %
19.04.2016 14:15 12,3 C 55 % 1023,0 hPa 0,0 l/m 7,6 km/h (2 Bft) W-NW 289 0 min 0,000 mm 1,5 UV-I 254 W/m 3,5 C 11,5 C 14,5 km/h (3 Bft) 100,00 %
19.04.2016 14:16 12,3 C 56 % 1023,0 hPa 0,0 l/m 12,3 km/h (3 Bft) W-SW 250 0 min 0,000 mm 1,5 UV-I 260 W/m 3,8 C 9,0 C 30,6 km/h (5 Bft) 95,65 %
19.04.2016 14:17 12,3 C 56 % 1023,0 hPa 0,0 l/m 14,1 km/h (3 Bft) W 260 0 min 0,000 mm 1,7 UV-I 282 W/m 3,8 C 8,3 C 20,9 km/h (4 Bft) 100,00 %
19.04.2016 14:18 12,2 C 54 % 1023,1 hPa 0,0 l/m 15,2 km/h (3 Bft) W-SW 258 0 min 0,000 mm 1,8 UV-I 305 W/m 3,2 C 7,7 C 22,5 km/h (4 Bft) 100,00 %
19.04.2016 14:19 12,2 C 55 % 1022,9 hPa 0,0 l/m 11,5 km/h (2 Bft) W-SW 249 0 min 0,000 mm 2,0 UV-I 324 W/m 3,4 C 9,3 C 14,5 km/h (3 Bft) 100,00 %
19.04.2016 14:20 12,2 C 55 % 1023,0 hPa 0,0 l/m 9,6 km/h (2 Bft) W 269 0 min 0,000 mm 2,0 UV-I 327 W/m 3,4 C 10,2 C 12,9 km/h (3 Bft) 95,65 %
19.04.2016 14:21 12,1 C 56 % 1023,0 hPa 0,0 l/m 12,6 km/h (3 Bft) SW 226 0 min 0,000 mm 1,9 UV-I 309 W/m 3,6 C 8,7 C 27,4 km/h (4 Bft) 95,83 %
19.04.2016 14:22 12,1 C 57 % 1022,9 hPa 0,0 l/m 8,0 km/h (2 Bft) W 259 0 min 0,000 mm 1,8 UV-I 288 W/m 3,8 C 11,1 C 17,7 km/h (3 Bft) 100,00 %
19.04.2016 14:23 12,2 C 56 % 1022,9 hPa 0,0 l/m 5,4 km/h (1 Bft) W-NW 284 0 min 0,000 mm 1,8 UV-I 274 W/m 3,7 C 12,2 C 9,7 km/h (2 Bft) 100,00 %
19.04.2016 14:24 12,2 C 57 % 1022,9 hPa 0,0 l/m 5,4 km/h (1 Bft) W 264 0 min 0,000 mm 1,8 UV-I 266 W/m 3,9 C 12,2 C 9,7 km/h (2 Bft) 96,15 %
19.04.2016 14:25 12,2 C 56 % 1022,9 hPa 0,0 l/m 8,6 km/h (2 Bft) NW 314 0 min 0,000 mm 1,9 UV-I 258 W/m 3,7 C 10,8 C 11,3 km/h (2 Bft) 95,83 %
19.04.2016 14:26 12,2 C 58 % 1022,9 hPa 0,0 l/m 4,5 km/h (1 Bft) W 281 0 min 0,000 mm 2,0 UV-I 245 W/m 4,2 C 12,2 C 9,7 km/h (2 Bft) 100,00 %
19.04.2016 14:27 12,2 C 57 % 1022,9 hPa 0,0 l/m 8,7 km/h (2 Bft) W 259 0 min 0,000 mm 2,2 UV-I 244 W/m 3,9 C 10,7 C 12,9 km/h (3 Bft) 96,30 %
19.04.2016 14:28 12,2 C 58 % 1022,9 hPa 0,0 l/m 5,9 km/h (2 Bft) S-SW 211 0 min 0,000 mm 2,4 UV-I 267 W/m 4,2 C 12,2 C 8,0 km/h (2 Bft) 93,33 %
19.04.2016 14:29 12,3 C 56 % 1022,9 hPa 0,0 l/m 7,5 km/h (2 Bft) W 270 0 min 0,000 mm 3,5 UV-I 267 W/m 3,8 C 11,6 C 12,9 km/h (3 Bft) 96,15 %
19.04.2016 14:30 12,4 C 55 % 1022,9 hPa 0,0 l/m 13,4 km/h (3 Bft) W-SW 244 0 min 0,000 mm 3,1 UV-I 267 W/m 3,6 C 8,7 C 22,5 km/h (4 Bft) 96,30 %
19.04.2016 14:31 12,5 C 54 % 1022,8 hPa 0,0 l/m 6,3 km/h (2 Bft) W-NW 293 0 min 0,000 mm 2,4 UV-I 287 W/m 3,5 C 12,5 C 9,7 km/h (2 Bft) 90,91 %
19.04.2016 14:32 12,6 C 55 % 1022,8 hPa 0,0 l/m 10,1 km/h (2 Bft) W-SW 242 0 min 0,000 mm 2,3 UV-I 328 W/m 3,8 C 10,4 C 16,1 km/h (3 Bft) 96,30 %
19.04.2016 14:33 12,6 C 56 % 1022,8 hPa 0,0 l/m 11,9 km/h (2 Bft) W-NW 283 0 min 0,000 mm 2,5 UV-I 334 W/m 4,1 C 9,6 C 22,5 km/h (4 Bft) 96,55 %
19.04.2016 14:34 12,7 C 55 % 1022,8 hPa 0,0 l/m 8,2 km/h (2 Bft) NW 319 0 min 0,000 mm 2,3 UV-I 335 W/m 3,9 C 11,6 C 16,1 km/h (3 Bft) 96,30 %
19.04.2016 14:35 12,7 C 55 % 1022,8 hPa 0,0 l/m 10,1 km/h (2 Bft) W-NW 294 0 min 0,000 mm 2,2 UV-I 338 W/m 3,9 C 10,5 C 14,5 km/h (3 Bft) 95,65 %
19.04.2016 14:36 12,7 C 55 % 1022,8 hPa 0,0 l/m 10,9 km/h (2 Bft) W-NW 294 0 min 0,000 mm 2,2 UV-I 338 W/m 3,9 C 10,1 C 17,7 km/h (3 Bft) 95,83 %
19.04.2016 14:37 12,7 C 55 % 1022,8 hPa 0,0 l/m 12,5 km/h (3 Bft) W-NW 286 0 min 0,000 mm 2,1 UV-I 338 W/m 3,9 C 9,4 C 19,3 km/h (3 Bft) 100,00 %
19.04.2016 14:38 12,7 C 57 % 1022,8 hPa 0,0 l/m 6,0 km/h (2 Bft) W 260 0 min 0,000 mm 2,0 UV-I 315 W/m 4,4 C 12,7 C 11,3 km/h (2 Bft) 91,67 %
19.04.2016 14:39 12,6 C 54 % 1022,8 hPa 0,0 l/m 9,0 km/h (2 Bft) W-SW 238 0 min 0,000 mm 2,0 UV-I 313 W/m 3,5 C 11,0 C 14,5 km/h (3 Bft) 95,65 %
19.04.2016 14:40 12,6 C 57 % 1022,8 hPa 0,0 l/m 8,4 km/h (2 Bft) W-SW 242 0 min 0,000 mm 2,0 UV-I 309 W/m 4,3 C 11,3 C 14,5 km/h (3 Bft) 96,30 %
19.04.2016 14:41 12,6 C 55 % 1022,7 hPa 0,0 l/m 11,5 km/h (2 Bft) W 259 0 min 0,000 mm 1,9 UV-I 294 W/m 3,8 C 9,7 C 16,1 km/h (3 Bft) 95,65 %
19.04.2016 14:42 12,6 C 55 % 1022,7 hPa 0,0 l/m 13,3 km/h (3 Bft) W 268 0 min 0,000 mm 1,7 UV-I 275 W/m 3,8 C 9,0 C 17,7 km/h (3 Bft) 98,51 %
19.04.2016 14:43 12,6 C 55 % 1022,8 hPa 0,0 l/m 14,5 km/h (3 Bft) W 278 0 min 0,000 mm 1,7 UV-I 260 W/m 3,8 C 8,5 C 19,3 km/h (3 Bft) 97,37 %
19.04.2016 14:44 12,6 C 55 % 1022,8 hPa 0,0 l/m 16,3 km/h (3 Bft) W 264 0 min 0,000 mm 1,6 UV-I 250 W/m 3,8 C 7,8 C 22,5 km/h (4 Bft) 100,00 %
19.04.2016 14:45 12,5 C 54 % 1022,8 hPa 0,0 l/m 11,8 km/h (2 Bft) W 260 0 min 0,000 mm 1,4 UV-I 237 W/m 3,5 C 9,5 C 19,3 km/h (3 Bft) 96,55 %
19.04.2016 14:46 12,4 C 56 % 1022,8 hPa 0,0 l/m 13,0 km/h (3 Bft) W 265 0 min 0,000 mm 1,3 UV-I 234 W/m 3,9 C 8,8 C 20,9 km/h (4 Bft) 100,00 %
19.04.2016 14:47 12,4 C 54 % 1022,8 hPa 0,0 l/m 13,4 km/h (3 Bft) W 259 0 min 0,000 mm 1,3 UV-I 239 W/m 3,4 C 8,7 C 17,7 km/h (3 Bft) 96,55 %
19.04.2016 14:48 12,3 C 54 % 1022,7 hPa 0,0 l/m 9,7 km/h (2 Bft) W-SW 246 0 min 0,000 mm 1,4 UV-I 251 W/m 3,3 C 10,3 C 14,5 km/h (3 Bft) 96,30 %
19.04.2016 14:49 12,3 C 54 % 1022,7 hPa 0,0 l/m 12,2 km/h (2 Bft) W-NW 297 0 min 0,000 mm 1,5 UV-I 267 W/m 3,3 C 9,1 C 16,1 km/h (3 Bft) 100,00 %
19.04.2016 14:50 12,3 C 54 % 1022,7 hPa 0,0 l/m 11,9 km/h (2 Bft) W-SW 249 0 min 0,000 mm 1,6 UV-I 294 W/m 3,3 C 9,2 C 22,5 km/h (4 Bft) 96,15 %
19.04.2016 14:51 12,3 C 55 % 1022,7 hPa 0,0 l/m 9,3 km/h (2 Bft) W-SW 242 0 min 0,000 mm 1,8 UV-I 324 W/m 3,5 C 10,5 C 22,5 km/h (4 Bft) 100,00 %
19.04.2016 14:52 12,3 C 55 % 1022,7 hPa 0,0 l/m 15,4 km/h (3 Bft) W 267 0 min 0,000 mm 1,9 UV-I 344 W/m 3,5 C 7,8 C 22,5 km/h (4 Bft) 96,15 %
19.04.2016 14:53 12,3 C 56 % 1022,7 hPa 0,0 l/m 12,0 km/h (2 Bft) W-NW 294 0 min 0,000 mm 2,0 UV-I 361 W/m 3,8 C 9,2 C 16,1 km/h (3 Bft) 100,00 %
19.04.2016 14:54 12,3 C 55 % 1022,7 hPa 0,0 l/m 7,6 km/h (2 Bft) W-SW 246 0 min 0,000 mm 2,2 UV-I 383 W/m 3,5 C 11,5 C 14,5 km/h (3 Bft) 92,86 %
19.04.2016 14:55 12,4 C 55 % 1022,7 hPa 0,0 l/m 20,1 km/h (4 Bft) W-SW 254 1 min 0,000 mm 2,4 UV-I 418 W/m 3,6 C 6,4 C 27,4 km/h (4 Bft) 100,00 %
19.04.2016 14:56 12,4 C 55 % 1022,7 hPa 0,0 l/m 12,9 km/h (3 Bft) W-SW 254 1 min 0,000 mm 2,5 UV-I 438 W/m 3,6 C 8,9 C 19,3 km/h (3 Bft) 96,15 %
19.04.2016 14:57 12,5 C 54 % 1022,7 hPa 0,0 l/m 14,8 km/h (3 Bft) W 267 1 min 0,000 mm 2,8 UV-I 438 W/m 3,5 C 8,2 C 24,1 km/h (4 Bft) 100,00 %
19.04.2016 14:58 12,6 C 52 % 1022,7 hPa 0,0 l/m 11,3 km/h (2 Bft) W-NW 293 1 min 0,000 mm 2,6 UV-I 438 W/m 3,0 C 9,8 C 14,5 km/h (3 Bft) 100,00 %
19.04.2016 14:59 12,6 C 54 % 1022,7 hPa 0,0 l/m 15,7 km/h (3 Bft) W-SW 246 1 min 0,000 mm 3,0 UV-I 438 W/m 3,5 C 8,0 C 29,0 km/h (5 Bft) 100,00 %
19.04.2016 15:00 12,7 C 53 % 1022,7 hPa 0,0 l/m 15,3 km/h (3 Bft) W 269 0 min 0,000 mm 2,3 UV-I 340 W/m 3,4 C 8,3 C 22,5 km/h (4 Bft) 96,15 %
19.04.2016 15:01 12,7 C 52 % 1022,7 hPa 0,0 l/m 15,0 km/h (3 Bft) W-SW 240 0 min 0,228 mm 2,6 UV-I 329 W/m 3,1 C 8,4 C 19,3 km/h (3 Bft) 100,00 %
19.04.2016 15:02 12,6 C 53 % 1022,7 hPa 0,0 l/m 10,2 km/h (2 Bft) W-NW 299 0 min 0,000 mm 2,6 UV-I 339 W/m 3,3 C 10,4 C 17,7 km/h (3 Bft) 100,00 %
19.04.2016 15:03 12,7 C 53 % 1022,6 hPa 0,0 l/m 7,1 km/h (2 Bft) NW 317 1 min 0,000 mm 3,2 UV-I 479 W/m 3,4 C 12,3 C 12,9 km/h (3 Bft) 100,00 %
19.04.2016 15:04 12,8 C 54 % 1022,6 hPa 0,0 l/m 10,0 km/h (2 Bft) W-SW 252 1 min 0,000 mm 3,2 UV-I 805 W/m 3,7 C 10,7 C 20,9 km/h (4 Bft) 100,00 %
19.04.2016 15:05 12,9 C 54 % 1022,6 hPa 0,0 l/m 13,2 km/h (3 Bft) W 263 1 min 0,000 mm 3,2 UV-I 799 W/m 3,8 C 9,3 C 22,5 km/h (4 Bft) 100,00 %
19.04.2016 15:06 13,0 C 53 % 1022,7 hPa 0,0 l/m 8,0 km/h (2 Bft) W 280 1 min 0,000 mm 2,8 UV-I 807 W/m 3,6 C 12,0 C 11,3 km/h (2 Bft) 100,00 %
19.04.2016 15:07 13,1 C 53 % 1022,7 hPa 0,0 l/m 17,2 km/h (3 Bft) W-NW 282 1 min 0,000 mm 2,4 UV-I 420 W/m 3,7 C 8,1 C 25,7 km/h (4 Bft) 100,00 %
19.04.2016 15:08 13,1 C 53 % 1022,7 hPa 0,0 l/m 14,9 km/h (3 Bft) W-SW 256 0 min 0,000 mm 2,3 UV-I 322 W/m 3,7 C 8,9 C 19,3 km/h (3 Bft) 93,10 %
19.04.2016 15:09 13,0 C 51 % 1022,6 hPa 0,0 l/m 11,8 km/h (2 Bft) W 277 0 min 0,000 mm 2,2 UV-I 340 W/m 3,1 C 10,1 C 17,7 km/h (3 Bft) 100,00 %
19.04.2016 15:10 12,9 C 53 % 1022,6 hPa 0,0 l/m 11,1 km/h (2 Bft) W-NW 286 0 min 0,000 mm 2,1 UV-I 307 W/m 3,6 C 10,3 C 20,9 km/h (4 Bft) 100,00 %
19.04.2016 15:11 12,9 C 52 % 1022,6 hPa 0,0 l/m 12,7 km/h (3 Bft) W 267 0 min 0,000 mm 2,0 UV-I 286 W/m 3,3 C 9,6 C 16,1 km/h (3 Bft) 100,00 %
19.04.2016 15:12 12,8 C 53 % 1022,6 hPa 0,0 l/m 11,4 km/h (2 Bft) W 275 0 min 0,000 mm 1,9 UV-I 272 W/m 3,5 C 10,0 C 17,7 km/h (3 Bft) 100,00 %
19.04.2016 15:13 12,8 C 56 % 1022,5 hPa 0,0 l/m 4,0 km/h (1 Bft) W 273 0 min 0,000 mm 1,8 UV-I 268 W/m 4,2 C 12,8 C 6,4 km/h (2 Bft) 100,00 %
19.04.2016 15:14 12,8 C 56 % 1022,7 hPa 0,0 l/m 17,2 km/h (3 Bft) W-SW 250 0 min 0,000 mm 1,9 UV-I 276 W/m 4,2 C 7,8 C 24,1 km/h (4 Bft) 100,00 %
19.04.2016 15:15 12,8 C 54 % 1022,6 hPa 0,0 l/m 15,9 km/h (3 Bft) W 269 0 min 0,000 mm 1,9 UV-I 287 W/m 3,7 C 8,2 C 19,3 km/h (3 Bft) 100,00 %
19.04.2016 15:16 12,7 C 55 % 1022,6 hPa 0,0 l/m 13,9 km/h (3 Bft) W-SW 250 0 min 0,000 mm 1,9 UV-I 298 W/m 3,9 C 8,8 C 20,9 km/h (4 Bft) 100,00 %
19.04.2016 15:17 12,7 C 56 % 1022,6 hPa 0,0 l/m 15,7 km/h (3 Bft) W-SW 252 0 min 0,000 mm 1,9 UV-I 302 W/m 4,2 C 8,2 C 22,5 km/h (4 Bft) 100,00 %
19.04.2016 15:18 12,7 C 55 % 1022,6 hPa 0,0 l/m 16,6 km/h (3 Bft) W 270 0 min 0,000 mm 2,0 UV-I 302 W/m 3,9 C 7,8 C 20,9 km/h (4 Bft) 100,00 %
19.04.2016 15:19 12,7 C 55 % 1022,6 hPa 0,0 l/m 15,4 km/h (3 Bft) W 268 0 min 0,000 mm 2,0 UV-I 316 W/m 3,9 C 8,3 C 22,5 km/h (4 Bft) 100,00 %
19.04.2016 15:20 12,7 C 53 % 1022,6 hPa 0,0 l/m 14,6 km/h (3 Bft) W 266 0 min 0,000 mm 2,0 UV-I 313 W/m 3,4 C 8,6 C 20,9 km/h (4 Bft) 100,00 %
19.04.2016 15:21 12,7 C 54 % 1022,6 hPa 0,0 l/m 11,4 km/h (2 Bft) W 270 0 min 0,000 mm 2,1 UV-I 341 W/m 3,6 C 9,9 C 14,5 km/h (3 Bft) 100,00 %
19.04.2016 15:22 12,6 C 55 % 1022,5 hPa 0,0 l/m 16,4 km/h (3 Bft) W-SW 257 0 min 0,000 mm 2,5 UV-I 364 W/m 3,8 C 7,8 C 20,9 km/h (4 Bft) 100,00 %
19.04.2016 15:23 12,7 C 54 % 1022,5 hPa 0,0 l/m 19,4 km/h (3 Bft) W-NW 294 0 min 0,000 mm 2,9 UV-I 364 W/m 3,6 C 6,9 C 22,5 km/h (4 Bft) 94,12 %
19.04.2016 15:24 12,8 C 54 % 1022,6 hPa 0,0 l/m 14,7 km/h (3 Bft) W 273 1 min 0,000 mm 3,0 UV-I 770 W/m 3,7 C 8,6 C 20,9 km/h (4 Bft) 100,00 %
19.04.2016 15:25 12,9 C 55 % 1022,6 hPa 0,0 l/m 19,7 km/h (3 Bft) W-SW 257 1 min 0,000 mm 2,9 UV-I 757 W/m 4,1 C 7,1 C 27,4 km/h (4 Bft) 100,00 %
19.04.2016 15:26 13,0 C 53 % 1022,5 hPa 0,0 l/m 16,9 km/h (3 Bft) W-SW 255 1 min 0,000 mm 2,9 UV-I 733 W/m 3,6 C 8,1 C 22,5 km/h (4 Bft) 96,15 %
19.04.2016 15:27 13,1 C 52 % 1022,5 hPa 0,0 l/m 9,6 km/h (2 Bft) W 263 1 min 0,000 mm 2,3 UV-I 686 W/m 3,5 C 11,2 C 12,9 km/h (3 Bft) 96,55 %
19.04.2016 15:28 13,1 C 54 % 1022,5 hPa 0,0 l/m 18,7 km/h (3 Bft) W 279 1 min 0,000 mm 1,8 UV-I 431 W/m 4,0 C 7,7 C 22,5 km/h (4 Bft) 100,00 %
19.04.2016 15:29 13,1 C 53 % 1022,4 hPa 0,0 l/m 15,2 km/h (3 Bft) W-NW 284 0 min 0,000 mm 1,6 UV-I 203 W/m 3,7 C 8,8 C 20,9 km/h (4 Bft) 100,00 %
19.04.2016 15:30 13,0 C 53 % 1022,5 hPa 0,0 l/m 10,5 km/h (2 Bft) W-NW 291 0 min 0,000 mm 1,4 UV-I 206 W/m 3,6 C 10,7 C 17,7 km/h (3 Bft) 100,00 %
19.04.2016 15:31 12,9 C 53 % 1022,5 hPa 0,0 l/m 13,2 km/h (3 Bft) W-NW 286 0 min 0,000 mm 1,3 UV-I 204 W/m 3,6 C 9,3 C 17,7 km/h (3 Bft) 100,00 %
19.04.2016 15:32 12,8 C 53 % 1022,4 hPa 0,0 l/m 11,3 km/h (2 Bft) SW 228 0 min 0,000 mm 1,2 UV-I 200 W/m 3,5 C 10,1 C 24,1 km/h (4 Bft) 100,00 %
19.04.2016 15:33 12,8 C 52 % 1022,4 hPa 0,0 l/m 5,4 km/h (1 Bft) W-SW 251 0 min 0,000 mm 1,1 UV-I 190 W/m 3,2 C 12,8 C 9,7 km/h (2 Bft) 100,00 %
19.04.2016 15:34 12,7 C 55 % 1022,4 hPa 0,0 l/m 8,0 km/h (2 Bft) W-SW 252 0 min 0,000 mm 1,0 UV-I 178 W/m 3,9 C 11,7 C 14,5 km/h (3 Bft) 100,00 %
19.04.2016 15:35 12,6 C 55 % 1022,5 hPa 0,0 l/m 8,3 km/h (2 Bft) SW 230 0 min 0,000 mm 0,9 UV-I 171 W/m 3,8 C 11,4 C 14,5 km/h (3 Bft) 100,00 %
19.04.2016 15:36 12,6 C 54 % 1022,5 hPa 0,0 l/m 12,2 km/h (2 Bft) W-SW 258 0 min 0,000 mm 0,9 UV-I 169 W/m 3,5 C 9,4 C 20,9 km/h (4 Bft) 92,86 %
19.04.2016 15:37 12,5 C 53 % 1022,4 hPa 0,0 l/m 12,6 km/h (3 Bft) W-SW 252 0 min 0,000 mm 0,9 UV-I 177 W/m 3,2 C 9,1 C 20,9 km/h (4 Bft) 96,30 %
19.04.2016 15:38 12,4 C 54 % 1022,5 hPa 0,0 l/m 13,8 km/h (3 Bft) W-SW 250 0 min 0,000 mm 0,9 UV-I 189 W/m 3,4 C 8,5 C 17,7 km/h (3 Bft) 96,15 %
19.04.2016 15:39 12,4 C 55 % 1022,5 hPa 0,0 l/m 14,4 km/h (3 Bft) W 271 0 min 0,000 mm 1,0 UV-I 195 W/m 3,6 C 8,3 C 22,5 km/h (4 Bft) 95,83 %
19.04.2016 15:40 12,4 C 54 % 1022,4 hPa 0,0 l/m 13,5 km/h (3 Bft) W 259 0 min 0,000 mm 1,0 UV-I 194 W/m 3,4 C 8,6 C 17,7 km/h (3 Bft) 100,00 %
19.04.2016 15:41 12,4 C 54 % 1022,4 hPa 0,0 l/m 14,3 km/h (3 Bft) W-SW 248 0 min 0,000 mm 1,0 UV-I 186 W/m 3,4 C 8,3 C 20,9 km/h (4 Bft) 100,00 %
19.04.2016 15:42 12,3 C 54 % 1022,4 hPa 0,0 l/m 13,2 km/h (3 Bft) W 275 0 min 0,000 mm 0,9 UV-I 175 W/m 3,3 C 8,6 C 19,3 km/h (3 Bft) 100,00 %
19.04.2016 15:43 12,3 C 53 % 1022,4 hPa 0,0 l/m 12,3 km/h (3 Bft) W-NW 286 0 min 0,000 mm 0,8 UV-I 164 W/m 3,0 C 9,0 C 17,7 km/h (3 Bft) 100,00 %
19.04.2016 15:44 12,3 C 53 % 1022,4 hPa 0,0 l/m 12,6 km/h (3 Bft) W-SW 252 0 min 0,000 mm 0,8 UV-I 162 W/m 3,0 C 8,9 C 16,1 km/h (3 Bft) 100,00 %
19.04.2016 15:45 12,3 C 54 % 1022,5 hPa 0,0 l/m 11,3 km/h (2 Bft) W 265 0 min 0,000 mm 0,8 UV-I 164 W/m 3,3 C 9,5 C 14,5 km/h (3 Bft) 100,00 %
19.04.2016 15:46 12,3 C 55 % 1022,5 hPa 0,0 l/m 7,4 km/h (2 Bft) NW 312 0 min 0,000 mm 0,8 UV-I 168 W/m 3,5 C 11,6 C 14,5 km/h (3 Bft) 100,00 %
19.04.2016 15:47 12,3 C 58 % 1022,5 hPa 0,0 l/m 3,5 km/h (1 Bft) W 266 0 min 0,000 mm 0,9 UV-I 177 W/m 4,3 C 12,3 C 6,4 km/h (2 Bft) 100,00 %
19.04.2016 15:48 12,3 C 57 % 1022,5 hPa 0,0 l/m 12,7 km/h (3 Bft) W 264 0 min 0,000 mm 0,9 UV-I 187 W/m 4,0 C 8,9 C 19,3 km/h (3 Bft) 100,00 %
19.04.2016 15:49 12,3 C 55 % 1022,4 hPa 0,0 l/m 10,8 km/h (2 Bft) W 259 0 min 0,000 mm 1,0 UV-I 196 W/m 3,5 C 9,7 C 16,1 km/h (3 Bft) 100,00 %
19.04.2016 15:50 12,3 C 54 % 1022,4 hPa 0,0 l/m 8,0 km/h (2 Bft) W 269 0 min 0,000 mm 1,0 UV-I 203 W/m 3,3 C 11,3 C 12,9 km/h (3 Bft) 100,00 %
19.04.2016 15:51 12,3 C 54 % 1022,3 hPa 0,0 l/m 9,3 km/h (2 Bft) W-SW 247 0 min 0,000 mm 1,0 UV-I 211 W/m 3,3 C 10,5 C 14,5 km/h (3 Bft) 100,00 %
19.04.2016 15:52 12,3 C 57 % 1022,4 hPa 0,0 l/m 5,9 km/h (2 Bft) W-SW 244 0 min 0,000 mm 1,1 UV-I 216 W/m 4,0 C 12,3 C 8,0 km/h (2 Bft) 100,00 %
19.04.2016 15:53 12,3 C 59 % 1022,3 hPa 0,0 l/m 4,3 km/h (1 Bft) SW 228 0 min 0,000 mm 1,1 UV-I 221 W/m 4,5 C 12,3 C 6,4 km/h (2 Bft) 100,00 %
19.04.2016 15:54 12,3 C 56 % 1022,4 hPa 0,0 l/m 5,8 km/h (2 Bft) S-SW 198 0 min 0,000 mm 1,1 UV-I 229 W/m 3,8 C 12,3 C 12,9 km/h (3 Bft) 100,00 %
19.04.2016 15:55 12,3 C 55 % 1022,3 hPa 0,0 l/m 8,0 km/h (2 Bft) W-SW 238 0 min 0,000 mm 1,2 UV-I 238 W/m 3,5 C 11,3 C 11,3 km/h (2 Bft) 100,00 %
19.04.2016 15:56 12,3 C 56 % 1022,4 hPa 0,0 l/m 12,2 km/h (2 Bft) W 272 0 min 0,000 mm 1,2 UV-I 259 W/m 3,8 C 9,1 C 20,9 km/h (4 Bft) 100,00 %
19.04.2016 15:57 12,3 C 54 % 1022,3 hPa 0,0 l/m 10,7 km/h (2 Bft) W 273 0 min 0,000 mm 1,3 UV-I 301 W/m 3,3 C 9,8 C 14,5 km/h (3 Bft) 100,00 %
19.04.2016 15:58 12,3 C 54 % 1022,4 hPa 0,0 l/m 18,0 km/h (3 Bft) W-SW 252 0 min 0,000 mm 1,4 UV-I 292 W/m 3,3 C 6,9 C 20,9 km/h (4 Bft) 100,00 %
19.04.2016 15:59 12,4 C 54 % 1022,3 hPa 0,0 l/m 10,2 km/h (2 Bft) W 259 0 min 0,000 mm 1,3 UV-I 262 W/m 3,4 C 10,1 C 20,9 km/h (4 Bft) 100,00 %
19.04.2016 16:00 12,4 C 54 % 1022,4 hPa 0,0 l/m 15,6 km/h (3 Bft) W-SW 240 0 min 0,000 mm 1,2 UV-I 244 W/m 3,4 C 7,8 C 19,3 km/h (3 Bft) 100,00 %
19.04.2016 16:01 12,4 C 55 % 1022,4 hPa 0,0 l/m 10,4 km/h (2 Bft) SW 222 0 min 0,229 mm 1,1 UV-I 226 W/m 3,6 C 10,0 C 12,9 km/h (3 Bft) 96,15 %
19.04.2016 16:02 12,4 C 54 % 1022,3 hPa 0,0 l/m 10,1 km/h (2 Bft) W-NW 296 0 min 0,000 mm 1,0 UV-I 209 W/m 3,4 C 10,2 C 12,9 km/h (3 Bft) 100,00 %
19.04.2016 16:03 12,4 C 55 % 1022,4 hPa 0,0 l/m 14,4 km/h (3 Bft) W 259 0 min 0,000 mm 1,0 UV-I 194 W/m 3,6 C 8,3 C 22,5 km/h (4 Bft) 100,00 %
19.04.2016 16:04 12,4 C 55 % 1022,3 hPa 0,0 l/m 15,1 km/h (3 Bft) SW 220 0 min 0,000 mm 0,9 UV-I 178 W/m 3,6 C 8,0 C 19,3 km/h (3 Bft) 100,00 %
19.04.2016 16:05 12,4 C 55 % 1022,3 hPa 0,0 l/m 13,9 km/h (3 Bft) W-SW 242 0 min 0,000 mm 0,8 UV-I 168 W/m 3,6 C 8,5 C 20,9 km/h (4 Bft) 100,00 %
19.04.2016 16:06 12,4 C 54 % 1022,3 hPa 0,0 l/m 10,7 km/h (2 Bft) W-SW 252 0 min 0,000 mm 0,8 UV-I 163 W/m 3,4 C 9,9 C 14,5 km/h (3 Bft) 100,00 %
19.04.2016 16:07 12,4 C 55 % 1022,3 hPa 0,0 l/m 18,2 km/h (3 Bft) W 263 0 min 0,000 mm 0,7 UV-I 162 W/m 3,6 C 6,9 C 24,1 km/h (4 Bft) 100,00 %
19.04.2016 16:08 12,3 C 54 % 1022,3 hPa 0,0 l/m 16,8 km/h (3 Bft) W-SW 250 0 min 0,000 mm 0,7 UV-I 163 W/m 3,3 C 7,3 C 20,9 km/h (4 Bft) 100,00 %
19.04.2016 16:09 12,3 C 54 % 1022,3 hPa 0,0 l/m 13,5 km/h (3 Bft) W 271 0 min 0,000 mm 0,8 UV-I 168 W/m 3,3 C 8,5 C 16,1 km/h (3 Bft) 93,33 %
19.04.2016 16:10 12,3 C 55 % 1022,3 hPa 0,0 l/m 8,6 km/h (2 Bft) W 269 0 min 0,000 mm 0,8 UV-I 180 W/m 3,5 C 10,9 C 12,9 km/h (3 Bft) 100,00 %
19.04.2016 16:11 12,3 C 56 % 1022,3 hPa 0,0 l/m 5,7 km/h (1 Bft) W-SW 252 0 min 0,000 mm 0,9 UV-I 193 W/m 3,8 C 12,3 C 12,9 km/h (3 Bft) 100,00 %
19.04.2016 16:12 12,3 C 56 % 1022,3 hPa 0,0 l/m 8,4 km/h (2 Bft) W-SW 253 0 min 0,000 mm 0,9 UV-I 218 W/m 3,8 C 11,0 C 14,5 km/h (3 Bft) 100,00 %
19.04.2016 16:13 12,3 C 56 % 1022,3 hPa 0,0 l/m 10,2 km/h (2 Bft) W 281 0 min 0,000 mm 1,1 UV-I 305 W/m 3,8 C 10,0 C 16,1 km/h (3 Bft) 100,00 %
19.04.2016 16:14 12,4 C 56 % 1022,4 hPa 0,0 l/m 4,7 km/h (1 Bft) W 276 1 min 0,000 mm 1,3 UV-I 374 W/m 3,9 C 12,4 C 11,3 km/h (2 Bft) 100,00 %
19.04.2016 16:15 12,5 C 57 % 1022,3 hPa 0,0 l/m 6,4 km/h (2 Bft) NW 308 0 min 0,000 mm 1,1 UV-I 310 W/m 4,2 C 12,5 C 11,3 km/h (2 Bft) 96,30 %
19.04.2016 16:16 12,6 C 58 % 1022,4 hPa 0,0 l/m 6,5 km/h (2 Bft) W-SW 251 0 min 0,000 mm 1,1 UV-I 239 W/m 4,6 C 12,6 C 9,7 km/h (2 Bft) 100,00 %
19.04.2016 16:17 12,6 C 57 % 1022,4 hPa 0,0 l/m 7,0 km/h (2 Bft) W 279 0 min 0,000 mm 1,0 UV-I 231 W/m 4,3 C 12,2 C 11,3 km/h (2 Bft) 95,83 %
19.04.2016 16:18 12,7 C 58 % 1022,3 hPa 0,0 l/m 3,5 km/h (1 Bft) W 269 0 min 0,000 mm 1,0 UV-I 222 W/m 4,7 C 12,7 C 6,4 km/h (2 Bft) 95,65 %
19.04.2016 16:19 12,7 C 59 % 1022,3 hPa 0,0 l/m 5,2 km/h (1 Bft) W-NW 297 0 min 0,000 mm 1,0 UV-I 215 W/m 4,9 C 12,7 C 9,7 km/h (2 Bft) 96,67 %
19.04.2016 16:20 12,7 C 58 % 1022,4 hPa 0,0 l/m 5,4 km/h (1 Bft) W-NW 292 0 min 0,000 mm 1,0 UV-I 206 W/m 4,7 C 12,7 C 17,7 km/h (3 Bft) 95,65 %
19.04.2016 16:21 12,6 C 55 % 1022,3 hPa 0,0 l/m 12,8 km/h (3 Bft) W-SW 247 0 min 0,000 mm 0,9 UV-I 196 W/m 3,8 C 9,2 C 19,3 km/h (3 Bft) 100,00 %
19.04.2016 16:22 12,6 C 57 % 1022,4 hPa 0,0 l/m 8,6 km/h (2 Bft) W-SW 255 0 min 0,000 mm 0,9 UV-I 186 W/m 4,3 C 11,2 C 14,5 km/h (3 Bft) 96,15 %
19.04.2016 16:23 12,5 C 55 % 1022,4 hPa 0,0 l/m 12,1 km/h (2 Bft) W 268 0 min 0,000 mm 0,8 UV-I 176 W/m 3,7 C 9,3 C 14,5 km/h (3 Bft) 100,00 %
19.04.2016 16:24 12,4 C 55 % 1022,4 hPa 0,0 l/m 16,3 km/h (3 Bft) W-SW 254 0 min 0,000 mm 0,7 UV-I 164 W/m 3,6 C 7,6 C 20,9 km/h (4 Bft) 92,31 %
19.04.2016 16:25 12,4 C 53 % 1022,4 hPa 0,0 l/m 9,5 km/h (2 Bft) W 279 0 min 0,000 mm 0,7 UV-I 157 W/m 3,1 C 10,5 C 19,3 km/h (3 Bft) 100,00 %
19.04.2016 16:26 12,4 C 54 % 1022,4 hPa 0,0 l/m 3,9 km/h (1 Bft) NW 304 0 min 0,000 mm 0,7 UV-I 157 W/m 3,4 C 12,4 C 6,4 km/h (2 Bft) 96,30 %
19.04.2016 16:27 12,3 C 57 % 1022,4 hPa 0,0 l/m 9,3 km/h (2 Bft) W-SW 254 0 min 0,000 mm 0,7 UV-I 166 W/m 4,0 C 10,5 C 14,5 km/h (3 Bft) 92,31 %
19.04.2016 16:28 12,3 C 56 % 1022,3 hPa 0,0 l/m 8,6 km/h (2 Bft) SW 234 0 min 0,000 mm 0,7 UV-I 179 W/m 3,8 C 10,9 C 12,9 km/h (3 Bft) 100,00 %
19.04.2016 16:29 12,3 C 56 % 1022,4 hPa 0,0 l/m 14,5 km/h (3 Bft) W-SW 244 0 min 0,000 mm 0,8 UV-I 194 W/m 3,8 C 8,1 C 20,9 km/h (4 Bft) 96,15 %
19.04.2016 16:30 12,3 C 54 % 1022,3 hPa 0,0 l/m 12,9 km/h (3 Bft) W 277 0 min 0,000 mm 0,8 UV-I 211 W/m 3,3 C 8,8 C 16,1 km/h (3 Bft) 96,30 %
19.04.2016 16:31 12,3 C 54 % 1022,3 hPa 0,0 l/m 5,6 km/h (1 Bft) W-NW 284 0 min 0,000 mm 0,8 UV-I 225 W/m 3,3 C 12,3 C 11,3 km/h (2 Bft) 92,31 %
19.04.2016 16:32 12,3 C 55 % 1022,3 hPa 0,0 l/m 5,0 km/h (1 Bft) W 272 0 min 0,000 mm 0,9 UV-I 240 W/m 3,5 C 12,3 C 6,4 km/h (2 Bft) 95,83 %
19.04.2016 16:33 12,3 C 57 % 1022,2 hPa 0,0 l/m 2,7 km/h (1 Bft) W 266 0 min 0,000 mm 0,9 UV-I 249 W/m 4,0 C 12,3 C 4,8 km/h (1 Bft) 100,00 %
19.04.2016 16:34 12,3 C 58 % 1022,3 hPa 0,0 l/m 1,3 km/h (1 Bft) W 271 0 min 0,000 mm 1,0 UV-I 261 W/m 4,3 C 12,3 C 3,2 km/h (1 Bft) 100,00 %
19.04.2016 16:35 12,3 C 56 % 1022,3 hPa 0,0 l/m 7,0 km/h (2 Bft) SW 223 0 min 0,000 mm 1,0 UV-I 276 W/m 3,8 C 11,9 C 14,5 km/h (3 Bft) 96,55 %
19.04.2016 16:36 12,3 C 56 % 1022,4 hPa 0,0 l/m 10,0 km/h (2 Bft) W 275 1 min 0,000 mm 1,1 UV-I 301 W/m 3,8 C 10,1 C 12,9 km/h (3 Bft) 96,97 %
19.04.2016 16:37 12,4 C 58 % 1022,4 hPa 0,0 l/m 8,4 km/h (2 Bft) W-SW 257 1 min 0,000 mm 1,1 UV-I 321 W/m 4,4 C 11,1 C 16,1 km/h (3 Bft) 100,00 %
19.04.2016 16:38 12,5 C 57 % 1022,4 hPa 0,0 l/m 8,7 km/h (2 Bft) W-SW 256 1 min 0,000 mm 1,2 UV-I 353 W/m 4,2 C 11,1 C 16,1 km/h (3 Bft) 96,30 %
19.04.2016 16:39 12,6 C 55 % 1022,4 hPa 0,0 l/m 17,0 km/h (3 Bft) W 274 1 min 0,000 mm 1,2 UV-I 353 W/m 3,8 C 7,6 C 22,5 km/h (4 Bft) 100,00 %
19.04.2016 16:40 12,6 C 54 % 1022,4 hPa 0,0 l/m 12,7 km/h (3 Bft) N-NW 330 1 min 0,000 mm 1,1 UV-I 305 W/m 3,5 C 9,2 C 19,3 km/h (3 Bft) 96,30 %
19.04.2016 16:41 12,6 C 55 % 1022,4 hPa 0,0 l/m 4,8 km/h (1 Bft) W-SW 246 0 min 0,000 mm 1,1 UV-I 268 W/m 3,8 C 12,6 C 8,0 km/h (2 Bft) 95,65 %
19.04.2016 16:42 12,6 C 55 % 1022,4 hPa 0,0 l/m 8,5 km/h (2 Bft) W-NW 296 0 min 0,000 mm 1,1 UV-I 250 W/m 3,8 C 11,3 C 19,3 km/h (3 Bft) 100,00 %
19.04.2016 16:43 12,6 C 56 % 1022,3 hPa 0,0 l/m 4,7 km/h (1 Bft) W-SW 240 0 min 0,000 mm 1,0 UV-I 237 W/m 4,1 C 12,6 C 11,3 km/h (2 Bft) 100,00 %
19.04.2016 16:44 12,6 C 58 % 1022,4 hPa 0,0 l/m 6,1 km/h (2 Bft) NW 323 0 min 0,000 mm 1,0 UV-I 230 W/m 4,6 C 12,6 C 16,1 km/h (3 Bft) 96,30 %
19.04.2016 16:45 12,6 C 55 % 1022,4 hPa 0,0 l/m 6,6 km/h (2 Bft) N-NW 332 0 min 0,000 mm 0,9 UV-I 217 W/m 3,8 C 12,5 C 14,5 km/h (3 Bft) 94,44 %
19.04.2016 16:46 12,5 C 57 % 1022,3 hPa 0,0 l/m 7,0 km/h (2 Bft) W-NW 296 0 min 0,000 mm 0,9 UV-I 204 W/m 4,2 C 12,1 C 12,9 km/h (3 Bft) 100,00 %
19.04.2016 16:47 12,5 C 57 % 1022,4 hPa 0,0 l/m 5,3 km/h (1 Bft) W 263 0 min 0,000 mm 0,9 UV-I 197 W/m 4,2 C 12,5 C 11,3 km/h (2 Bft) 95,83 %
19.04.2016 16:48 12,4 C 54 % 1022,3 hPa 0,0 l/m 7,6 km/h (2 Bft) W-SW 255 0 min 0,000 mm 0,9 UV-I 188 W/m 3,4 C 11,6 C 14,5 km/h (3 Bft) 100,00 %
19.04.2016 16:49 12,4 C 56 % 1022,3 hPa 0,0 l/m 7,6 km/h (2 Bft) NW 311 0 min 0,000 mm 0,8 UV-I 180 W/m 3,9 C 11,6 C 14,5 km/h (3 Bft) 94,44 %
19.04.2016 16:50 12,3 C 56 % 1022,3 hPa 0,0 l/m 2,7 km/h (1 Bft) NW 324 0 min 0,000 mm 0,8 UV-I 174 W/m 3,8 C 12,3 C 6,4 km/h (2 Bft) 92,31 %
19.04.2016 16:51 12,3 C 58 % 1022,3 hPa 0,0 l/m 2,5 km/h (1 Bft) W-NW 296 0 min 0,000 mm 0,7 UV-I 165 W/m 4,3 C 12,3 C 4,8 km/h (1 Bft) 100,00 %
19.04.2016 16:52 12,3 C 60 % 1022,2 hPa 0,0 l/m 1,8 km/h (1 Bft) W 273 0 min 0,000 mm 0,6 UV-I 157 W/m 4,8 C 12,3 C 3,2 km/h (1 Bft) 100,00 %
19.04.2016 16:53 12,3 C 59 % 1022,3 hPa 0,0 l/m 9,8 km/h (2 Bft) W-NW 290 0 min 0,000 mm 0,6 UV-I 144 W/m 4,5 C 10,2 C 14,5 km/h (3 Bft) 100,00 %
19.04.2016 16:54 12,3 C 57 % 1022,3 hPa 0,0 l/m 7,7 km/h (2 Bft) W-NW 294 0 min 0,000 mm 0,5 UV-I 131 W/m 4,0 C 11,5 C 12,9 km/h (3 Bft) 96,15 %
19.04.2016 16:55 12,2 C 56 % 1022,3 hPa 0,0 l/m 10,7 km/h (2 Bft) W 279 0 min 0,000 mm 0,4 UV-I 120 W/m 3,7 C 9,7 C 17,7 km/h (3 Bft) 100,00 %
19.04.2016 16:56 12,2 C 55 % 1022,2 hPa 0,0 l/m 10,1 km/h (2 Bft) NW 317 0 min 0,000 mm 0,0 UV-I 113 W/m 3,4 C 10,0 C 16,1 km/h (3 Bft) 92,86 %
19.04.2016 16:57 12,2 C 55 % 1022,2 hPa 0,0 l/m 8,3 km/h (2 Bft) W 266 0 min 0,000 mm 0,0 UV-I 110 W/m 3,4 C 11,0 C 12,9 km/h (3 Bft) 100,00 %
19.04.2016 16:58 12,1 C 55 % 1022,2 hPa 0,0 l/m 10,3 km/h (2 Bft) W 280 0 min 0,000 mm 0,0 UV-I 107 W/m 3,3 C 9,8 C 25,7 km/h (4 Bft) 100,00 %
19.04.2016 16:59 12,1 C 53 % 1022,2 hPa 0,0 l/m 10,1 km/h (2 Bft) W 263 0 min 0,000 mm 0,0 UV-I 109 W/m 2,8 C 9,9 C 14,5 km/h (3 Bft) 100,00 %
19.04.2016 17:00 12,1 C 54 % 1022,2 hPa 0,0 l/m 13,2 km/h (3 Bft) W 268 0 min 0,000 mm 0,0 UV-I 109 W/m 3,1 C 8,4 C 20,9 km/h (4 Bft) 100,00 %
19.04.2016 17:01 12,1 C 54 % 1022,2 hPa 0,0 l/m 8,0 km/h (2 Bft) W 262 0 min 0,152 mm 0,0 UV-I 108 W/m 3,1 C 11,1 C 11,3 km/h (2 Bft) 100,00 %
19.04.2016 17:02 12,1 C 56 % 1022,2 hPa 0,0 l/m 11,2 km/h (2 Bft) W-NW 290 0 min 0,000 mm 0,0 UV-I 106 W/m 3,6 C 9,3 C 14,5 km/h (3 Bft) 100,00 %
19.04.2016 17:03 12,0 C 55 % 1022,2 hPa 0,0 l/m 8,0 km/h (2 Bft) W 273 0 min 0,000 mm 0,0 UV-I 106 W/m 3,2 C 11,0 C 14,5 km/h (3 Bft) 100,00 %
19.04.2016 17:04 12,0 C 54 % 1022,2 hPa 0,0 l/m 10,4 km/h (2 Bft) W 277 0 min 0,000 mm 0,0 UV-I 113 W/m 3,0 C 9,6 C 12,9 km/h (3 Bft) 100,00 %
19.04.2016 17:05 12,0 C 55 % 1022,2 hPa 0,0 l/m 4,8 km/h (1 Bft) W-SW 255 0 min 0,000 mm 0,0 UV-I 128 W/m 3,2 C 12,0 C 12,9 km/h (3 Bft) 100,00 %
19.04.2016 17:06 12,0 C 57 % 1022,2 hPa 0,0 l/m 8,2 km/h (2 Bft) W-SW 257 0 min 0,000 mm 0,5 UV-I 148 W/m 3,8 C 10,8 C 14,5 km/h (3 Bft) 100,00 %
19.04.2016 17:07 12,0 C 55 % 1022,1 hPa 0,0 l/m 11,7 km/h (2 Bft) W-SW 254 0 min 0,000 mm 0,5 UV-I 183 W/m 3,2 C 9,0 C 17,7 km/h (3 Bft) 100,00 %
19.04.2016 17:08 12,0 C 55 % 1022,2 hPa 0,0 l/m 6,2 km/h (2 Bft) W 263 0 min 0,000 mm 0,6 UV-I 179 W/m 3,2 C 12,0 C 11,3 km/h (2 Bft) 100,00 %
19.04.2016 17:09 12,0 C 56 % 1022,2 hPa 0,0 l/m 9,3 km/h (2 Bft) W-SW 239 0 min 0,000 mm 0,6 UV-I 195 W/m 3,5 C 10,2 C 16,1 km/h (3 Bft) 97,56 %
19.04.2016 17:10 12,0 C 56 % 1022,1 hPa 0,0 l/m 13,4 km/h (3 Bft) W-SW 256 0 min 0,000 mm 0,7 UV-I 210 W/m 3,5 C 8,2 C 17,7 km/h (3 Bft) 100,00 %
19.04.2016 17:11 12,1 C 57 % 1022,2 hPa 0,0 l/m 5,1 km/h (1 Bft) W 259 0 min 0,000 mm 0,7 UV-I 220 W/m 3,8 C 12,1 C 11,3 km/h (2 Bft) 100,00 %
19.04.2016 17:12 12,1 C 57 % 1022,2 hPa 0,0 l/m 7,1 km/h (2 Bft) W-NW 300 0 min 0,000 mm 0,7 UV-I 244 W/m 3,8 C 11,6 C 11,3 km/h (2 Bft) 100,00 %
19.04.2016 17:13 12,2 C 58 % 1022,2 hPa 0,0 l/m 9,0 km/h (2 Bft) W-SW 249 1 min 0,000 mm 0,8 UV-I 269 W/m 4,2 C 10,6 C 17,7 km/h (3 Bft) 100,00 %
19.04.2016 17:15 12,3 C 56 % 1022,2 hPa 0,0 l/m 4,6 km/h (1 Bft) SW 223 2 min 0,000 mm 0,8 UV-I 246 W/m 3,8 C 12,3 C 8,0 km/h (2 Bft) 98,08 %
19.04.2016 17:21 12,3 C 55 % 1022,2 hPa 0,0 l/m 12,4 km/h (3 Bft) W 265 0 min 0,000 mm 0,6 UV-I 182 W/m 3,5 C 9,0 C 16,1 km/h (3 Bft) 100,00 %
19.04.2016 17:22 12,3 C 55 % 1022,2 hPa 0,0 l/m 17,1 km/h (3 Bft) W-SW 247 0 min 0,000 mm 0,6 UV-I 174 W/m 3,5 C 7,2 C 22,5 km/h (4 Bft) 100,00 %
19.04.2016 17:23 12,2 C 54 % 1022,2 hPa 0,0 l/m 18,0 km/h (3 Bft) W 267 0 min 0,000 mm 0,6 UV-I 170 W/m 3,2 C 6,7 C 22,5 km/h (4 Bft) 100,00 %
19.04.2016 17:24 12,2 C 54 % 1022,2 hPa 0,0 l/m 15,1 km/h (3 Bft) W 262 0 min 0,000 mm 0,6 UV-I 164 W/m 3,2 C 7,8 C 22,5 km/h (4 Bft) 100,00 %
19.04.2016 17:25 12,2 C 55 % 1022,2 hPa 0,0 l/m 11,8 km/h (2 Bft) W 266 0 min 0,000 mm 0,6 UV-I 161 W/m 3,4 C 9,1 C 17,7 km/h (3 Bft) 100,00 %
19.04.2016 17:26 12,2 C 56 % 1022,2 hPa 0,0 l/m 9,5 km/h (2 Bft) W 271 0 min 0,000 mm 0,5 UV-I 158 W/m 3,7 C 10,3 C 16,1 km/h (3 Bft) 100,00 %
19.04.2016 17:27 12,2 C 55 % 1022,2 hPa 0,0 l/m 7,5 km/h (2 Bft) W-SW 240 0 min 0,000 mm 0,5 UV-I 153 W/m 3,4 C 11,5 C 11,3 km/h (2 Bft) 100,00 %
19.04.2016 17:28 12,2 C 55 % 1022,2 hPa 0,0 l/m 10,8 km/h (2 Bft) W 271 0 min 0,000 mm 0,5 UV-I 148 W/m 3,4 C 9,6 C 16,1 km/h (3 Bft) 100,00 %
19.04.2016 17:29 12,2 C 55 % 1022,2 hPa 0,0 l/m 15,4 km/h (3 Bft) W-SW 244 0 min 0,000 mm 0,5 UV-I 138 W/m 3,4 C 7,6 C 24,1 km/h (4 Bft) 96,15 %
19.04.2016 17:30 12,2 C 56 % 1022,2 hPa 0,0 l/m 15,1 km/h (3 Bft) W-SW 252 0 min 0,000 mm 0,0 UV-I 133 W/m 3,7 C 7,8 C 19,3 km/h (3 Bft) 93,33 %
19.04.2016 17:31 12,1 C 55 % 1022,2 hPa 0,0 l/m 13,5 km/h (3 Bft) W-SW 238 0 min 0,000 mm 0,0 UV-I 129 W/m 3,3 C 8,3 C 17,7 km/h (3 Bft) 100,00 %
19.04.2016 17:32 12,1 C 56 % 1022,2 hPa 0,0 l/m 11,4 km/h (2 Bft) W-SW 253 0 min 0,000 mm 0,0 UV-I 125 W/m 3,6 C 9,2 C 16,1 km/h (3 Bft) 100,00 %
19.04.2016 17:33 12,1 C 56 % 1022,2 hPa 0,0 l/m 8,0 km/h (2 Bft) W 265 0 min 0,000 mm 0,0 UV-I 121 W/m 3,6 C 11,1 C 9,7 km/h (2 Bft) 100,00 %
19.04.2016 17:34 12,1 C 56 % 1022,2 hPa 0,0 l/m 6,8 km/h (2 Bft) W 276 0 min 0,000 mm 0,0 UV-I 116 W/m 3,6 C 11,8 C 11,3 km/h (2 Bft) 100,00 %
19.04.2016 17:35 12,1 C 58 % 1022,2 hPa 0,0 l/m 4,9 km/h (1 Bft) W-SW 243 0 min 0,000 mm 0,0 UV-I 112 W/m 4,1 C 12,1 C 8,0 km/h (2 Bft) 100,00 %
19.04.2016 17:36 12,1 C 57 % 1022,2 hPa 0,0 l/m 9,5 km/h (2 Bft) W 279 0 min 0,000 mm 0,0 UV-I 110 W/m 3,8 C 10,2 C 14,5 km/h (3 Bft) 100,00 %
19.04.2016 17:37 12,1 C 57 % 1022,2 hPa 0,0 l/m 11,4 km/h (2 Bft) SW 227 0 min 0,000 mm 0,0 UV-I 107 W/m 3,8 C 9,2 C 17,7 km/h (3 Bft) 100,00 %
19.04.2016 17:38 12,1 C 57 % 1022,3 hPa 0,0 l/m 10,6 km/h (2 Bft) W 264 0 min 0,000 mm 0,0 UV-I 104 W/m 3,8 C 9,6 C 14,5 km/h (3 Bft) 100,00 %
19.04.2016 17:39 12,1 C 57 % 1022,2 hPa 0,0 l/m 8,6 km/h (2 Bft) W-SW 249 0 min 0,000 mm 0,0 UV-I 102 W/m 3,8 C 10,7 C 12,9 km/h (3 Bft) 100,00 %
19.04.2016 17:40 12,1 C 58 % 1022,3 hPa 0,0 l/m 9,4 km/h (2 Bft) W 277 0 min 0,000 mm 0,0 UV-I 102 W/m 4,1 C 10,2 C 11,3 km/h (2 Bft) 100,00 %
19.04.2016 17:41 12,1 C 58 % 1022,3 hPa 0,0 l/m 5,3 km/h (1 Bft) W 260 0 min 0,000 mm 0,0 UV-I 104 W/m 4,1 C 12,1 C 12,9 km/h (3 Bft) 100,00 %
19.04.2016 17:42 12,1 C 58 % 1022,3 hPa 0,0 l/m 10,7 km/h (2 Bft) W-SW 256 0 min 0,000 mm 0,0 UV-I 108 W/m 4,1 C 9,6 C 16,1 km/h (3 Bft) 100,00 %
19.04.2016 17:43 12,1 C 57 % 1022,3 hPa 0,0 l/m 9,4 km/h (2 Bft) W 271 0 min 0,000 mm 0,0 UV-I 118 W/m 3,8 C 10,2 C 14,5 km/h (3 Bft) 100,00 %
19.04.2016 17:44 12,1 C 58 % 1022,3 hPa 0,0 l/m 3,4 km/h (1 Bft) W 271 0 min 0,000 mm 0,0 UV-I 133 W/m 4,1 C 12,1 C 6,4 km/h (2 Bft) 96,15 %
19.04.2016 17:45 12,1 C 60 % 1022,2 hPa 0,0 l/m 4,0 km/h (1 Bft) SW 231 0 min 0,000 mm 0,0 UV-I 150 W/m 4,6 C 12,1 C 11,3 km/h (2 Bft) 95,83 %
19.04.2016 17:46 12,1 C 58 % 1022,3 hPa 0,0 l/m 7,0 km/h (2 Bft) W-NW 283 0 min 0,000 mm 0,0 UV-I 160 W/m 4,1 C 11,7 C 11,3 km/h (2 Bft) 96,55 %
19.04.2016 17:47 12,1 C 58 % 1022,2 hPa 0,0 l/m 9,2 km/h (2 Bft) W 271 0 min 0,000 mm 0,0 UV-I 156 W/m 4,1 C 10,3 C 16,1 km/h (3 Bft) 100,00 %
19.04.2016 17:48 12,1 C 57 % 1022,2 hPa 0,0 l/m 7,2 km/h (2 Bft) W 272 0 min 0,000 mm 0,0 UV-I 149 W/m 3,8 C 11,6 C 12,9 km/h (3 Bft) 100,00 %
19.04.2016 17:49 12,1 C 55 % 1022,3 hPa 0,0 l/m 6,6 km/h (2 Bft) W 278 0 min 0,000 mm 0,0 UV-I 147 W/m 3,3 C 12,0 C 14,5 km/h (3 Bft) 96,15 %
19.04.2016 17:50 12,1 C 55 % 1022,3 hPa 0,0 l/m 7,8 km/h (2 Bft) SW 224 0 min 0,000 mm 0,0 UV-I 145 W/m 3,3 C 11,2 C 14,5 km/h (3 Bft) 100,00 %
19.04.2016 17:51 12,1 C 55 % 1022,3 hPa 0,0 l/m 15,9 km/h (3 Bft) W-SW 247 0 min 0,000 mm 0,0 UV-I 142 W/m 3,3 C 7,3 C 25,7 km/h (4 Bft) 100,00 %
19.04.2016 17:52 12,1 C 55 % 1022,3 hPa 0,0 l/m 8,2 km/h (2 Bft) W 272 0 min 0,000 mm 0,0 UV-I 141 W/m 3,3 C 10,9 C 14,5 km/h (3 Bft) 100,00 %
19.04.2016 17:53 12,1 C 55 % 1022,3 hPa 0,0 l/m 3,5 km/h (1 Bft) W 261 0 min 0,000 mm 0,0 UV-I 135 W/m 3,3 C 12,1 C 6,4 km/h (2 Bft) 100,00 %
19.04.2016 17:54 12,1 C 55 % 1022,3 hPa 0,0 l/m 4,2 km/h (1 Bft) W-NW 286 0 min 0,000 mm 0,0 UV-I 128 W/m 3,3 C 12,1 C 6,4 km/h (2 Bft) 100,00 %
19.04.2016 17:55 12,1 C 56 % 1022,3 hPa 0,0 l/m 4,9 km/h (1 Bft) W-NW 298 0 min 0,000 mm 0,0 UV-I 118 W/m 3,6 C 12,1 C 12,9 km/h (3 Bft) 100,00 %
19.04.2016 17:56 12,0 C 58 % 1022,3 hPa 0,0 l/m 4,3 km/h (1 Bft) W 273 0 min 0,000 mm 0,0 UV-I 110 W/m 4,0 C 12,0 C 6,4 km/h (2 Bft) 100,00 %
19.04.2016 17:57 12,0 C 58 % 1022,3 hPa 0,0 l/m 3,8 km/h (1 Bft) W-NW 296 0 min 0,000 mm 0,0 UV-I 103 W/m 4,0 C 12,0 C 8,0 km/h (2 Bft) 100,00 %
19.04.2016 17:58 12,0 C 58 % 1022,3 hPa 0,0 l/m 6,3 km/h (2 Bft) W 265 0 min 0,000 mm 0,0 UV-I 97 W/m 4,0 C 12,0 C 9,7 km/h (2 Bft) 100,00 %
19.04.2016 17:59 12,0 C 57 % 1022,3 hPa 0,0 l/m 6,7 km/h (2 Bft) W-NW 292 0 min 0,000 mm 0,0 UV-I 94 W/m 3,8 C 11,8 C 11,3 km/h (2 Bft) 100,00 %
19.04.2016 18:00 11,9 C 57 % 1022,2 hPa 0,0 l/m 12,5 km/h (3 Bft) W 279 0 min 0,000 mm 0,0 UV-I 90 W/m 3,7 C 8,5 C 19,3 km/h (3 Bft) 100,00 %
19.04.2016 18:01 11,9 C 55 % 1022,3 hPa 0,0 l/m 12,4 km/h (3 Bft) W 268 0 min 0,127 mm 0,0 UV-I 85 W/m 3,2 C 8,5 C 16,1 km/h (3 Bft) 100,00 %
19.04.2016 18:02 11,9 C 57 % 1022,3 hPa 0,0 l/m 4,5 km/h (1 Bft) W 263 0 min 0,000 mm 0,0 UV-I 80 W/m 3,7 C 11,9 C 6,4 km/h (2 Bft) 100,00 %
19.04.2016 18:03 11,9 C 57 % 1022,3 hPa 0,0 l/m 3,9 km/h (1 Bft) W 279 0 min 0,000 mm 0,0 UV-I 74 W/m 3,7 C 11,9 C 9,7 km/h (2 Bft) 100,00 %
19.04.2016 18:04 11,9 C 58 % 1022,3 hPa 0,0 l/m 2,0 km/h (1 Bft) W 271 0 min 0,000 mm 0,0 UV-I 68 W/m 3,9 C 11,9 C 4,8 km/h (1 Bft) 100,00 %
19.04.2016 18:05 11,8 C 58 % 1022,3 hPa 0,0 l/m 3,9 km/h (1 Bft) N-NW 342 0 min 0,000 mm 0,0 UV-I 64 W/m 3,8 C 11,8 C 6,4 km/h (2 Bft) 100,00 %
19.04.2016 18:06 11,8 C 58 % 1022,3 hPa 0,0 l/m 8,5 km/h (2 Bft) W-NW 294 0 min 0,000 mm 0,0 UV-I 62 W/m 3,8 C 10,4 C 11,3 km/h (2 Bft) 96,15 %
19.04.2016 18:07 11,8 C 59 % 1022,4 hPa 0,0 l/m 7,2 km/h (2 Bft) W 277 0 min 0,000 mm 0,0 UV-I 61 W/m 4,1 C 11,3 C 17,7 km/h (3 Bft) 100,00 %
19.04.2016 18:08 11,8 C 57 % 1022,3 hPa 0,0 l/m 8,6 km/h (2 Bft) W 277 0 min 0,000 mm 0,0 UV-I 60 W/m 3,6 C 10,4 C 16,1 km/h (3 Bft) 96,15 %
19.04.2016 18:09 11,8 C 59 % 1022,3 hPa 0,0 l/m 3,0 km/h (1 Bft) W 278 0 min 0,000 mm 0,0 UV-I 58 W/m 4,1 C 11,8 C 4,8 km/h (1 Bft) 100,00 %
19.04.2016 18:10 11,7 C 60 % 1022,3 hPa 0,0 l/m 3,4 km/h (1 Bft) W 265 0 min 0,000 mm 0,0 UV-I 58 W/m 4,2 C 11,7 C 4,8 km/h (1 Bft) 95,83 %
19.04.2016 18:11 11,7 C 58 % 1022,4 hPa 0,0 l/m 3,8 km/h (1 Bft) W 281 0 min 0,000 mm 0,0 UV-I 58 W/m 3,7 C 11,7 C 6,4 km/h (2 Bft) 100,00 %
19.04.2016 18:12 11,7 C 59 % 1022,4 hPa 0,0 l/m 6,3 km/h (2 Bft) W-SW 250 0 min 0,000 mm 0,0 UV-I 60 W/m 4,0 C 11,7 C 11,3 km/h (2 Bft) 100,00 %
19.04.2016 18:13 11,7 C 60 % 1022,4 hPa 0,0 l/m 5,0 km/h (1 Bft) W-SW 247 0 min 0,000 mm 0,0 UV-I 64 W/m 4,2 C 11,7 C 9,7 km/h (2 Bft) 96,15 %
19.04.2016 18:14 11,7 C 59 % 1022,4 hPa 0,0 l/m 5,8 km/h (2 Bft) W 275 0 min 0,000 mm 0,0 UV-I 70 W/m 4,0 C 11,7 C 9,7 km/h (2 Bft) 100,00 %
19.04.2016 18:15 11,6 C 60 % 1022,4 hPa 0,0 l/m 3,2 km/h (1 Bft) SW 231 0 min 0,000 mm 0,0 UV-I 72 W/m 4,1 C 11,6 C 4,8 km/h (1 Bft) 100,00 %
19.04.2016 18:16 11,6 C 60 % 1022,4 hPa 0,0 l/m 3,6 km/h (1 Bft) W-NW 284 0 min 0,000 mm 0,0 UV-I 72 W/m 4,1 C 11,6 C 6,4 km/h (2 Bft) 96,15 %
19.04.2016 18:17 11,7 C 60 % 1022,5 hPa 0,0 l/m 3,4 km/h (1 Bft) W 266 0 min 0,000 mm 0,0 UV-I 76 W/m 4,2 C 11,7 C 6,4 km/h (2 Bft) 100,00 %
19.04.2016 18:18 11,6 C 59 % 1022,4 hPa 0,0 l/m 3,8 km/h (1 Bft) W-SW 253 0 min 0,000 mm 0,0 UV-I 83 W/m 3,9 C 11,6 C 4,8 km/h (1 Bft) 94,12 %
19.04.2016 18:19 11,7 C 58 % 1022,4 hPa 0,0 l/m 8,4 km/h (2 Bft) W-NW 296 0 min 0,000 mm 0,0 UV-I 84 W/m 3,7 C 10,4 C 12,9 km/h (3 Bft) 100,00 %
19.04.2016 18:20 11,7 C 59 % 1022,4 hPa 0,0 l/m 6,4 km/h (2 Bft) W 281 0 min 0,000 mm 0,0 UV-I 78 W/m 4,0 C 11,7 C 9,7 km/h (2 Bft) 96,15 %
19.04.2016 18:21 11,7 C 58 % 1022,5 hPa 0,0 l/m 5,0 km/h (1 Bft) W 270 0 min 0,000 mm 0,0 UV-I 72 W/m 3,7 C 11,7 C 11,3 km/h (2 Bft) 100,00 %
19.04.2016 18:22 11,7 C 58 % 1022,5 hPa 0,0 l/m 7,3 km/h (2 Bft) W 265 0 min 0,000 mm 0,0 UV-I 69 W/m 3,7 C 11,1 C 11,3 km/h (2 Bft) 95,65 %
19.04.2016 18:23 11,7 C 59 % 1022,5 hPa 0,0 l/m 6,0 km/h (2 Bft) W-NW 292 0 min 0,000 mm 0,0 UV-I 69 W/m 4,0 C 11,7 C 9,7 km/h (2 Bft) 100,00 %
19.04.2016 18:24 11,7 C 59 % 1022,5 hPa 0,0 l/m 6,8 km/h (2 Bft) W-SW 251 0 min 0,000 mm 0,0 UV-I 72 W/m 4,0 C 11,4 C 12,9 km/h (3 Bft) 91,67 %
19.04.2016 18:25 11,7 C 60 % 1022,5 hPa 0,0 l/m 8,7 km/h (2 Bft) W 261 0 min 0,000 mm 0,0 UV-I 76 W/m 4,2 C 10,2 C 12,9 km/h (3 Bft) 100,00 %
19.04.2016 18:26 11,7 C 59 % 1022,5 hPa 0,0 l/m 4,3 km/h (1 Bft) W 261 0 min 0,000 mm 0,0 UV-I 80 W/m 4,0 C 11,7 C 6,4 km/h (2 Bft) 95,83 %
19.04.2016 18:30 11,7 C 58 % 1022,4 hPa 0,0 l/m 4,8 km/h (1 Bft) W 270 0 min 0,000 mm 0,0 UV-I 98 W/m 3,7 C 11,7 C 16,1 km/h (3 Bft) 100,00 %
19.04.2016 18:33 11,7 C 59 % 1022,4 hPa 0,0 l/m 10,9 km/h (2 Bft) W 261 0 min 0,000 mm 0,0 UV-I 88 W/m 4,0 C 9,0 C 16,1 km/h (3 Bft) 96,95 %
19.04.2016 18:34 11,7 C 58 % 1022,4 hPa 0,0 l/m 6,6 km/h (2 Bft) NO 35 0 min 0,000 mm 0,0 UV-I 97 W/m 3,7 C 11,6 C 14,5 km/h (3 Bft) 100,00 %
19.04.2016 18:35 11,7 C 58 % 1022,4 hPa 0,0 l/m 7,1 km/h (2 Bft) W 268 0 min 0,000 mm 0,0 UV-I 97 W/m 3,7 C 11,2 C 12,9 km/h (3 Bft) 95,65 %
19.04.2016 18:36 11,7 C 59 % 1022,4 hPa 0,0 l/m 4,8 km/h (1 Bft) W-NW 302 0 min 0,000 mm 0,0 UV-I 92 W/m 4,0 C 11,7 C 11,3 km/h (2 Bft) 95,83 %
19.04.2016 18:37 11,7 C 59 % 1022,4 hPa 0,0 l/m 4,1 km/h (1 Bft) W 279 0 min 0,000 mm 0,0 UV-I 88 W/m 4,0 C 11,7 C 11,3 km/h (2 Bft) 100,00 %
19.04.2016 18:38 11,7 C 58 % 1022,4 hPa 0,0 l/m 10,4 km/h (2 Bft) W 259 0 min 0,000 mm 0,0 UV-I 84 W/m 3,7 C 9,3 C 14,5 km/h (3 Bft) 93,10 %
19.04.2016 18:39 11,7 C 58 % 1022,4 hPa 0,0 l/m 6,8 km/h (2 Bft) W 266 0 min 0,000 mm 0,0 UV-I 76 W/m 3,7 C 11,4 C 12,9 km/h (3 Bft) 100,00 %
19.04.2016 18:40 11,7 C 58 % 1022,4 hPa 0,0 l/m 6,4 km/h (2 Bft) W-NW 292 0 min 0,000 mm 0,0 UV-I 73 W/m 3,7 C 11,7 C 11,3 km/h (2 Bft) 95,83 %
19.04.2016 18:41 11,7 C 58 % 1022,4 hPa 0,0 l/m 6,6 km/h (2 Bft) W 265 0 min 0,000 mm 0,0 UV-I 68 W/m 3,7 C 11,6 C 14,5 km/h (3 Bft) 100,00 %
19.04.2016 18:42 11,7 C 59 % 1022,4 hPa 0,0 l/m 5,2 km/h (1 Bft) W 265 0 min 0,000 mm 0,0 UV-I 64 W/m 4,0 C 11,7 C 6,4 km/h (2 Bft) 95,83 %
19.04.2016 18:43 11,7 C 58 % 1022,4 hPa 0,0 l/m 7,5 km/h (2 Bft) W-NW 289 0 min 0,000 mm 0,0 UV-I 59 W/m 3,7 C 11,0 C 12,9 km/h (3 Bft) 96,55 %
19.04.2016 18:44 11,6 C 58 % 1022,4 hPa 0,0 l/m 4,5 km/h (1 Bft) W 263 0 min 0,000 mm 0,0 UV-I 54 W/m 3,6 C 11,6 C 9,7 km/h (2 Bft) 100,00 %
19.04.2016 18:45 11,6 C 59 % 1022,5 hPa 0,0 l/m 5,6 km/h (1 Bft) S-SW 206 0 min 0,000 mm 0,0 UV-I 52 W/m 3,9 C 11,6 C 16,1 km/h (3 Bft) 96,88 %
19.04.2016 18:46 11,6 C 58 % 1022,5 hPa 0,0 l/m 4,6 km/h (1 Bft) W-NW 282 0 min 0,000 mm 0,0 UV-I 51 W/m 3,6 C 11,6 C 12,9 km/h (3 Bft) 100,00 %
19.04.2016 18:47 11,6 C 59 % 1022,5 hPa 0,0 l/m 4,1 km/h (1 Bft) NW 311 0 min 0,000 mm 0,0 UV-I 50 W/m 3,9 C 11,6 C 11,3 km/h (2 Bft) 92,86 %
19.04.2016 18:48 11,6 C 59 % 1022,5 hPa 0,0 l/m 7,6 km/h (2 Bft) W-SW 246 0 min 0,000 mm 0,0 UV-I 48 W/m 3,9 C 10,8 C 14,5 km/h (3 Bft) 100,00 %
19.04.2016 18:49 11,5 C 59 % 1022,5 hPa 0,0 l/m 6,5 km/h (2 Bft) W 280 0 min 0,000 mm 0,0 UV-I 45 W/m 3,8 C 11,5 C 12,9 km/h (3 Bft) 96,15 %
19.04.2016 18:50 11,5 C 59 % 1022,5 hPa 0,0 l/m 6,9 km/h (2 Bft) W 264 0 min 0,000 mm 0,0 UV-I 42 W/m 3,8 C 11,2 C 14,5 km/h (3 Bft) 100,00 %
19.04.2016 18:51 11,4 C 60 % 1022,5 hPa 0,0 l/m 8,2 km/h (2 Bft) W 281 0 min 0,000 mm 0,0 UV-I 40 W/m 3,9 C 10,2 C 16,1 km/h (3 Bft) 100,00 %
19.04.2016 18:52 11,4 C 59 % 1022,5 hPa 0,0 l/m 5,6 km/h (1 Bft) W-SW 257 0 min 0,000 mm 0,0 UV-I 39 W/m 3,7 C 11,4 C 12,9 km/h (3 Bft) 96,55 %
19.04.2016 18:53 11,4 C 59 % 1022,5 hPa 0,0 l/m 7,2 km/h (2 Bft) W-SW 255 0 min 0,000 mm 0,0 UV-I 37 W/m 3,7 C 10,9 C 11,3 km/h (2 Bft) 100,00 %
19.04.2016 18:54 11,4 C 61 % 1022,6 hPa 0,0 l/m 7,1 km/h (2 Bft) W-NW 300 0 min 0,000 mm 0,0 UV-I 34 W/m 4,2 C 10,9 C 12,9 km/h (3 Bft) 100,00 %
19.04.2016 18:55 11,3 C 59 % 1022,5 hPa 0,0 l/m 4,4 km/h (1 Bft) W 269 0 min 0,000 mm 0,0 UV-I 32 W/m 3,6 C 11,3 C 11,3 km/h (2 Bft) 100,00 %
19.04.2016 18:56 11,3 C 60 % 1022,6 hPa 0,0 l/m 4,8 km/h (1 Bft) W-NW 286 0 min 0,000 mm 0,0 UV-I 32 W/m 3,8 C 11,3 C 9,7 km/h (2 Bft) 100,00 %
19.04.2016 18:57 11,3 C 60 % 1022,6 hPa 0,0 l/m 2,3 km/h (1 Bft) W 273 0 min 0,000 mm 0,0 UV-I 32 W/m 3,8 C 11,3 C 4,8 km/h (1 Bft) 100,00 %
19.04.2016 18:58 11,3 C 61 % 1022,6 hPa 0,0 l/m 3,7 km/h (1 Bft) W 274 0 min 0,000 mm 0,0 UV-I 30 W/m 4,1 C 11,3 C 9,7 km/h (2 Bft) 100,00 %
19.04.2016 18:59 11,2 C 61 % 1022,5 hPa 0,0 l/m 5,4 km/h (1 Bft) N-NW 328 0 min 0,000 mm 0,0 UV-I 27 W/m 4,0 C 11,2 C 6,4 km/h (2 Bft) 100,00 %
19.04.2016 19:00 11,2 C 60 % 1022,5 hPa 0,0 l/m 9,7 km/h (2 Bft) W-NW 301 0 min 0,000 mm 0,0 UV-I 25 W/m 3,7 C 9,1 C 14,5 km/h (3 Bft) 100,00 %
19.04.2016 19:01 11,2 C 61 % 1022,5 hPa 0,0 l/m 8,0 km/h (2 Bft) W-NW 286 0 min 0,076 mm 0,0 UV-I 25 W/m 4,0 C 10,1 C 12,9 km/h (3 Bft) 96,30 %
19.04.2016 19:02 11,2 C 61 % 1022,6 hPa 0,0 l/m 6,7 km/h (2 Bft) W 271 0 min 0,000 mm 0,0 UV-I 25 W/m 4,0 C 11,0 C 12,9 km/h (3 Bft) 100,00 %
19.04.2016 19:03 11,2 C 62 % 1022,6 hPa 0,0 l/m 2,5 km/h (1 Bft) W 261 0 min 0,000 mm 0,0 UV-I 25 W/m 4,2 C 11,2 C 4,8 km/h (1 Bft) 93,33 %
19.04.2016 19:04 11,2 C 60 % 1022,5 hPa 0,0 l/m 4,3 km/h (1 Bft) W-NW 295 0 min 0,000 mm 0,0 UV-I 26 W/m 3,7 C 11,2 C 6,4 km/h (2 Bft) 100,00 %
19.04.2016 19:05 11,2 C 61 % 1022,5 hPa 0,0 l/m 4,2 km/h (1 Bft) W 270 0 min 0,000 mm 0,0 UV-I 24 W/m 4,0 C 11,2 C 6,4 km/h (2 Bft) 100,00 %
19.04.2016 19:06 11,2 C 62 % 1022,6 hPa 0,0 l/m 5,7 km/h (1 Bft) W 275 0 min 0,000 mm 0,0 UV-I 23 W/m 4,2 C 11,2 C 12,9 km/h (3 Bft) 100,00 %
19.04.2016 19:07 11,1 C 60 % 1022,5 hPa 0,0 l/m 6,5 km/h (2 Bft) W-SW 257 0 min 0,000 mm 0,0 UV-I 23 W/m 3,6 C 11,1 C 12,9 km/h (3 Bft) 100,00 %
19.04.2016 19:08 11,1 C 62 % 1022,6 hPa 0,0 l/m 4,7 km/h (1 Bft) W 276 0 min 0,000 mm 0,0 UV-I 21 W/m 4,1 C 11,1 C 6,4 km/h (2 Bft) 100,00 %
19.04.2016 19:09 11,1 C 62 % 1022,7 hPa 0,0 l/m 3,5 km/h (1 Bft) NW 324 0 min 0,000 mm 0,0 UV-I 19 W/m 4,1 C 11,1 C 6,4 km/h (2 Bft) 100,00 %
19.04.2016 19:10 11,1 C 62 % 1022,7 hPa 0,0 l/m 3,6 km/h (1 Bft) W-SW 247 0 min 0,000 mm 0,0 UV-I 17 W/m 4,1 C 11,1 C 6,4 km/h (2 Bft) 100,00 %
19.04.2016 19:11 11,1 C 61 % 1022,7 hPa 0,0 l/m 10,7 km/h (2 Bft) W 265 0 min 0,000 mm 0,0 UV-I 16 W/m 3,9 C 8,4 C 16,1 km/h (3 Bft) 100,00 %
19.04.2016 19:12 11,1 C 62 % 1022,7 hPa 0,0 l/m 4,7 km/h (1 Bft) NW 304 0 min 0,000 mm 0,0 UV-I 16 W/m 4,1 C 11,1 C 6,4 km/h (2 Bft) 100,00 %
19.04.2016 19:13 11,1 C 62 % 1022,8 hPa 0,0 l/m 7,3 km/h (2 Bft) W-SW 255 0 min 0,000 mm 0,0 UV-I 14 W/m 4,1 C 10,5 C 12,9 km/h (3 Bft) 100,00 %
19.04.2016 19:14 11,1 C 61 % 1022,7 hPa 0,0 l/m 4,4 km/h (1 Bft) W 280 0 min 0,000 mm 0,0 UV-I 14 W/m 3,9 C 11,1 C 8,0 km/h (2 Bft) 100,00 %
19.04.2016 19:15 11,1 C 61 % 1022,7 hPa 0,0 l/m 1,9 km/h (1 Bft) W 280 0 min 0,000 mm 0,0 UV-I 13 W/m 3,9 C 11,1 C 3,2 km/h (1 Bft) 100,00 %
19.04.2016 19:16 11,0 C 63 % 1022,8 hPa 0,0 l/m 3,2 km/h (1 Bft) SW 225 0 min 0,000 mm 0,0 UV-I 13 W/m 4,2 C 11,0 C 4,8 km/h (1 Bft) 100,00 %
19.04.2016 19:17 11,0 C 62 % 1022,8 hPa 0,0 l/m 4,9 km/h (1 Bft) W-NW 291 0 min 0,000 mm 0,0 UV-I 14 W/m 4,0 C 11,0 C 12,9 km/h (3 Bft) 100,00 %
19.04.2016 19:18 11,0 C 61 % 1022,8 hPa 0,0 l/m 9,1 km/h (2 Bft) W-NW 283 0 min 0,000 mm 0,0 UV-I 16 W/m 3,8 C 9,2 C 17,7 km/h (3 Bft) 100,00 %
19.04.2016 19:19 11,0 C 61 % 1022,8 hPa 0,0 l/m 2,8 km/h (1 Bft) W-NW 286 0 min 0,000 mm 0,0 UV-I 16 W/m 3,8 C 11,0 C 6,4 km/h (2 Bft) 100,00 %
19.04.2016 19:20 10,9 C 61 % 1022,8 hPa 0,0 l/m 3,6 km/h (1 Bft) W-SW 250 0 min 0,000 mm 0,0 UV-I 16 W/m 3,7 C 10,9 C 6,4 km/h (2 Bft) 100,00 %
19.04.2016 19:21 10,9 C 62 % 1022,8 hPa 0,0 l/m 4,9 km/h (1 Bft) W-NW 302 0 min 0,000 mm 0,0 UV-I 18 W/m 3,9 C 10,9 C 12,9 km/h (3 Bft) 100,00 %
19.04.2016 19:22 10,9 C 62 % 1022,8 hPa 0,0 l/m 7,6 km/h (2 Bft) W-SW 248 0 min 0,000 mm 0,0 UV-I 18 W/m 3,9 C 10,1 C 11,3 km/h (2 Bft) 100,00 %
19.04.2016 19:23 10,9 C 61 % 1022,8 hPa 0,0 l/m 9,9 km/h (2 Bft) N-NW 339 0 min 0,000 mm 0,0 UV-I 19 W/m 3,7 C 8,6 C 14,5 km/h (3 Bft) 100,00 %
19.04.2016 19:24 10,9 C 62 % 1022,8 hPa 0,0 l/m 6,7 km/h (2 Bft) W 261 0 min 0,000 mm 0,0 UV-I 19 W/m 3,9 C 10,7 C 11,3 km/h (2 Bft) 100,00 %
19.04.2016 19:25 10,9 C 61 % 1022,8 hPa 0,0 l/m 5,7 km/h (1 Bft) W-NW 300 0 min 0,000 mm 0,0 UV-I 19 W/m 3,7 C 10,9 C 6,4 km/h (2 Bft) 91,30 %
19.04.2016 19:26 10,9 C 61 % 1022,8 hPa 0,0 l/m 3,5 km/h (1 Bft) SW 235 0 min 0,000 mm 0,0 UV-I 19 W/m 3,7 C 10,9 C 6,4 km/h (2 Bft) 96,30 %
19.04.2016 19:27 10,9 C 62 % 1022,8 hPa 0,0 l/m 5,7 km/h (1 Bft) W 275 0 min 0,000 mm 0,0 UV-I 18 W/m 3,9 C 10,9 C 9,7 km/h (2 Bft) 100,00 %
19.04.2016 19:28 10,9 C 61 % 1022,8 hPa 0,0 l/m 9,3 km/h (2 Bft) NW 314 0 min 0,000 mm 0,0 UV-I 17 W/m 3,7 C 9,0 C 16,1 km/h (3 Bft) 100,00 %
19.04.2016 19:29 10,9 C 61 % 1022,8 hPa 0,0 l/m 9,4 km/h (2 Bft) W 277 0 min 0,000 mm 0,0 UV-I 16 W/m 3,7 C 8,9 C 16,1 km/h (3 Bft) 100,00 %
19.04.2016 19:30 10,9 C 61 % 1022,8 hPa 0,0 l/m 6,3 km/h (2 Bft) N 360 0 min 0,000 mm 0,0 UV-I 16 W/m 3,7 C 10,9 C 14,5 km/h (3 Bft) 100,00 %
19.04.2016 19:31 10,9 C 61 % 1022,8 hPa 0,0 l/m 3,4 km/h (1 Bft) W-NW 301 0 min 0,000 mm 0,0 UV-I 14 W/m 3,7 C 10,9 C 6,4 km/h (2 Bft) 96,15 %
19.04.2016 19:32 10,9 C 61 % 1022,8 hPa 0,0 l/m 3,5 km/h (1 Bft) W-NW 301 0 min 0,000 mm 0,0 UV-I 14 W/m 3,7 C 10,9 C 11,3 km/h (2 Bft) 95,83 %
19.04.2016 19:33 10,9 C 61 % 1022,8 hPa 0,0 l/m 4,4 km/h (1 Bft) W 265 0 min 0,000 mm 0,0 UV-I 13 W/m 3,7 C 10,9 C 6,4 km/h (2 Bft) 100,00 %
19.04.2016 19:34 10,9 C 63 % 1022,9 hPa 0,0 l/m 8,9 km/h (2 Bft) W-NW 284 0 min 0,000 mm 0,0 UV-I 12 W/m 4,1 C 9,2 C 17,7 km/h (3 Bft) 100,00 %
19.04.2016 19:35 10,9 C 62 % 1022,9 hPa 0,0 l/m 3,1 km/h (1 Bft) W-NW 288 0 min 0,000 mm 0,0 UV-I 11 W/m 3,9 C 10,9 C 6,4 km/h (2 Bft) 100,00 %
19.04.2016 19:36 10,9 C 62 % 1022,9 hPa 0,0 l/m 2,5 km/h (1 Bft) NW 305 0 min 0,000 mm 0,0 UV-I 11 W/m 3,9 C 10,9 C 6,4 km/h (2 Bft) 100,00 %
19.04.2016 19:37 10,8 C 63 % 1023,0 hPa 0,0 l/m 1,2 km/h (1 Bft) W-NW 302 0 min 0,000 mm 0,0 UV-I 9 W/m 4,0 C 10,8 C 3,2 km/h (1 Bft) 96,15 %
19.04.2016 19:38 10,8 C 63 % 1022,9 hPa 0,0 l/m 4,7 km/h (1 Bft) NW 317 0 min 0,000 mm 0,0 UV-I 9 W/m 4,0 C 10,8 C 4,8 km/h (1 Bft) 100,00 %
19.04.2016 19:39 10,8 C 61 % 1022,9 hPa 0,0 l/m 6,0 km/h (2 Bft) W-NW 286 0 min 0,000 mm 0,0 UV-I 8 W/m 3,6 C 10,8 C 14,5 km/h (3 Bft) 100,00 %
19.04.2016 19:40 10,8 C 62 % 1022,9 hPa 0,0 l/m 4,7 km/h (1 Bft) NW 309 0 min 0,000 mm 0,0 UV-I 7 W/m 3,8 C 10,8 C 8,0 km/h (2 Bft) 100,00 %
19.04.2016 19:41 10,8 C 62 % 1022,9 hPa 0,0 l/m 4,7 km/h (1 Bft) W-NW 286 0 min 0,000 mm 0,0 UV-I 7 W/m 3,8 C 10,8 C 6,4 km/h (2 Bft) 100,00 %
19.04.2016 19:42 10,8 C 62 % 1022,9 hPa 0,0 l/m 3,8 km/h (1 Bft) NW 316 0 min 0,000 mm 0,0 UV-I 7 W/m 3,8 C 10,8 C 4,8 km/h (1 Bft) 98,57 %
19.04.2016 19:43 10,7 C 62 % 1022,9 hPa 0,0 l/m 3,9 km/h (1 Bft) W 262 0 min 0,000 mm 0,0 UV-I 7 W/m 3,7 C 10,7 C 9,7 km/h (2 Bft) 100,00 %
19.04.2016 19:44 10,7 C 62 % 1022,9 hPa 0,0 l/m 4,3 km/h (1 Bft) W 273 0 min 0,000 mm 0,0 UV-I 5 W/m 3,7 C 10,7 C 6,4 km/h (2 Bft) 100,00 %
19.04.2016 19:45 10,7 C 63 % 1023,0 hPa 0,0 l/m 4,3 km/h (1 Bft) W-NW 294 0 min 0,000 mm 0,0 UV-I 5 W/m 3,9 C 10,7 C 6,4 km/h (2 Bft) 100,00 %
19.04.2016 19:46 10,7 C 63 % 1022,9 hPa 0,0 l/m 3,8 km/h (1 Bft) W-NW 284 0 min 0,000 mm 0,0 UV-I 5 W/m 3,9 C 10,7 C 9,7 km/h (2 Bft) 100,00 %
19.04.2016 19:47 10,7 C 63 % 1022,9 hPa 0,0 l/m 8,4 km/h (2 Bft) W 269 0 min 0,000 mm 0,0 UV-I 2 W/m 3,9 C 9,3 C 12,9 km/h (3 Bft) 100,00 %
19.04.2016 19:48 10,7 C 63 % 1022,9 hPa 0,0 l/m 3,9 km/h (1 Bft) NW 323 0 min 0,000 mm 0,0 UV-I 0 W/m 3,9 C 10,7 C 9,7 km/h (2 Bft) 100,00 %
19.04.2016 19:49 10,7 C 63 % 1023,0 hPa 0,0 l/m 5,9 km/h (2 Bft) W 273 0 min 0,000 mm 0,0 UV-I 0 W/m 3,9 C 10,7 C 9,7 km/h (2 Bft) 100,00 %
19.04.2016 19:50 10,7 C 62 % 1023,0 hPa 0,0 l/m 8,6 km/h (2 Bft) W-NW 289 0 min 0,000 mm 0,0 UV-I 0 W/m 3,7 C 9,2 C 14,5 km/h (3 Bft) 100,00 %
19.04.2016 19:51 10,7 C 62 % 1023,0 hPa 0,0 l/m 4,4 km/h (1 Bft) NW 325 0 min 0,000 mm 0,0 UV-I 0 W/m 3,7 C 10,7 C 6,4 km/h (2 Bft) 100,00 %
19.04.2016 19:52 10,7 C 62 % 1023,0 hPa 0,0 l/m 4,8 km/h (1 Bft) W-NW 302 0 min 0,000 mm 0,0 UV-I 0 W/m 3,7 C 10,7 C 12,9 km/h (3 Bft) 100,00 %
19.04.2016 19:53 10,7 C 63 % 1023,1 hPa 0,0 l/m 3,3 km/h (1 Bft) W-NW 292 0 min 0,000 mm 0,0 UV-I 0 W/m 3,9 C 10,7 C 6,4 km/h (2 Bft) 100,00 %
19.04.2016 19:54 10,6 C 64 % 1023,1 hPa 0,0 l/m 1,9 km/h (1 Bft) N 351 0 min 0,000 mm 0,0 UV-I 0 W/m 4,1 C 10,6 C 3,2 km/h (1 Bft) 96,30 %
19.04.2016 19:55 10,6 C 65 % 1023,1 hPa 0,0 l/m 5,1 km/h (1 Bft) W 273 0 min 0,000 mm 0,0 UV-I 0 W/m 4,3 C 10,6 C 11,3 km/h (2 Bft) 92,31 %
19.04.2016 19:56 10,6 C 64 % 1023,1 hPa 0,0 l/m 4,0 km/h (1 Bft) NW 306 0 min 0,000 mm 0,0 UV-I 0 W/m 4,1 C 10,6 C 6,4 km/h (2 Bft) 92,31 %
19.04.2016 19:57 10,6 C 64 % 1023,1 hPa 0,0 l/m 4,8 km/h (1 Bft) W-NW 288 0 min 0,000 mm 0,0 UV-I 0 W/m 4,1 C 10,6 C 8,0 km/h (2 Bft) 100,00 %
19.04.2016 19:58 10,5 C 64 % 1023,0 hPa 0,0 l/m 4,1 km/h (1 Bft) W 265 0 min 0,000 mm 0,0 UV-I 0 W/m 4,0 C 10,5 C 6,4 km/h (2 Bft) 100,00 %
19.04.2016 19:59 10,5 C 65 % 1023,1 hPa 0,0 l/m 4,4 km/h (1 Bft) W 261 0 min 0,000 mm 0,0 UV-I 0 W/m 4,2 C 10,5 C 9,7 km/h (2 Bft) 100,00 %
19.04.2016 20:00 10,5 C 64 % 1023,1 hPa 0,0 l/m 6,9 km/h (2 Bft) N-NW 343 0 min 0,000 mm 0,0 UV-I 0 W/m 4,0 C 10,2 C 12,9 km/h (3 Bft) 100,00 %
19.04.2016 20:02 10,5 C 63 % 1023,1 hPa 0,0 l/m 6,2 km/h (2 Bft) W 280 0 min 0,026 mm 0,0 UV-I 0 W/m 3,8 C 10,5 C 14,5 km/h (3 Bft) 100,00 %
19.04.2016 20:03 10,5 C 63 % 1023,1 hPa 0,0 l/m 2,3 km/h (1 Bft) W-NW 288 0 min 0,000 mm 0,0 UV-I 0 W/m 3,8 C 10,5 C 4,8 km/h (1 Bft) 100,00 %
19.04.2016 20:04 10,4 C 64 % 1023,1 hPa 0,0 l/m 3,4 km/h (1 Bft) W-NW 294 0 min 0,000 mm 0,0 UV-I 0 W/m 3,9 C 10,4 C 8,0 km/h (2 Bft) 95,83 %
19.04.2016 20:05 10,5 C 64 % 1023,1 hPa 0,0 l/m 7,3 km/h (2 Bft) W 264 0 min 0,000 mm 0,0 UV-I 0 W/m 4,0 C 9,9 C 11,3 km/h (2 Bft) 100,00 %
19.04.2016 20:06 10,5 C 64 % 1023,1 hPa 0,0 l/m 2,8 km/h (1 Bft) W 261 0 min 0,000 mm 0,0 UV-I 0 W/m 4,0 C 10,5 C 4,8 km/h (1 Bft) 96,30 %
19.04.2016 20:07 10,4 C 64 % 1023,1 hPa 0,0 l/m 2,5 km/h (1 Bft) W 261 0 min 0,000 mm 0,0 UV-I 0 W/m 3,9 C 10,4 C 3,2 km/h (1 Bft) 100,00 %
19.04.2016 20:08 10,4 C 63 % 1023,1 hPa 0,0 l/m 2,1 km/h (1 Bft) W 261 0 min 0,000 mm 0,0 UV-I 0 W/m 3,7 C 10,4 C 3,2 km/h (1 Bft) 100,00 %
19.04.2016 20:09 10,5 C 64 % 1023,1 hPa 0,0 l/m 2,5 km/h (1 Bft) W 262 0 min 0,000 mm 0,0 UV-I 0 W/m 4,0 C 10,5 C 4,8 km/h (1 Bft) 96,15 %
19.04.2016 20:10 10,4 C 64 % 1023,1 hPa 0,0 l/m 2,6 km/h (1 Bft) W 262 0 min 0,000 mm 0,0 UV-I 0 W/m 3,9 C 10,4 C 3,2 km/h (1 Bft) 100,00 %
19.04.2016 20:11 10,4 C 64 % 1023,1 hPa 0,0 l/m 1,5 km/h (1 Bft) W 262 0 min 0,000 mm 0,0 UV-I 0 W/m 3,9 C 10,4 C 3,2 km/h (1 Bft) 100,00 %
19.04.2016 20:12 10,4 C 64 % 1023,1 hPa 0,0 l/m 3,8 km/h (1 Bft) W 262 0 min 0,000 mm 0,0 UV-I 0 W/m 3,9 C 10,4 C 4,8 km/h (1 Bft) 100,00 %
19.04.2016 20:13 10,4 C 64 % 1023,1 hPa 0,0 l/m 3,5 km/h (1 Bft) W-NW 283 0 min 0,000 mm 0,0 UV-I 0 W/m 3,9 C 10,4 C 6,4 km/h (2 Bft) 100,00 %
19.04.2016 20:14 10,4 C 65 % 1023,1 hPa 0,0 l/m 4,2 km/h (1 Bft) W-NW 289 0 min 0,000 mm 0,0 UV-I 0 W/m 4,1 C 10,4 C 6,4 km/h (2 Bft) 100,00 %
19.04.2016 20:15 10,4 C 65 % 1023,1 hPa 0,0 l/m 2,6 km/h (1 Bft) W-NW 289 0 min 0,000 mm 0,0 UV-I 0 W/m 4,1 C 10,4 C 4,8 km/h (1 Bft) 100,00 %
19.04.2016 20:16 10,4 C 64 % 1023,1 hPa 0,0 l/m 4,9 km/h (1 Bft) W-NW 287 0 min 0,000 mm 0,0 UV-I 0 W/m 3,9 C 10,4 C 11,3 km/h (2 Bft) 83,33 %
19.04.2016 20:17 10,4 C 64 % 1023,1 hPa 0,0 l/m 2,3 km/h (1 Bft) W-NW 287 0 min 0,000 mm 0,0 UV-I 0 W/m 3,9 C 10,4 C 3,2 km/h (1 Bft) 100,00 %
19.04.2016 20:18 10,4 C 64 % 1023,2 hPa 0,0 l/m 4,6 km/h (1 Bft) W-NW 298 0 min 0,000 mm 0,0 UV-I 0 W/m 3,9 C 10,4 C 9,7 km/h (2 Bft) 96,55 %
19.04.2016 20:19 10,4 C 64 % 1023,1 hPa 0,0 l/m 2,5 km/h (1 Bft) W-NW 300 0 min 0,000 mm 0,0 UV-I 0 W/m 3,9 C 10,4 C 3,2 km/h (1 Bft) 100,00 %
19.04.2016 20:20 10,4 C 65 % 1023,2 hPa 0,0 l/m 2,3 km/h (1 Bft) W-NW 292 0 min 0,000 mm 0,0 UV-I 0 W/m 4,1 C 10,4 C 4,8 km/h (1 Bft) 94,12 %
19.04.2016 20:21 10,3 C 64 % 1023,2 hPa 0,0 l/m 4,2 km/h (1 Bft) W 273 0 min 0,000 mm 0,0 UV-I 0 W/m 3,8 C 10,3 C 6,4 km/h (2 Bft) 100,00 %
19.04.2016 20:22 10,3 C 64 % 1023,2 hPa 0,0 l/m 3,4 km/h (1 Bft) W 265 0 min 0,000 mm 0,0 UV-I 0 W/m 3,8 C 10,3 C 6,4 km/h (2 Bft) 95,65 %
19.04.2016 20:23 10,3 C 64 % 1023,2 hPa 0,0 l/m 4,5 km/h (1 Bft) W 259 0 min 0,000 mm 0,0 UV-I 0 W/m 3,8 C 10,3 C 6,4 km/h (2 Bft) 100,00 %
19.04.2016 20:24 10,3 C 64 % 1023,2 hPa 0,0 l/m 4,7 km/h (1 Bft) W 263 0 min 0,000 mm 0,0 UV-I 0 W/m 3,8 C 10,3 C 6,4 km/h (2 Bft) 96,15 %
19.04.2016 20:25 10,3 C 64 % 1023,3 hPa 0,0 l/m 3,7 km/h (1 Bft) NW 325 0 min 0,000 mm 0,0 UV-I 0 W/m 3,8 C 10,3 C 4,8 km/h (1 Bft) 95,83 %
19.04.2016 20:26 10,3 C 65 % 1023,3 hPa 0,0 l/m 3,5 km/h (1 Bft) W-SW 258 0 min 0,000 mm 0,0 UV-I 0 W/m 4,0 C 10,3 C 6,4 km/h (2 Bft) 100,00 %
19.04.2016 20:27 10,3 C 64 % 1023,3 hPa 0,0 l/m 6,7 km/h (2 Bft) W-SW 249 0 min 0,000 mm 0,0 UV-I 0 W/m 3,8 C 10,1 C 9,7 km/h (2 Bft) 100,00 %
19.04.2016 20:28 10,3 C 63 % 1023,2 hPa 0,0 l/m 6,4 km/h (2 Bft) W-NW 292 0 min 0,000 mm 0,0 UV-I 0 W/m 3,6 C 10,3 C 11,3 km/h (2 Bft) 95,65 %
19.04.2016 20:29 10,3 C 64 % 1023,3 hPa 0,0 l/m 3,1 km/h (1 Bft) W 272 0 min 0,000 mm 0,0 UV-I 0 W/m 3,8 C 10,3 C 4,8 km/h (1 Bft) 96,30 %
19.04.2016 20:30 10,3 C 64 % 1023,3 hPa 0,0 l/m 1,4 km/h (1 Bft) W 272 0 min 0,000 mm 0,0 UV-I 0 W/m 3,8 C 10,3 C 3,2 km/h (1 Bft) 100,00 %
19.04.2016 20:31 10,3 C 64 % 1023,3 hPa 0,0 l/m 3,0 km/h (1 Bft) W 272 0 min 0,000 mm 0,0 UV-I 0 W/m 3,8 C 10,3 C 4,8 km/h (1 Bft) 95,83 %
19.04.2016 20:32 10,3 C 63 % 1023,4 hPa 0,0 l/m 4,1 km/h (1 Bft) W-SW 255 0 min 0,000 mm 0,0 UV-I 0 W/m 3,6 C 10,3 C 8,0 km/h (2 Bft) 100,00 %
19.04.2016 20:33 10,2 C 63 % 1023,3 hPa 0,0 l/m 2,6 km/h (1 Bft) W-NW 297 0 min 0,000 mm 0,0 UV-I 0 W/m 3,5 C 10,2 C 9,7 km/h (2 Bft) 96,15 %
19.04.2016 20:34 10,3 C 64 % 1023,3 hPa 0,0 l/m 5,1 km/h (1 Bft) W-SW 258 0 min 0,000 mm 0,0 UV-I 0 W/m 3,8 C 10,3 C 12,9 km/h (3 Bft) 100,00 %
19.04.2016 20:35 10,2 C 63 % 1023,3 hPa 0,0 l/m 4,3 km/h (1 Bft) W 265 0 min 0,000 mm 0,0 UV-I 0 W/m 3,5 C 10,2 C 11,3 km/h (2 Bft) 95,65 %
19.04.2016 20:36 10,2 C 64 % 1023,3 hPa 0,0 l/m 2,5 km/h (1 Bft) W 277 0 min 0,000 mm 0,0 UV-I 0 W/m 3,7 C 10,2 C 3,2 km/h (1 Bft) 95,83 %
19.04.2016 20:37 10,2 C 64 % 1023,3 hPa 0,0 l/m 6,0 km/h (2 Bft) W-SW 254 0 min 0,000 mm 0,0 UV-I 0 W/m 3,7 C 10,2 C 9,7 km/h (2 Bft) 93,10 %
19.04.2016 20:38 10,2 C 64 % 1023,3 hPa 0,0 l/m 3,9 km/h (1 Bft) W-SW 252 0 min 0,000 mm 0,0 UV-I 0 W/m 3,7 C 10,2 C 4,8 km/h (1 Bft) 93,33 %
19.04.2016 20:39 10,2 C 64 % 1023,3 hPa 0,0 l/m 2,4 km/h (1 Bft) W-SW 252 0 min 0,000 mm 0,0 UV-I 0 W/m 3,7 C 10,2 C 3,2 km/h (1 Bft) 100,00 %
19.04.2016 20:40 10,2 C 64 % 1023,4 hPa 0,0 l/m 2,6 km/h (1 Bft) W 262 0 min 0,000 mm 0,0 UV-I 0 W/m 3,7 C 10,2 C 3,2 km/h (1 Bft) 100,00 %
19.04.2016 20:41 10,1 C 64 % 1023,4 hPa 0,0 l/m 3,4 km/h (1 Bft) W-NW 302 0 min 0,000 mm 0,0 UV-I 0 W/m 3,6 C 10,1 C 4,8 km/h (1 Bft) 97,56 %
19.04.2016 20:42 10,1 C 64 % 1023,4 hPa 0,0 l/m 1,7 km/h (1 Bft) W-NW 299 0 min 0,000 mm 0,0 UV-I 0 W/m 3,6 C 10,1 C 3,2 km/h (1 Bft) 91,67 %
19.04.2016 20:43 10,1 C 66 % 1023,4 hPa 0,0 l/m 3,3 km/h (1 Bft) W 277 0 min 0,000 mm 0,0 UV-I 0 W/m 4,0 C 10,1 C 6,4 km/h (2 Bft) 100,00 %
19.04.2016 20:44 10,1 C 65 % 1023,4 hPa 0,0 l/m 4,1 km/h (1 Bft) W-NW 286 0 min 0,000 mm 0,0 UV-I 0 W/m 3,8 C 10,1 C 6,4 km/h (2 Bft) 96,67 %
19.04.2016 20:45 10,0 C 65 % 1023,5 hPa 0,0 l/m 4,3 km/h (1 Bft) W 267 0 min 0,000 mm 0,0 UV-I 0 W/m 3,7 C 10,0 C 6,4 km/h (2 Bft) 95,65 %
19.04.2016 20:46 10,0 C 64 % 1023,5 hPa 0,0 l/m 2,9 km/h (1 Bft) W-NW 282 0 min 0,000 mm 0,0 UV-I 0 W/m 3,5 C 10,0 C 4,8 km/h (1 Bft) 100,00 %
19.04.2016 20:47 10,0 C 65 % 1023,5 hPa 0,0 l/m 3,2 km/h (1 Bft) W 274 0 min 0,000 mm 0,0 UV-I 0 W/m 3,7 C 10,0 C 4,8 km/h (1 Bft) 95,65 %
19.04.2016 20:48 10,0 C 65 % 1023,5 hPa 0,0 l/m 4,1 km/h (1 Bft) W 277 0 min 0,000 mm 0,0 UV-I 0 W/m 3,7 C 10,0 C 6,4 km/h (2 Bft) 100,00 %
19.04.2016 20:49 9,9 C 66 % 1023,5 hPa 0,0 l/m 4,0 km/h (1 Bft) W-NW 284 0 min 0,000 mm 0,0 UV-I 0 W/m 3,9 C 9,9 C 6,4 km/h (2 Bft) 96,15 %
19.04.2016 20:50 9,9 C 66 % 1023,5 hPa 0,0 l/m 5,1 km/h (1 Bft) W 261 0 min 0,000 mm 0,0 UV-I 0 W/m 3,9 C 9,9 C 8,0 km/h (2 Bft) 100,00 %
19.04.2016 20:51 9,9 C 65 % 1023,5 hPa 0,0 l/m 4,6 km/h (1 Bft) W-SW 254 0 min 0,000 mm 0,0 UV-I 0 W/m 3,6 C 9,9 C 6,4 km/h (2 Bft) 96,15 %
19.04.2016 20:52 9,9 C 64 % 1023,5 hPa 0,0 l/m 4,5 km/h (1 Bft) W 268 0 min 0,000 mm 0,0 UV-I 0 W/m 3,4 C 9,9 C 6,4 km/h (2 Bft) 95,83 %
19.04.2016 20:53 9,9 C 64 % 1023,5 hPa 0,0 l/m 5,9 km/h (2 Bft) NW 311 0 min 0,000 mm 0,0 UV-I 0 W/m 3,4 C 9,9 C 9,7 km/h (2 Bft) 100,00 %
19.04.2016 20:54 9,9 C 64 % 1023,5 hPa 0,0 l/m 3,7 km/h (1 Bft) W-NW 288 0 min 0,000 mm 0,0 UV-I 0 W/m 3,4 C 9,9 C 6,4 km/h (2 Bft) 100,00 %
19.04.2016 20:55 9,9 C 64 % 1023,5 hPa 0,0 l/m 4,5 km/h (1 Bft) W 278 0 min 0,000 mm 0,0 UV-I 0 W/m 3,4 C 9,9 C 4,8 km/h (1 Bft) 95,83 %
19.04.2016 20:56 10,0 C 65 % 1023,6 hPa 0,0 l/m 5,1 km/h (1 Bft) W-NW 282 0 min 0,000 mm 0,0 UV-I 0 W/m 3,7 C 10,0 C 9,7 km/h (2 Bft) 100,00 %
19.04.2016 20:57 9,9 C 64 % 1023,6 hPa 0,0 l/m 5,3 km/h (1 Bft) W-NW 285 0 min 0,000 mm 0,0 UV-I 0 W/m 3,4 C 9,9 C 8,0 km/h (2 Bft) 100,00 %
19.04.2016 20:58 9,9 C 64 % 1023,6 hPa 0,0 l/m 4,7 km/h (1 Bft) W 273 0 min 0,000 mm 0,0 UV-I 0 W/m 3,4 C 9,9 C 6,4 km/h (2 Bft) 96,15 %
19.04.2016 20:59 9,9 C 64 % 1023,6 hPa 0,0 l/m 8,9 km/h (2 Bft) W 267 0 min 0,000 mm 0,0 UV-I 0 W/m 3,4 C 8,2 C 12,9 km/h (3 Bft) 98,54 %
19.04.2016 21:00 10,0 C 63 % 1023,6 hPa 0,0 l/m 3,9 km/h (1 Bft) W 278 0 min 0,000 mm 0,0 UV-I 0 W/m 3,3 C 10,0 C 6,4 km/h (2 Bft) 100,00 %
19.04.2016 21:02 10,0 C 64 % 1023,6 hPa 0,0 l/m 3,8 km/h (1 Bft) W 269 0 min 0,025 mm 0,0 UV-I 0 W/m 3,5 C 10,0 C 6,4 km/h (2 Bft) 100,00 %
19.04.2016 21:03 10,0 C 65 % 1023,6 hPa 0,0 l/m 2,7 km/h (1 Bft) W 269 0 min 0,000 mm 0,0 UV-I 0 W/m 3,7 C 10,0 C 3,2 km/h (1 Bft) 100,00 %
19.04.2016 21:04 9,9 C 65 % 1023,6 hPa 0,0 l/m 1,5 km/h (1 Bft) W 269 0 min 0,000 mm 0,0 UV-I 0 W/m 3,6 C 9,9 C 3,2 km/h (1 Bft) 100,00 %
19.04.2016 21:05 9,9 C 66 % 1023,6 hPa 0,0 l/m 3,1 km/h (1 Bft) W-SW 255 0 min 0,000 mm 0,0 UV-I 0 W/m 3,9 C 9,9 C 4,8 km/h (1 Bft) 100,00 %
19.04.2016 21:06 9,9 C 65 % 1023,6 hPa 0,0 l/m 5,0 km/h (1 Bft) W-NW 293 0 min 0,000 mm 0,0 UV-I 0 W/m 3,6 C 9,9 C 6,4 km/h (2 Bft) 100,00 %
19.04.2016 21:07 9,9 C 65 % 1023,6 hPa 0,0 l/m 8,4 km/h (2 Bft) W 264 0 min 0,000 mm 0,0 UV-I 0 W/m 3,6 C 8,5 C 16,1 km/h (3 Bft) 100,00 %
19.04.2016 21:08 9,8 C 65 % 1023,6 hPa 0,0 l/m 9,9 km/h (2 Bft) W 260 0 min 0,000 mm 0,0 UV-I 0 W/m 3,5 C 7,4 C 14,5 km/h (3 Bft) 100,00 %
19.04.2016 21:09 9,8 C 64 % 1023,6 hPa 0,0 l/m 3,7 km/h (1 Bft) W 260 0 min 0,000 mm 0,0 UV-I 0 W/m 3,3 C 9,8 C 6,4 km/h (2 Bft) 96,88 %
19.04.2016 21:10 9,8 C 64 % 1023,6 hPa 0,0 l/m 3,3 km/h (1 Bft) W 273 0 min 0,000 mm 0,0 UV-I 0 W/m 3,3 C 9,8 C 4,8 km/h (1 Bft) 96,15 %
19.04.2016 21:11 9,8 C 65 % 1023,6 hPa 0,0 l/m 2,3 km/h (1 Bft) W 269 0 min 0,000 mm 0,0 UV-I 0 W/m 3,5 C 9,8 C 4,8 km/h (1 Bft) 100,00 %
19.04.2016 21:12 9,8 C 65 % 1023,6 hPa 0,0 l/m 6,0 km/h (2 Bft) W-NW 283 0 min 0,000 mm 0,0 UV-I 0 W/m 3,5 C 9,8 C 14,5 km/h (3 Bft) 91,67 %
19.04.2016 21:13 9,8 C 64 % 1023,6 hPa 0,0 l/m 5,4 km/h (1 Bft) W-NW 288 0 min 0,000 mm 0,0 UV-I 0 W/m 3,3 C 9,8 C 12,9 km/h (3 Bft) 100,00 %
19.04.2016 21:14 9,8 C 63 % 1023,7 hPa 0,0 l/m 4,5 km/h (1 Bft) W 274 0 min 0,000 mm 0,0 UV-I 0 W/m 3,1 C 9,8 C 9,7 km/h (2 Bft) 100,00 %
19.04.2016 21:15 9,8 C 63 % 1023,7 hPa 0,0 l/m 4,7 km/h (1 Bft) W 272 0 min 0,000 mm 0,0 UV-I 0 W/m 3,1 C 9,8 C 9,7 km/h (2 Bft) 100,00 %
19.04.2016 21:16 9,8 C 64 % 1023,7 hPa 0,0 l/m 2,6 km/h (1 Bft) W-SW 258 0 min 0,000 mm 0,0 UV-I 0 W/m 3,3 C 9,8 C 4,8 km/h (1 Bft) 100,00 %
19.04.2016 21:17 9,8 C 64 % 1023,7 hPa 0,0 l/m 2,7 km/h (1 Bft) W 261 0 min 0,000 mm 0,0 UV-I 0 W/m 3,3 C 9,8 C 3,2 km/h (1 Bft) 100,00 %
19.04.2016 21:18 9,8 C 65 % 1023,8 hPa 0,0 l/m 3,6 km/h (1 Bft) W-NW 286 0 min 0,000 mm 0,0 UV-I 0 W/m 3,5 C 9,8 C 6,4 km/h (2 Bft) 95,83 %
19.04.2016 21:19 9,8 C 64 % 1023,8 hPa 0,0 l/m 3,5 km/h (1 Bft) W 271 0 min 0,000 mm 0,0 UV-I 0 W/m 3,3 C 9,8 C 4,8 km/h (1 Bft) 100,00 %
19.04.2016 21:20 9,8 C 64 % 1023,8 hPa 0,0 l/m 3,6 km/h (1 Bft) W-NW 295 0 min 0,000 mm 0,0 UV-I 0 W/m 3,3 C 9,8 C 8,0 km/h (2 Bft) 100,00 %
19.04.2016 21:21 9,8 C 64 % 1023,8 hPa 0,0 l/m 5,5 km/h (1 Bft) W 273 0 min 0,000 mm 0,0 UV-I 0 W/m 3,3 C 9,8 C 11,3 km/h (2 Bft) 100,00 %
19.04.2016 21:22 9,8 C 64 % 1023,8 hPa 0,0 l/m 2,0 km/h (1 Bft) W 275 0 min 0,000 mm 0,0 UV-I 0 W/m 3,3 C 9,8 C 3,2 km/h (1 Bft) 100,00 %
19.04.2016 21:23 9,8 C 63 % 1023,8 hPa 0,0 l/m 4,0 km/h (1 Bft) W-NW 293 0 min 0,000 mm 0,0 UV-I 0 W/m 3,1 C 9,8 C 6,4 km/h (2 Bft) 100,00 %
19.04.2016 21:24 9,8 C 64 % 1023,8 hPa 0,0 l/m 3,9 km/h (1 Bft) W-NW 298 0 min 0,000 mm 0,0 UV-I 0 W/m 3,3 C 9,8 C 8,0 km/h (2 Bft) 100,00 %
19.04.2016 21:25 9,7 C 64 % 1023,9 hPa 0,0 l/m 3,3 km/h (1 Bft) W 281 0 min 0,000 mm 0,0 UV-I 0 W/m 3,2 C 9,7 C 4,8 km/h (1 Bft) 100,00 %
19.04.2016 21:26 9,7 C 64 % 1023,9 hPa 0,0 l/m 3,4 km/h (1 Bft) W 277 0 min 0,000 mm 0,0 UV-I 0 W/m 3,2 C 9,7 C 6,4 km/h (2 Bft) 100,00 %
19.04.2016 21:27 9,7 C 64 % 1023,8 hPa 0,0 l/m 5,2 km/h (1 Bft) W-NW 287 0 min 0,000 mm 0,0 UV-I 0 W/m 3,2 C 9,7 C 9,7 km/h (2 Bft) 100,00 %
19.04.2016 21:28 9,7 C 65 % 1023,8 hPa 0,0 l/m 2,4 km/h (1 Bft) W 275 0 min 0,000 mm 0,0 UV-I 0 W/m 3,4 C 9,7 C 6,4 km/h (2 Bft) 95,65 %
19.04.2016 21:29 9,7 C 64 % 1023,9 hPa 0,0 l/m 3,9 km/h (1 Bft) W 273 0 min 0,000 mm 0,0 UV-I 0 W/m 3,2 C 9,7 C 6,4 km/h (2 Bft) 100,00 %
19.04.2016 21:30 9,7 C 64 % 1023,9 hPa 0,0 l/m 2,5 km/h (1 Bft) W 273 0 min 0,000 mm 0,0 UV-I 0 W/m 3,2 C 9,7 C 3,2 km/h (1 Bft) 100,00 %
19.04.2016 21:31 9,7 C 64 % 1023,9 hPa 0,0 l/m 2,7 km/h (1 Bft) W-NW 292 0 min 0,000 mm 0,0 UV-I 0 W/m 3,2 C 9,7 C 4,8 km/h (1 Bft) 100,00 %
19.04.2016 21:32 9,7 C 63 % 1023,9 hPa 0,0 l/m 2,8 km/h (1 Bft) W 281 0 min 0,000 mm 0,0 UV-I 0 W/m 3,0 C 9,7 C 6,4 km/h (2 Bft) 100,00 %
19.04.2016 21:33 9,7 C 64 % 1023,9 hPa 0,0 l/m 3,4 km/h (1 Bft) W-NW 293 0 min 0,000 mm 0,0 UV-I 0 W/m 3,2 C 9,7 C 4,8 km/h (1 Bft) 100,00 %
19.04.2016 21:34 9,8 C 64 % 1023,9 hPa 0,0 l/m 6,3 km/h (2 Bft) W-SW 254 0 min 0,000 mm 0,0 UV-I 0 W/m 3,3 C 9,8 C 9,7 km/h (2 Bft) 100,00 %
19.04.2016 21:35 9,8 C 64 % 1023,9 hPa 0,0 l/m 6,0 km/h (2 Bft) W 270 0 min 0,000 mm 0,0 UV-I 0 W/m 3,3 C 9,8 C 9,7 km/h (2 Bft) 100,00 %
19.04.2016 21:36 9,8 C 64 % 1023,9 hPa 0,0 l/m 3,8 km/h (1 Bft) W 270 0 min 0,000 mm 0,0 UV-I 0 W/m 3,3 C 9,8 C 9,7 km/h (2 Bft) 100,00 %
19.04.2016 21:37 9,8 C 64 % 1023,9 hPa 0,0 l/m 3,7 km/h (1 Bft) W 263 0 min 0,000 mm 0,0 UV-I 0 W/m 3,3 C 9,8 C 4,8 km/h (1 Bft) 100,00 %
19.04.2016 21:38 9,8 C 63 % 1024,0 hPa 0,0 l/m 3,1 km/h (1 Bft) W 266 0 min 0,000 mm 0,0 UV-I 0 W/m 3,1 C 9,8 C 4,8 km/h (1 Bft) 100,00 %
19.04.2016 21:39 9,8 C 64 % 1024,0 hPa 0,0 l/m 5,0 km/h (1 Bft) NW 304 0 min 0,000 mm 0,0 UV-I 0 W/m 3,3 C 9,8 C 9,7 km/h (2 Bft) 100,00 %
19.04.2016 21:40 9,8 C 64 % 1024,0 hPa 0,0 l/m 3,7 km/h (1 Bft) W-NW 290 0 min 0,000 mm 0,0 UV-I 0 W/m 3,3 C 9,8 C 8,0 km/h (2 Bft) 100,00 %
19.04.2016 21:41 9,8 C 64 % 1024,0 hPa 0,0 l/m 3,6 km/h (1 Bft) W 266 0 min 0,000 mm 0,0 UV-I 0 W/m 3,3 C 9,8 C 4,8 km/h (1 Bft) 100,00 %
19.04.2016 21:42 9,7 C 64 % 1024,0 hPa 0,0 l/m 4,1 km/h (1 Bft) W 266 0 min 0,000 mm 0,0 UV-I 0 W/m 3,2 C 9,7 C 6,4 km/h (2 Bft) 100,00 %
19.04.2016 21:43 9,7 C 65 % 1024,0 hPa 0,0 l/m 4,2 km/h (1 Bft) W 267 0 min 0,000 mm 0,0 UV-I 0 W/m 3,4 C 9,7 C 6,4 km/h (2 Bft) 100,00 %
19.04.2016 21:44 9,7 C 65 % 1024,0 hPa 0,0 l/m 4,3 km/h (1 Bft) W-SW 244 0 min 0,000 mm 0,0 UV-I 0 W/m 3,4 C 9,7 C 6,4 km/h (2 Bft) 100,00 %
19.04.2016 21:45 9,7 C 65 % 1024,0 hPa 0,0 l/m 5,2 km/h (1 Bft) W-SW 246 0 min 0,000 mm 0,0 UV-I 0 W/m 3,4 C 9,7 C 6,4 km/h (2 Bft) 96,15 %
19.04.2016 21:46 9,7 C 66 % 1024,0 hPa 0,0 l/m 4,0 km/h (1 Bft) W-SW 247 0 min 0,000 mm 0,0 UV-I 0 W/m 3,7 C 9,7 C 4,8 km/h (1 Bft) 100,00 %
19.04.2016 21:47 9,7 C 66 % 1024,0 hPa 0,0 l/m 5,8 km/h (2 Bft) SW 236 0 min 0,000 mm 0,0 UV-I 0 W/m 3,7 C 9,7 C 8,0 km/h (2 Bft) 100,00 %
19.04.2016 21:48 9,7 C 66 % 1024,0 hPa 0,0 l/m 5,4 km/h (1 Bft) W-SW 243 0 min 0,000 mm 0,0 UV-I 0 W/m 3,7 C 9,7 C 6,4 km/h (2 Bft) 100,00 %
19.04.2016 21:49 9,6 C 66 % 1024,1 hPa 0,0 l/m 6,8 km/h (2 Bft) W-SW 254 0 min 0,000 mm 0,0 UV-I 0 W/m 3,6 C 9,3 C 11,3 km/h (2 Bft) 100,00 %
19.04.2016 21:50 9,6 C 66 % 1024,0 hPa 0,0 l/m 5,9 km/h (2 Bft) W-SW 242 0 min 0,000 mm 0,0 UV-I 0 W/m 3,6 C 9,6 C 8,0 km/h (2 Bft) 100,00 %
19.04.2016 21:51 9,6 C 67 % 1024,1 hPa 0,0 l/m 5,0 km/h (1 Bft) W-SW 242 0 min 0,000 mm 0,0 UV-I 0 W/m 3,8 C 9,6 C 8,0 km/h (2 Bft) 96,55 %
19.04.2016 21:52 9,6 C 67 % 1024,1 hPa 0,0 l/m 5,3 km/h (1 Bft) W-SW 250 0 min 0,000 mm 0,0 UV-I 0 W/m 3,8 C 9,6 C 6,4 km/h (2 Bft) 100,00 %
19.04.2016 21:53 9,6 C 68 % 1024,0 hPa 0,0 l/m 5,7 km/h (1 Bft) W-SW 248 0 min 0,000 mm 0,0 UV-I 0 W/m 4,0 C 9,6 C 6,4 km/h (2 Bft) 100,00 %
19.04.2016 21:54 9,5 C 68 % 1024,0 hPa 0,0 l/m 5,0 km/h (1 Bft) W 281 0 min 0,000 mm 0,0 UV-I 0 W/m 3,9 C 9,5 C 6,4 km/h (2 Bft) 100,00 %
19.04.2016 21:55 9,5 C 68 % 1024,1 hPa 0,0 l/m 5,0 km/h (1 Bft) W 262 0 min 0,000 mm 0,0 UV-I 0 W/m 3,9 C 9,5 C 6,4 km/h (2 Bft) 100,00 %
19.04.2016 21:56 9,4 C 69 % 1024,0 hPa 0,0 l/m 4,5 km/h (1 Bft) W-SW 250 0 min 0,000 mm 0,0 UV-I 0 W/m 4,0 C 9,4 C 9,7 km/h (2 Bft) 100,00 %
19.04.2016 21:57 9,4 C 69 % 1024,1 hPa 0,0 l/m 5,5 km/h (1 Bft) W-SW 252 0 min 0,000 mm 0,0 UV-I 0 W/m 4,0 C 9,4 C 8,0 km/h (2 Bft) 95,65 %
19.04.2016 21:58 9,4 C 69 % 1024,1 hPa 0,0 l/m 4,6 km/h (1 Bft) W 259 0 min 0,000 mm 0,0 UV-I 0 W/m 4,0 C 9,4 C 6,4 km/h (2 Bft) 100,00 %
19.04.2016 21:59 9,4 C 68 % 1024,1 hPa 0,0 l/m 5,8 km/h (2 Bft) W 266 0 min 0,000 mm 0,0 UV-I 0 W/m 3,8 C 9,4 C 9,7 km/h (2 Bft) 100,00 %
19.04.2016 22:00 9,4 C 68 % 1024,1 hPa 0,0 l/m 8,2 km/h (2 Bft) W 263 0 min 0,000 mm 0,0 UV-I 0 W/m 3,8 C 8,1 C 12,9 km/h (3 Bft) 100,00 %
19.04.2016 22:01 9,4 C 67 % 1024,1 hPa 0,0 l/m 5,9 km/h (2 Bft) W 267 0 min 0,026 mm 0,0 UV-I 0 W/m 3,6 C 9,4 C 11,3 km/h (2 Bft) 100,00 %
19.04.2016 22:02 9,4 C 66 % 1024,1 hPa 0,0 l/m 5,2 km/h (1 Bft) W 265 0 min 0,000 mm 0,0 UV-I 0 W/m 3,4 C 9,4 C 6,4 km/h (2 Bft) 100,00 %
19.04.2016 22:03 9,4 C 66 % 1024,1 hPa 0,0 l/m 5,6 km/h (1 Bft) W-SW 256 0 min 0,000 mm 0,0 UV-I 0 W/m 3,4 C 9,4 C 8,0 km/h (2 Bft) 100,00 %
19.04.2016 22:04 9,4 C 66 % 1024,1 hPa 0,0 l/m 6,4 km/h (2 Bft) W-SW 256 0 min 0,000 mm 0,0 UV-I 0 W/m 3,4 C 9,4 C 9,7 km/h (2 Bft) 96,15 %
19.04.2016 22:05 9,4 C 65 % 1024,1 hPa 0,0 l/m 5,6 km/h (1 Bft) W 261 0 min 0,000 mm 0,0 UV-I 0 W/m 3,2 C 9,4 C 11,3 km/h (2 Bft) 100,00 %
19.04.2016 22:06 9,5 C 66 % 1024,1 hPa 0,0 l/m 6,4 km/h (2 Bft) W-SW 251 0 min 0,000 mm 0,0 UV-I 0 W/m 3,5 C 9,5 C 9,7 km/h (2 Bft) 100,00 %
19.04.2016 22:07 9,5 C 66 % 1024,1 hPa 0,0 l/m 5,7 km/h (1 Bft) W 281 0 min 0,000 mm 0,0 UV-I 0 W/m 3,5 C 9,5 C 12,9 km/h (3 Bft) 100,00 %
19.04.2016 22:08 9,5 C 65 % 1024,2 hPa 0,0 l/m 7,0 km/h (2 Bft) W 272 0 min 0,000 mm 0,0 UV-I 0 W/m 3,3 C 9,1 C 11,3 km/h (2 Bft) 100,00 %
19.04.2016 22:10 9,6 C 65 % 1024,2 hPa 0,0 l/m 6,4 km/h (2 Bft) W 270 0 min 0,000 mm 0,0 UV-I 0 W/m 3,4 C 9,6 C 12,9 km/h (3 Bft) 99,12 %
19.04.2016 22:15 9,6 C 65 % 1024,2 hPa 0,0 l/m 6,4 km/h (2 Bft) W-SW 247 0 min 0,000 mm 0,0 UV-I 0 W/m 3,4 C 9,6 C 14,5 km/h (3 Bft) 96,49 %
19.04.2016 22:20 9,6 C 67 % 1024,3 hPa 0,0 l/m 6,4 km/h (2 Bft) W-SW 247 0 min 0,000 mm 0,0 UV-I 0 W/m 3,8 C 9,6 C 12,9 km/h (3 Bft) 100,00 %
19.04.2016 22:25 9,3 C 69 % 1024,2 hPa 0,0 l/m 4,8 km/h (1 Bft) W-SW 247 0 min 0,000 mm 0,0 UV-I 0 W/m 3,9 C 9,3 C 6,4 km/h (2 Bft) 100,00 %
19.04.2016 22:30 9,2 C 71 % 1024,2 hPa 0,0 l/m 4,8 km/h (1 Bft) W-SW 247 0 min 0,000 mm 0,0 UV-I 0 W/m 4,2 C 9,2 C 6,4 km/h (2 Bft) 100,00 %
19.04.2016 22:35 9,1 C 72 % 1024,2 hPa 0,0 l/m 4,8 km/h (1 Bft) SW 225 0 min 0,000 mm 0,0 UV-I 0 W/m 4,3 C 9,1 C 8,0 km/h (2 Bft) 100,00 %
19.04.2016 22:40 9,0 C 73 % 1024,3 hPa 0,0 l/m 6,4 km/h (2 Bft) SW 225 0 min 0,000 mm 0,0 UV-I 0 W/m 4,4 C 9,0 C 11,3 km/h (2 Bft) 100,00 %
19.04.2016 22:45 8,9 C 73 % 1024,4 hPa 0,0 l/m 4,8 km/h (1 Bft) SW 225 0 min 0,000 mm 0,0 UV-I 0 W/m 4,3 C 8,9 C 8,0 km/h (2 Bft) 99,12 %
19.04.2016 22:50 8,9 C 73 % 1024,4 hPa 0,0 l/m 4,8 km/h (1 Bft) SW 225 0 min 0,000 mm 0,0 UV-I 0 W/m 4,3 C 8,9 C 9,7 km/h (2 Bft) 100,00 %
19.04.2016 22:54 8,9 C 73 % 1024,4 hPa 0,0 l/m 5,1 km/h (1 Bft) SW 225 0 min 0,000 mm 0,0 UV-I 0 W/m 4,3 C 8,9 C 6,4 km/h (2 Bft) 97,67 %
19.04.2016 22:55 8,9 C 73 % 1024,4 hPa 0,0 l/m 6,8 km/h (2 Bft) W-SW 239 0 min 0,000 mm 0,0 UV-I 0 W/m 4,3 C 8,6 C 9,7 km/h (2 Bft) 100,00 %
19.04.2016 22:56 8,8 C 74 % 1024,4 hPa 0,0 l/m 7,2 km/h (2 Bft) SW 230 0 min 0,000 mm 0,0 UV-I 0 W/m 4,4 C 8,2 C 9,7 km/h (2 Bft) 100,00 %
19.04.2016 22:57 8,8 C 74 % 1024,4 hPa 0,0 l/m 6,2 km/h (2 Bft) SW 223 0 min 0,000 mm 0,0 UV-I 0 W/m 4,4 C 8,8 C 8,0 km/h (2 Bft) 95,83 %
19.04.2016 22:58 8,8 C 74 % 1024,4 hPa 0,0 l/m 6,6 km/h (2 Bft) SW 218 0 min 0,000 mm 0,0 UV-I 0 W/m 4,4 C 8,7 C 9,7 km/h (2 Bft) 100,00 %
19.04.2016 22:59 8,8 C 74 % 1024,4 hPa 0,0 l/m 6,0 km/h (2 Bft) W-SW 242 0 min 0,000 mm 0,0 UV-I 0 W/m 4,4 C 8,8 C 8,0 km/h (2 Bft) 100,00 %
19.04.2016 23:00 8,8 C 74 % 1024,4 hPa 0,0 l/m 6,4 km/h (2 Bft) SW 231 0 min 0,000 mm 0,0 UV-I 0 W/m 4,4 C 8,8 C 9,7 km/h (2 Bft) 95,83 %
19.04.2016 23:01 8,8 C 74 % 1024,4 hPa 0,0 l/m 5,4 km/h (1 Bft) W-SW 253 0 min 0,025 mm 0,0 UV-I 0 W/m 4,4 C 8,8 C 8,0 km/h (2 Bft) 100,00 %
19.04.2016 23:02 8,8 C 74 % 1024,4 hPa 0,0 l/m 5,0 km/h (1 Bft) W-SW 248 0 min 0,000 mm 0,0 UV-I 0 W/m 4,4 C 8,8 C 8,0 km/h (2 Bft) 100,00 %
19.04.2016 23:03 8,8 C 74 % 1024,4 hPa 0,0 l/m 4,7 km/h (1 Bft) W-SW 246 0 min 0,000 mm 0,0 UV-I 0 W/m 4,4 C 8,8 C 6,4 km/h (2 Bft) 97,56 %
19.04.2016 23:04 8,8 C 74 % 1024,5 hPa 0,0 l/m 7,0 km/h (2 Bft) SW 236 0 min 0,000 mm 0,0 UV-I 0 W/m 4,4 C 8,3 C 8,0 km/h (2 Bft) 100,00 %
19.04.2016 23:05 8,8 C 74 % 1024,5 hPa 0,0 l/m 6,6 km/h (2 Bft) W-SW 248 0 min 0,000 mm 0,0 UV-I 0 W/m 4,4 C 8,7 C 9,7 km/h (2 Bft) 100,00 %
19.04.2016 23:06 8,8 C 74 % 1024,4 hPa 0,0 l/m 7,0 km/h (2 Bft) W-SW 242 0 min 0,000 mm 0,0 UV-I 0 W/m 4,4 C 8,3 C 9,7 km/h (2 Bft) 100,00 %
19.04.2016 23:07 8,8 C 73 % 1024,4 hPa 0,0 l/m 6,1 km/h (2 Bft) W-SW 244 0 min 0,000 mm 0,0 UV-I 0 W/m 4,2 C 8,8 C 8,0 km/h (2 Bft) 100,00 %
19.04.2016 23:08 8,8 C 73 % 1024,5 hPa 0,0 l/m 7,1 km/h (2 Bft) W-SW 248 0 min 0,000 mm 0,0 UV-I 0 W/m 4,2 C 8,3 C 11,3 km/h (2 Bft) 100,00 %
19.04.2016 23:09 8,8 C 73 % 1024,6 hPa 0,0 l/m 6,6 km/h (2 Bft) W-SW 249 0 min 0,000 mm 0,0 UV-I 0 W/m 4,2 C 8,7 C 9,7 km/h (2 Bft) 100,00 %
19.04.2016 23:10 8,8 C 73 % 1024,5 hPa 0,0 l/m 6,2 km/h (2 Bft) W-SW 238 0 min 0,000 mm 0,0 UV-I 0 W/m 4,2 C 8,8 C 11,3 km/h (2 Bft) 100,00 %
19.04.2016 23:11 8,8 C 73 % 1024,6 hPa 0,0 l/m 5,4 km/h (1 Bft) W-SW 250 0 min 0,000 mm 0,0 UV-I 0 W/m 4,2 C 8,8 C 8,0 km/h (2 Bft) 100,00 %
19.04.2016 23:12 8,8 C 73 % 1024,6 hPa 0,0 l/m 6,6 km/h (2 Bft) SW 229 0 min 0,000 mm 0,0 UV-I 0 W/m 4,2 C 8,7 C 9,7 km/h (2 Bft) 100,00 %
19.04.2016 23:13 8,8 C 72 % 1024,6 hPa 0,0 l/m 6,7 km/h (2 Bft) W-SW 247 0 min 0,000 mm 0,0 UV-I 0 W/m 4,0 C 8,6 C 8,0 km/h (2 Bft) 100,00 %
19.04.2016 23:14 8,8 C 72 % 1024,6 hPa 0,0 l/m 6,2 km/h (2 Bft) W-SW 242 0 min 0,000 mm 0,0 UV-I 0 W/m 4,0 C 8,8 C 8,0 km/h (2 Bft) 100,00 %
19.04.2016 23:15 8,8 C 73 % 1024,6 hPa 0,0 l/m 6,0 km/h (2 Bft) SW 220 0 min 0,000 mm 0,0 UV-I 0 W/m 4,2 C 8,8 C 8,0 km/h (2 Bft) 100,00 %
19.04.2016 23:16 8,8 C 73 % 1024,6 hPa 0,0 l/m 7,9 km/h (2 Bft) SW 236 0 min 0,000 mm 0,0 UV-I 0 W/m 4,2 C 7,7 C 9,7 km/h (2 Bft) 100,00 %
19.04.2016 23:17 8,8 C 72 % 1024,6 hPa 0,0 l/m 7,4 km/h (2 Bft) SW 236 0 min 0,000 mm 0,0 UV-I 0 W/m 4,0 C 8,0 C 9,7 km/h (2 Bft) 100,00 %
19.04.2016 23:18 8,8 C 72 % 1024,6 hPa 0,0 l/m 6,6 km/h (2 Bft) W-SW 252 0 min 0,000 mm 0,0 UV-I 0 W/m 4,0 C 8,7 C 9,7 km/h (2 Bft) 100,00 %
19.04.2016 23:19 8,8 C 72 % 1024,6 hPa 0,0 l/m 7,0 km/h (2 Bft) SW 220 0 min 0,000 mm 0,0 UV-I 0 W/m 4,0 C 8,3 C 9,7 km/h (2 Bft) 100,00 %
19.04.2016 23:20 8,8 C 72 % 1024,6 hPa 0,0 l/m 7,9 km/h (2 Bft) SW 223 0 min 0,000 mm 0,0 UV-I 0 W/m 4,0 C 7,7 C 9,7 km/h (2 Bft) 100,00 %
19.04.2016 23:21 8,8 C 72 % 1024,6 hPa 0,0 l/m 7,5 km/h (2 Bft) SW 215 0 min 0,000 mm 0,0 UV-I 0 W/m 4,0 C 8,0 C 9,7 km/h (2 Bft) 96,15 %
19.04.2016 23:22 8,8 C 72 % 1024,6 hPa 0,0 l/m 8,1 km/h (2 Bft) SW 234 0 min 0,000 mm 0,0 UV-I 0 W/m 4,0 C 7,5 C 11,3 km/h (2 Bft) 100,00 %
19.04.2016 23:23 8,8 C 72 % 1024,6 hPa 0,0 l/m 7,8 km/h (2 Bft) W-SW 238 0 min 0,000 mm 0,0 UV-I 0 W/m 4,0 C 7,7 C 9,7 km/h (2 Bft) 100,00 %
19.04.2016 23:24 8,8 C 72 % 1024,6 hPa 0,0 l/m 6,6 km/h (2 Bft) W-SW 246 0 min 0,000 mm 0,0 UV-I 0 W/m 4,0 C 8,7 C 8,0 km/h (2 Bft) 100,00 %
19.04.2016 23:25 8,8 C 72 % 1024,6 hPa 0,0 l/m 5,4 km/h (1 Bft) W-SW 240 0 min 0,000 mm 0,0 UV-I 0 W/m 4,0 C 8,8 C 8,0 km/h (2 Bft) 96,30 %
19.04.2016 23:26 8,8 C 72 % 1024,6 hPa 0,0 l/m 6,8 km/h (2 Bft) W 261 0 min 0,000 mm 0,0 UV-I 0 W/m 4,0 C 8,5 C 9,7 km/h (2 Bft) 100,00 %
19.04.2016 23:27 8,8 C 72 % 1024,6 hPa 0,0 l/m 6,4 km/h (2 Bft) W-SW 246 0 min 0,000 mm 0,0 UV-I 0 W/m 4,0 C 8,8 C 11,3 km/h (2 Bft) 95,83 %
19.04.2016 23:28 8,8 C 72 % 1024,5 hPa 0,0 l/m 6,4 km/h (2 Bft) W-SW 237 0 min 0,000 mm 0,0 UV-I 0 W/m 4,0 C 8,8 C 8,0 km/h (2 Bft) 95,65 %
19.04.2016 23:29 8,8 C 72 % 1024,5 hPa 0,0 l/m 6,2 km/h (2 Bft) W-SW 246 0 min 0,000 mm 0,0 UV-I 0 W/m 4,0 C 8,8 C 8,0 km/h (2 Bft) 100,00 %
19.04.2016 23:30 8,8 C 72 % 1024,5 hPa 0,0 l/m 5,3 km/h (1 Bft) W-SW 246 0 min 0,000 mm 0,0 UV-I 0 W/m 4,0 C 8,8 C 6,4 km/h (2 Bft) 96,55 %
19.04.2016 23:31 8,8 C 72 % 1024,4 hPa 0,0 l/m 6,7 km/h (2 Bft) SW 227 0 min 0,000 mm 0,0 UV-I 0 W/m 4,0 C 8,6 C 8,0 km/h (2 Bft) 100,00 %
19.04.2016 23:32 8,8 C 73 % 1024,5 hPa 0,0 l/m 7,5 km/h (2 Bft) SW 221 0 min 0,000 mm 0,0 UV-I 0 W/m 4,2 C 8,0 C 9,7 km/h (2 Bft) 100,00 %
19.04.2016 23:33 8,8 C 73 % 1024,5 hPa 0,0 l/m 8,3 km/h (2 Bft) S-SW 210 0 min 0,000 mm 0,0 UV-I 0 W/m 4,2 C 7,4 C 12,9 km/h (3 Bft) 100,00 %
19.04.2016 23:34 8,8 C 73 % 1024,5 hPa 0,0 l/m 7,2 km/h (2 Bft) W-SW 240 0 min 0,000 mm 0,0 UV-I 0 W/m 4,2 C 8,2 C 9,7 km/h (2 Bft) 100,00 %
19.04.2016 23:35 8,8 C 73 % 1024,5 hPa 0,0 l/m 6,8 km/h (2 Bft) S-SW 209 0 min 0,000 mm 0,0 UV-I 0 W/m 4,2 C 8,5 C 11,3 km/h (2 Bft) 100,00 %
19.04.2016 23:36 8,7 C 74 % 1024,5 hPa 0,0 l/m 8,6 km/h (2 Bft) SW 228 0 min 0,000 mm 0,0 UV-I 0 W/m 4,3 C 7,1 C 12,9 km/h (3 Bft) 100,00 %
19.04.2016 23:37 8,7 C 74 % 1024,5 hPa 0,0 l/m 8,7 km/h (2 Bft) SW 227 0 min 0,000 mm 0,0 UV-I 0 W/m 4,3 C 7,0 C 9,7 km/h (2 Bft) 100,00 %
19.04.2016 23:38 8,7 C 74 % 1024,5 hPa 0,0 l/m 7,6 km/h (2 Bft) SW 231 0 min 0,000 mm 0,0 UV-I 0 W/m 4,3 C 7,8 C 11,3 km/h (2 Bft) 96,15 %
19.04.2016 23:39 8,7 C 74 % 1024,5 hPa 0,0 l/m 7,2 km/h (2 Bft) SW 223 0 min 0,000 mm 0,0 UV-I 0 W/m 4,3 C 8,1 C 9,7 km/h (2 Bft) 95,83 %
19.04.2016 23:40 8,7 C 74 % 1024,6 hPa 0,0 l/m 8,0 km/h (2 Bft) SW 234 0 min 0,000 mm 0,0 UV-I 0 W/m 4,3 C 7,5 C 11,3 km/h (2 Bft) 100,00 %
19.04.2016 23:41 8,7 C 74 % 1024,6 hPa 0,0 l/m 9,4 km/h (2 Bft) S-SW 213 0 min 0,000 mm 0,0 UV-I 0 W/m 4,3 C 6,5 C 12,9 km/h (3 Bft) 100,00 %
19.04.2016 23:42 8,7 C 74 % 1024,6 hPa 0,0 l/m 9,1 km/h (2 Bft) SW 227 0 min 0,000 mm 0,0 UV-I 0 W/m 4,3 C 6,7 C 14,5 km/h (3 Bft) 100,00 %
19.04.2016 23:43 8,7 C 74 % 1024,6 hPa 0,0 l/m 9,8 km/h (2 Bft) SW 225 0 min 0,000 mm 0,0 UV-I 0 W/m 4,3 C 6,3 C 14,5 km/h (3 Bft) 100,00 %
19.04.2016 23:44 8,7 C 74 % 1024,5 hPa 0,0 l/m 10,6 km/h (2 Bft) SW 227 0 min 0,000 mm 0,0 UV-I 0 W/m 4,3 C 5,8 C 14,5 km/h (3 Bft) 100,00 %
19.04.2016 23:45 8,7 C 74 % 1024,5 hPa 0,0 l/m 10,0 km/h (2 Bft) W-SW 239 0 min 0,000 mm 0,0 UV-I 0 W/m 4,3 C 6,2 C 16,1 km/h (3 Bft) 96,15 %
19.04.2016 23:46 8,6 C 74 % 1024,5 hPa 0,0 l/m 9,5 km/h (2 Bft) SW 234 0 min 0,000 mm 0,0 UV-I 0 W/m 4,2 C 6,4 C 14,5 km/h (3 Bft) 100,00 %
19.04.2016 23:47 8,6 C 74 % 1024,6 hPa 0,0 l/m 10,4 km/h (2 Bft) W-SW 240 0 min 0,000 mm 0,0 UV-I 0 W/m 4,2 C 5,8 C 14,5 km/h (3 Bft) 100,00 %
19.04.2016 23:48 8,6 C 74 % 1024,6 hPa 0,0 l/m 9,2 km/h (2 Bft) W-SW 243 0 min 0,000 mm 0,0 UV-I 0 W/m 4,2 C 6,6 C 12,9 km/h (3 Bft) 95,83 %
19.04.2016 23:49 8,6 C 73 % 1024,6 hPa 0,0 l/m 11,0 km/h (2 Bft) SW 235 0 min 0,000 mm 0,0 UV-I 0 W/m 4,0 C 5,5 C 14,5 km/h (3 Bft) 100,00 %
19.04.2016 23:50 8,6 C 73 % 1024,6 hPa 0,0 l/m 8,9 km/h (2 Bft) SW 234 0 min 0,000 mm 0,0 UV-I 0 W/m 4,0 C 6,8 C 14,5 km/h (3 Bft) 100,00 %
19.04.2016 23:51 8,6 C 73 % 1024,6 hPa 0,0 l/m 8,6 km/h (2 Bft) W-SW 248 0 min 0,000 mm 0,0 UV-I 0 W/m 4,0 C 7,0 C 12,9 km/h (3 Bft) 100,00 %
19.04.2016 23:52 8,6 C 73 % 1024,6 hPa 0,0 l/m 7,6 km/h (2 Bft) W-SW 257 0 min 0,000 mm 0,0 UV-I 0 W/m 4,0 C 7,7 C 9,7 km/h (2 Bft) 100,00 %
19.04.2016 23:53 8,7 C 73 % 1024,6 hPa 0,0 l/m 8,1 km/h (2 Bft) W 264 0 min 0,000 mm 0,0 UV-I 0 W/m 4,1 C 7,4 C 11,3 km/h (2 Bft) 90,91 %
19.04.2016 23:54 8,7 C 72 % 1024,6 hPa 0,0 l/m 6,6 km/h (2 Bft) SW 227 0 min 0,000 mm 0,0 UV-I 0 W/m 3,9 C 8,6 C 11,3 km/h (2 Bft) 100,00 %
19.04.2016 23:55 8,7 C 72 % 1024,6 hPa 0,0 l/m 7,3 km/h (2 Bft) SW 219 0 min 0,000 mm 0,0 UV-I 0 W/m 3,9 C 8,0 C 9,7 km/h (2 Bft) 100,00 %
19.04.2016 23:56 8,7 C 72 % 1024,6 hPa 0,0 l/m 8,7 km/h (2 Bft) SW 228 0 min 0,000 mm 0,0 UV-I 0 W/m 3,9 C 7,0 C 11,3 km/h (2 Bft) 100,00 %
19.04.2016 23:57 8,7 C 72 % 1024,6 hPa 0,0 l/m 9,9 km/h (2 Bft) W-SW 248 0 min 0,000 mm 0,0 UV-I 0 W/m 3,9 C 6,2 C 12,9 km/h (3 Bft) 100,00 %
19.04.2016 23:58 8,7 C 72 % 1024,6 hPa 0,0 l/m 6,8 km/h (2 Bft) W-SW 238 0 min 0,000 mm 0,0 UV-I 0 W/m 3,9 C 8,4 C 9,7 km/h (2 Bft) 100,00 %
19.04.2016 23:59 8,7 C 72 % 1024,6 hPa 0,0 l/m 8,6 km/h (2 Bft) SW 216 0 min 0,000 mm 0,0 UV-I 0 W/m 3,9 C 7,1 C 11,3 km/h (2 Bft) 100,00 %
_ Min-Zeit 04:42 15:09 00:03 - 00:23 - - - - - - 16:59 08:33 00:03 20:16
Minimum _ 7,6 C 51 % 1020,8 hPa - 0,2 km/h (0 Bft) - - - - - - 2,8 C 2,4 C 1,6 km/h (1 Bft) 83,33 %
_ Max-Zeit 13:53 00:33 23:09 00:39 13:37 - - 17:15 12:02 12:39 13:52 00:35 12:45 13:37 00:00
Maximum _ 13,2 C 96 % 1024,6 hPa 0,2 l/m 22,9 km/h
W (4 Bft)
- - 2 min 0,381 mm 4,5 UV-I 1025 W/m 7,9 C 12,8 C 33,8 km/h
W (5 Bft)
100,00 %
Durchschnitt _ 10,0 C 74 % 1022,7 hPa #0,2 l/m 7,3 km/h (2 Bft) W - #3:52 h #2,540 mm 2,0 UV-I 302 W/m 5,3 C 8,9 C 11,3 km/h (2 Bft) 98,66 %